<?xml version='1.0' encoding='UTF-8'?><gpx version="1.1" creator="JPX - https://github.com/jenetics/jpx" xmlns="http://www.topografix.com/GPX/1/1"><trk><trkseg><trkpt lat="53.76469402272228" lon="11.097900334092888"><ele>50.0</ele><time>2026-04-05T12:55:19.992Z</time></trkpt><trkpt lat="53.76472004430469" lon="11.097789670407488"><ele>50.0</ele><time>2026-04-05T12:56:13.992Z</time></trkpt><trkpt lat="53.76478727805995" lon="11.097686287176709"><ele>50.0</ele><time>2026-04-05T12:56:16.992Z</time></trkpt><trkpt lat="53.76489684915104" lon="11.097699091772768"><ele>50.0</ele><time>2026-04-05T12:56:18.992Z</time></trkpt><trkpt lat="53.765021422622816" lon="11.097730003261466"><ele>50.0</ele><time>2026-04-05T12:56:20.992Z</time></trkpt><trkpt lat="53.76509670452567" lon="11.097731925190372"><ele>50.00000000000001</ele><time>2026-04-05T12:56:21.992Z</time></trkpt><trkpt lat="53.765172236738444" lon="11.09772954855219"><ele>50.0</ele><time>2026-04-05T12:56:22.992Z</time></trkpt><trkpt lat="53.7652566887484" lon="11.09773675248156"><ele>50.0</ele><time>2026-04-05T12:56:23.992Z</time></trkpt><trkpt lat="53.76533035904412" lon="11.097728725742442"><ele>50.0</ele><time>2026-04-05T12:56:24.992Z</time></trkpt><trkpt lat="53.765402914109465" lon="11.097708045964481"><ele>50.00000000000001</ele><time>2026-04-05T12:56:25.992Z</time></trkpt><trkpt lat="53.76546728582127" lon="11.09763686469265"><ele>50.0</ele><time>2026-04-05T12:56:26.992Z</time></trkpt><trkpt lat="53.76551217339459" lon="11.097533443448288"><ele>49.4</ele><time>2026-04-05T12:56:27.992Z</time></trkpt><trkpt lat="53.765549744538724" lon="11.0973993448832"><ele>48.8</ele><time>2026-04-05T12:56:28.992Z</time></trkpt><trkpt lat="53.76553418274427" lon="11.097249130852191"><ele>48.2</ele><time>2026-04-05T12:56:29.992Z</time></trkpt><trkpt lat="53.76549588940411" lon="11.097077583559765"><ele>47.6</ele><time>2026-04-05T12:56:30.992Z</time></trkpt><trkpt lat="53.765457063271704" lon="11.096889404046705"><ele>47.0</ele><time>2026-04-05T12:56:31.992Z</time></trkpt><trkpt lat="53.76541590159964" lon="11.0966996344931"><ele>47.0</ele><time>2026-04-05T12:56:32.992Z</time></trkpt><trkpt lat="53.76536878299968" lon="11.09653372299477"><ele>47.0</ele><time>2026-04-05T12:56:33.992Z</time></trkpt><trkpt lat="53.765319446383195" lon="11.096402216819172"><ele>47.0</ele><time>2026-04-05T12:56:34.992Z</time></trkpt><trkpt lat="53.76525048241342" lon="11.096295536711663"><ele>47.0</ele><time>2026-04-05T12:56:35.992Z</time></trkpt><trkpt lat="53.765146707196784" lon="11.096285617047892"><ele>47.0</ele><time>2026-04-05T12:56:36.992Z</time></trkpt><trkpt lat="53.76504491223909" lon="11.096267646750682"><ele>47.33333333333333</ele><time>2026-04-05T12:56:37.992Z</time></trkpt><trkpt lat="53.764949934254176" lon="11.096274469793652"><ele>47.666666666666664</ele><time>2026-04-05T12:56:38.992Z</time></trkpt><trkpt lat="53.76487065731568" lon="11.09626399400176"><ele>48.0</ele><time>2026-04-05T12:56:39.992Z</time></trkpt><trkpt lat="53.76480255498863" lon="11.096228613593981"><ele>48.33333333333333</ele><time>2026-04-05T12:56:40.992Z</time></trkpt><trkpt lat="53.76473652229742" lon="11.096246474447307"><ele>48.666666666666664</ele><time>2026-04-05T12:56:41.992Z</time></trkpt><trkpt lat="53.76464665717507" lon="11.096223082920101"><ele>49.0</ele><time>2026-04-05T12:56:43.992Z</time></trkpt><trkpt lat="53.76459644937337" lon="11.096140901678824"><ele>49.0</ele><time>2026-04-05T12:56:45.992Z</time></trkpt><trkpt lat="53.76464849711337" lon="11.095996555448444"><ele>49.0</ele><time>2026-04-05T12:56:47.992Z</time></trkpt><trkpt lat="53.76475635864263" lon="11.095881222997855"><ele>49.0</ele><time>2026-04-05T12:56:49.992Z</time></trkpt><trkpt lat="53.76481668528925" lon="11.095812379743004"><ele>49.0</ele><time>2026-04-05T12:56:50.992Z</time></trkpt><trkpt lat="53.764865928006856" lon="11.095741934942177"><ele>49.0</ele><time>2026-04-05T12:56:51.992Z</time></trkpt><trkpt lat="53.76495506673551" lon="11.09549834073794"><ele>48.6</ele><time>2026-04-05T12:56:53.992Z</time></trkpt><trkpt lat="53.764895985485715" lon="11.095410754536733"><ele>48.2</ele><time>2026-04-05T12:56:54.992Z</time></trkpt><trkpt lat="53.76481769899678" lon="11.095294697136715"><ele>47.800000000000004</ele><time>2026-04-05T12:56:55.992Z</time></trkpt><trkpt lat="53.76475347670788" lon="11.095166199219854"><ele>47.400000000000006</ele><time>2026-04-05T12:56:56.992Z</time></trkpt><trkpt lat="53.76473289426903" lon="11.094962670431972"><ele>47.0</ele><time>2026-04-05T12:56:57.992Z</time></trkpt><trkpt lat="53.764707478312154" lon="11.094749658991343"><ele>46.5</ele><time>2026-04-05T12:56:58.992Z</time></trkpt><trkpt lat="53.76467537560097" lon="11.094524023556788"><ele>46.0</ele><time>2026-04-05T12:56:59.992Z</time></trkpt><trkpt lat="53.764621606912065" lon="11.094301491050887"><ele>45.5</ele><time>2026-04-05T12:57:00.992Z</time></trkpt><trkpt lat="53.7645675397054" lon="11.094077134701172"><ele>45.0</ele><time>2026-04-05T12:57:01.992Z</time></trkpt><trkpt lat="53.76452858541371" lon="11.09383685880613"><ele>45.0</ele><time>2026-04-05T12:57:02.992Z</time></trkpt><trkpt lat="53.76450252662525" lon="11.093582136446226"><ele>45.0</ele><time>2026-04-05T12:57:03.992Z</time></trkpt><trkpt lat="53.76450771417688" lon="11.093306293860989"><ele>45.0</ele><time>2026-04-05T12:57:04.992Z</time></trkpt><trkpt lat="53.76453645480007" lon="11.093035486448084"><ele>45.666666666666664</ele><time>2026-04-05T12:57:05.992Z</time></trkpt><trkpt lat="53.76457896827889" lon="11.092751999000201"><ele>46.33333333333333</ele><time>2026-04-05T12:57:06.992Z</time></trkpt><trkpt lat="53.7646162236641" lon="11.092466032683795"><ele>47.0</ele><time>2026-04-05T12:57:07.992Z</time></trkpt><trkpt lat="53.764641571850845" lon="11.092181435195148"><ele>47.666666666666664</ele><time>2026-04-05T12:57:08.992Z</time></trkpt><trkpt lat="53.764688630914435" lon="11.09191259094183"><ele>48.33333333333333</ele><time>2026-04-05T12:57:09.992Z</time></trkpt><trkpt lat="53.76477339132777" lon="11.091669522622217"><ele>49.0</ele><time>2026-04-05T12:57:10.992Z</time></trkpt><trkpt lat="53.7648647146856" lon="11.091456178526004"><ele>49.0</ele><time>2026-04-05T12:57:11.992Z</time></trkpt><trkpt lat="53.76492484826977" lon="11.091210110788646"><ele>49.0</ele><time>2026-04-05T12:57:12.992Z</time></trkpt><trkpt lat="53.764897102770846" lon="11.090956915423812"><ele>49.0</ele><time>2026-04-05T12:57:13.992Z</time></trkpt><trkpt lat="53.76483406124352" lon="11.090728957634996"><ele>49.0</ele><time>2026-04-05T12:57:14.992Z</time></trkpt><trkpt lat="53.76479179984171" lon="11.090508955931629"><ele>49.0</ele><time>2026-04-05T12:57:15.992Z</time></trkpt><trkpt lat="53.76474293724932" lon="11.090300058837881"><ele>49.0</ele><time>2026-04-05T12:57:16.992Z</time></trkpt><trkpt lat="53.76469105491803" lon="11.090074909609887"><ele>49.0</ele><time>2026-04-05T12:57:17.992Z</time></trkpt><trkpt lat="53.76462998036798" lon="11.089859574406928"><ele>49.0</ele><time>2026-04-05T12:57:18.992Z</time></trkpt><trkpt lat="53.76457818745191" lon="11.089646595215058"><ele>49.0</ele><time>2026-04-05T12:57:19.992Z</time></trkpt><trkpt lat="53.764512781686136" lon="11.089427694494901"><ele>49.0</ele><time>2026-04-05T12:57:20.992Z</time></trkpt><trkpt lat="53.76444011872346" lon="11.089218418010542"><ele>49.0</ele><time>2026-04-05T12:57:21.992Z</time></trkpt><trkpt lat="53.76434726053832" lon="11.089011175587952"><ele>49.0</ele><time>2026-04-05T12:57:22.992Z</time></trkpt><trkpt lat="53.764246941001495" lon="11.088798855608625"><ele>49.0</ele><time>2026-04-05T12:57:23.992Z</time></trkpt><trkpt lat="53.76413656003491" lon="11.08858147289403"><ele>49.0</ele><time>2026-04-05T12:57:24.992Z</time></trkpt><trkpt lat="53.76403165545953" lon="11.088344756178596"><ele>48.33333333333333</ele><time>2026-04-05T12:57:25.992Z</time></trkpt><trkpt lat="53.76391809204161" lon="11.0881116721886"><ele>47.666666666666664</ele><time>2026-04-05T12:57:26.992Z</time></trkpt><trkpt lat="53.76380138080218" lon="11.087901256833485"><ele>47.0</ele><time>2026-04-05T12:57:27.992Z</time></trkpt><trkpt lat="53.76365467150568" lon="11.087737112690942"><ele>48.666666666666664</ele><time>2026-04-05T12:57:28.992Z</time></trkpt><trkpt lat="53.76350273932888" lon="11.087580927731935"><ele>50.33333333333333</ele><time>2026-04-05T12:57:29.992Z</time></trkpt><trkpt lat="53.76334881573518" lon="11.087457708219159"><ele>52.0</ele><time>2026-04-05T12:57:30.992Z</time></trkpt><trkpt lat="53.76319043375291" lon="11.087351659816607"><ele>53.0</ele><time>2026-04-05T12:57:31.992Z</time></trkpt><trkpt lat="53.76304169813088" lon="11.087240689241854"><ele>54.0</ele><time>2026-04-05T12:57:32.992Z</time></trkpt><trkpt lat="53.76289771737664" lon="11.087142465234328"><ele>55.0</ele><time>2026-04-05T12:57:33.992Z</time></trkpt><trkpt lat="53.762755164933715" lon="11.087022056803514"><ele>55.0</ele><time>2026-04-05T12:57:34.992Z</time></trkpt><trkpt lat="53.762601071192925" lon="11.086913503294102"><ele>55.0</ele><time>2026-04-05T12:57:35.992Z</time></trkpt><trkpt lat="53.76244880983059" lon="11.086807980597568"><ele>55.0</ele><time>2026-04-05T12:57:36.992Z</time></trkpt><trkpt lat="53.76229974915276" lon="11.086733434708929"><ele>55.0</ele><time>2026-04-05T12:57:37.992Z</time></trkpt><trkpt lat="53.76215463552827" lon="11.0866158828062"><ele>55.0</ele><time>2026-04-05T12:57:38.992Z</time></trkpt><trkpt lat="53.76201698611792" lon="11.08651515160228"><ele>55.0</ele><time>2026-04-05T12:57:39.992Z</time></trkpt><trkpt lat="53.76188230101964" lon="11.086420800278413"><ele>54.33333333333333</ele><time>2026-04-05T12:57:40.992Z</time></trkpt><trkpt lat="53.76174241674009" lon="11.086318083071879"><ele>53.66666666666667</ele><time>2026-04-05T12:57:41.992Z</time></trkpt><trkpt lat="53.761604761308966" lon="11.08621087543224"><ele>53.0</ele><time>2026-04-05T12:57:42.992Z</time></trkpt><trkpt lat="53.761443822516" lon="11.086125322150114"><ele>53.0</ele><time>2026-04-05T12:57:43.992Z</time></trkpt><trkpt lat="53.761289072372186" lon="11.08602960503466"><ele>53.0</ele><time>2026-04-05T12:57:44.992Z</time></trkpt><trkpt lat="53.761138965747975" lon="11.08591054641658"><ele>53.0</ele><time>2026-04-05T12:57:45.992Z</time></trkpt><trkpt lat="53.760960430075755" lon="11.085838380940809"><ele>52.0</ele><time>2026-04-05T12:57:46.992Z</time></trkpt><trkpt lat="53.760793890444546" lon="11.085703131795338"><ele>51.0</ele><time>2026-04-05T12:57:47.992Z</time></trkpt><trkpt lat="53.76062123483372" lon="11.085572644372643"><ele>50.0</ele><time>2026-04-05T12:57:48.992Z</time></trkpt><trkpt lat="53.76046146772691" lon="11.085430123481997"><ele>50.0</ele><time>2026-04-05T12:57:49.992Z</time></trkpt><trkpt lat="53.7602885862392" lon="11.085318806037064"><ele>50.0</ele><time>2026-04-05T12:57:50.992Z</time></trkpt><trkpt lat="53.76011816241037" lon="11.08523276094425"><ele>50.0</ele><time>2026-04-05T12:57:51.992Z</time></trkpt><trkpt lat="53.75995082869595" lon="11.085126030024231"><ele>50.333333333333336</ele><time>2026-04-05T12:57:52.992Z</time></trkpt><trkpt lat="53.759788308473475" lon="11.08502361161006"><ele>50.66666666666667</ele><time>2026-04-05T12:57:53.992Z</time></trkpt><trkpt lat="53.759629833455556" lon="11.084923742488558"><ele>51.0</ele><time>2026-04-05T12:57:54.992Z</time></trkpt><trkpt lat="53.759463051877816" lon="11.0848223441153"><ele>51.66666666666667</ele><time>2026-04-05T12:57:55.992Z</time></trkpt><trkpt lat="53.75929027639787" lon="11.08471586138815"><ele>52.333333333333336</ele><time>2026-04-05T12:57:56.992Z</time></trkpt><trkpt lat="53.759115389511216" lon="11.084604799850057"><ele>53.0</ele><time>2026-04-05T12:57:57.992Z</time></trkpt><trkpt lat="53.758945574834776" lon="11.08448399833724"><ele>53.0</ele><time>2026-04-05T12:57:58.992Z</time></trkpt><trkpt lat="53.75880452344813" lon="11.084333062680576"><ele>53.0</ele><time>2026-04-05T12:57:59.992Z</time></trkpt><trkpt lat="53.75864885837618" lon="11.084188664621843"><ele>53.0</ele><time>2026-04-05T12:58:00.992Z</time></trkpt><trkpt lat="53.758518433009506" lon="11.084038727322856"><ele>53.0</ele><time>2026-04-05T12:58:01.992Z</time></trkpt><trkpt lat="53.758377850749454" lon="11.083846829338249"><ele>53.0</ele><time>2026-04-05T12:58:02.992Z</time></trkpt><trkpt lat="53.75827015373775" lon="11.083615340496713"><ele>53.0</ele><time>2026-04-05T12:58:03.992Z</time></trkpt><trkpt lat="53.75814897071732" lon="11.083396878024296"><ele>52.66666666666667</ele><time>2026-04-05T12:58:04.992Z</time></trkpt><trkpt lat="53.75802118725077" lon="11.083138169959675"><ele>52.33333333333333</ele><time>2026-04-05T12:58:05.992Z</time></trkpt><trkpt lat="53.75788980451369" lon="11.082898814993113"><ele>52.0</ele><time>2026-04-05T12:58:06.992Z</time></trkpt><trkpt lat="53.75776991819454" lon="11.082667064242266"><ele>52.0</ele><time>2026-04-05T12:58:07.992Z</time></trkpt><trkpt lat="53.75766347154343" lon="11.082425710426941"><ele>52.0</ele><time>2026-04-05T12:58:08.992Z</time></trkpt><trkpt lat="53.75755470293001" lon="11.082206865365785"><ele>52.0</ele><time>2026-04-05T12:58:09.992Z</time></trkpt><trkpt lat="53.7574478654446" lon="11.082004180031937"><ele>52.0</ele><time>2026-04-05T12:58:10.992Z</time></trkpt><trkpt lat="53.7573358094153" lon="11.081803377765159"><ele>52.0</ele><time>2026-04-05T12:58:11.992Z</time></trkpt><trkpt lat="53.75722793022501" lon="11.081613953907553"><ele>52.0</ele><time>2026-04-05T12:58:12.992Z</time></trkpt><trkpt lat="53.75711972289629" lon="11.081433684861805"><ele>52.0</ele><time>2026-04-05T12:58:13.992Z</time></trkpt><trkpt lat="53.75701499784161" lon="11.081261969529773"><ele>52.0</ele><time>2026-04-05T12:58:14.992Z</time></trkpt><trkpt lat="53.75690556781051" lon="11.081093221328791"><ele>52.0</ele><time>2026-04-05T12:58:15.992Z</time></trkpt><trkpt lat="53.75678630027757" lon="11.080920062919109"><ele>52.0</ele><time>2026-04-05T12:58:16.992Z</time></trkpt><trkpt lat="53.75667146653952" lon="11.080764856539567"><ele>52.0</ele><time>2026-04-05T12:58:17.992Z</time></trkpt><trkpt lat="53.756544542353005" lon="11.080613062525886"><ele>52.0</ele><time>2026-04-05T12:58:18.992Z</time></trkpt><trkpt lat="53.75642629729245" lon="11.080480758616803"><ele>52.0</ele><time>2026-04-05T12:58:19.992Z</time></trkpt><trkpt lat="53.75629416978995" lon="11.080341050892482"><ele>52.0</ele><time>2026-04-05T12:58:20.992Z</time></trkpt><trkpt lat="53.756173769862095" lon="11.08022062437537"><ele>52.0</ele><time>2026-04-05T12:58:21.992Z</time></trkpt><trkpt lat="53.75605011578099" lon="11.080079341822856"><ele>52.0</ele><time>2026-04-05T12:58:22.992Z</time></trkpt><trkpt lat="53.75589314416551" lon="11.07997280921663"><ele>51.5</ele><time>2026-04-05T12:58:23.992Z</time></trkpt><trkpt lat="53.755791178877054" lon="11.0798539062706"><ele>51.0</ele><time>2026-04-05T12:58:24.992Z</time></trkpt><trkpt lat="53.755640966767594" lon="11.079774775731455"><ele>50.5</ele><time>2026-04-05T12:58:25.992Z</time></trkpt><trkpt lat="53.75549590007431" lon="11.079679419512944"><ele>50.0</ele><time>2026-04-05T12:58:26.992Z</time></trkpt><trkpt lat="53.75537179307321" lon="11.079598147045498"><ele>50.0</ele><time>2026-04-05T12:58:27.992Z</time></trkpt><trkpt lat="53.75524565533704" lon="11.079516402187672"><ele>50.0</ele><time>2026-04-05T12:58:28.992Z</time></trkpt><trkpt lat="53.75512195230971" lon="11.079435127479227"><ele>50.0</ele><time>2026-04-05T12:58:29.992Z</time></trkpt><trkpt lat="53.75500263368464" lon="11.079356055207436"><ele>50.0</ele><time>2026-04-05T12:58:30.992Z</time></trkpt><trkpt lat="53.754881514774695" lon="11.079273830643785"><ele>50.25</ele><time>2026-04-05T12:58:31.992Z</time></trkpt><trkpt lat="53.75475792021027" lon="11.079188281834728"><ele>50.5</ele><time>2026-04-05T12:58:32.992Z</time></trkpt><trkpt lat="53.75463929295542" lon="11.079108032687344"><ele>50.75</ele><time>2026-04-05T12:58:33.992Z</time></trkpt><trkpt lat="53.754521936385856" lon="11.079042543151058"><ele>51.0</ele><time>2026-04-05T12:58:34.992Z</time></trkpt><trkpt lat="53.75441372855892" lon="11.07898046046392"><ele>50.25</ele><time>2026-04-05T12:58:35.992Z</time></trkpt><trkpt lat="53.75430058173135" lon="11.079062469319027"><ele>49.5</ele><time>2026-04-05T12:58:36.992Z</time></trkpt><trkpt lat="53.75414354667094" lon="11.079153531421937"><ele>48.75</ele><time>2026-04-05T12:58:37.992Z</time></trkpt><trkpt lat="53.75399981491018" lon="11.079236879150702"><ele>48.0</ele><time>2026-04-05T12:58:38.992Z</time></trkpt><trkpt lat="53.75380969778986" lon="11.079373196235899"><ele>48.0</ele><time>2026-04-05T12:58:39.992Z</time></trkpt><trkpt lat="53.75365356808613" lon="11.07945821009449"><ele>48.0</ele><time>2026-04-05T12:58:40.992Z</time></trkpt><trkpt lat="53.753503831971884" lon="11.079565930811285"><ele>48.0</ele><time>2026-04-05T12:58:41.992Z</time></trkpt><trkpt lat="53.753351781004646" lon="11.079613120174974"><ele>47.333333333333336</ele><time>2026-04-05T12:58:42.992Z</time></trkpt><trkpt lat="53.75319632092692" lon="11.079683305204588"><ele>46.66666666666667</ele><time>2026-04-05T12:58:43.992Z</time></trkpt><trkpt lat="53.753044578907414" lon="11.079746219843699"><ele>46.0</ele><time>2026-04-05T12:58:44.992Z</time></trkpt><trkpt lat="53.75288126918212" lon="11.079852648019004"><ele>46.333333333333336</ele><time>2026-04-05T12:58:45.992Z</time></trkpt><trkpt lat="53.75272178035712" lon="11.079945217083264"><ele>46.666666666666664</ele><time>2026-04-05T12:58:46.992Z</time></trkpt><trkpt lat="53.752555941227264" lon="11.080035661688482"><ele>47.0</ele><time>2026-04-05T12:58:47.992Z</time></trkpt><trkpt lat="53.75239939444741" lon="11.080143744791306"><ele>46.33333333333333</ele><time>2026-04-05T12:58:48.992Z</time></trkpt><trkpt lat="53.75223625882395" lon="11.080290584910664"><ele>45.666666666666664</ele><time>2026-04-05T12:58:49.992Z</time></trkpt><trkpt lat="53.75207829385548" lon="11.080475908936267"><ele>45.0</ele><time>2026-04-05T12:58:50.992Z</time></trkpt><trkpt lat="53.751916612143404" lon="11.080612630513407"><ele>45.333333333333336</ele><time>2026-04-05T12:58:51.992Z</time></trkpt><trkpt lat="53.751754676349336" lon="11.080767948646717"><ele>45.66666666666667</ele><time>2026-04-05T12:58:52.992Z</time></trkpt><trkpt lat="53.751572962765074" lon="11.080901096103133"><ele>46.0</ele><time>2026-04-05T12:58:53.992Z</time></trkpt><trkpt lat="53.751402860104164" lon="11.081039351054008"><ele>46.0</ele><time>2026-04-05T12:58:54.992Z</time></trkpt><trkpt lat="53.75124360189116" lon="11.081195659436023"><ele>46.0</ele><time>2026-04-05T12:58:55.992Z</time></trkpt><trkpt lat="53.75109161821027" lon="11.081306820079144"><ele>46.0</ele><time>2026-04-05T12:58:56.992Z</time></trkpt><trkpt lat="53.750979971920344" lon="11.081382262034614"><ele>45.75</ele><time>2026-04-05T12:58:57.992Z</time></trkpt><trkpt lat="53.750834548069285" lon="11.081409466415487"><ele>45.5</ele><time>2026-04-05T12:58:58.992Z</time></trkpt><trkpt lat="53.75071060812567" lon="11.081417919617467"><ele>45.25</ele><time>2026-04-05T12:58:59.992Z</time></trkpt><trkpt lat="53.75059847562696" lon="11.081413030421345"><ele>45.0</ele><time>2026-04-05T12:59:00.992Z</time></trkpt><trkpt lat="53.7504829541858" lon="11.081347044547371"><ele>45.0</ele><time>2026-04-05T12:59:01.992Z</time></trkpt><trkpt lat="53.750391208772655" lon="11.08121270942606"><ele>45.0</ele><time>2026-04-05T12:59:02.992Z</time></trkpt><trkpt lat="53.750330235829686" lon="11.081024781422089"><ele>45.0</ele><time>2026-04-05T12:59:03.992Z</time></trkpt><trkpt lat="53.7502898939281" lon="11.080850360434882"><ele>45.0</ele><time>2026-04-05T12:59:04.992Z</time></trkpt><trkpt lat="53.75024720790196" lon="11.080652957655454"><ele>45.0</ele><time>2026-04-05T12:59:05.992Z</time></trkpt><trkpt lat="53.75020256055113" lon="11.080451712468077"><ele>45.0</ele><time>2026-04-05T12:59:06.992Z</time></trkpt><trkpt lat="53.75015221922139" lon="11.080251870122323"><ele>45.0</ele><time>2026-04-05T12:59:07.992Z</time></trkpt><trkpt lat="53.75009555486261" lon="11.080023450321118"><ele>45.0</ele><time>2026-04-05T12:59:08.992Z</time></trkpt><trkpt lat="53.75005720497254" lon="11.079837103438532"><ele>45.0</ele><time>2026-04-05T12:59:09.992Z</time></trkpt><trkpt lat="53.74998363327444" lon="11.079633496328002"><ele>45.0</ele><time>2026-04-05T12:59:10.993Z</time></trkpt><trkpt lat="53.749890133188146" lon="11.0793951796341"><ele>45.0</ele><time>2026-04-05T12:59:11.993Z</time></trkpt><trkpt lat="53.74970913079809" lon="11.079288599158339"><ele>45.0</ele><time>2026-04-05T12:59:12.993Z</time></trkpt><trkpt lat="53.749524019410174" lon="11.079226523513773"><ele>45.0</ele><time>2026-04-05T12:59:13.993Z</time></trkpt><trkpt lat="53.74935485876483" lon="11.079185637713215"><ele>45.0</ele><time>2026-04-05T12:59:14.993Z</time></trkpt><trkpt lat="53.74919341883093" lon="11.079144542922565"><ele>44.25</ele><time>2026-04-05T12:59:15.993Z</time></trkpt><trkpt lat="53.749055172827305" lon="11.079123341834995"><ele>43.5</ele><time>2026-04-05T12:59:16.993Z</time></trkpt><trkpt lat="53.748921549420544" lon="11.07920908043133"><ele>42.75</ele><time>2026-04-05T12:59:17.993Z</time></trkpt><trkpt lat="53.748783312874984" lon="11.079270272820217"><ele>42.0</ele><time>2026-04-05T12:59:18.993Z</time></trkpt><trkpt lat="53.74862368447478" lon="11.079332303101161"><ele>42.666666666666664</ele><time>2026-04-05T12:59:19.993Z</time></trkpt><trkpt lat="53.74846981041733" lon="11.079432649093112"><ele>43.33333333333333</ele><time>2026-04-05T12:59:20.993Z</time></trkpt><trkpt lat="53.748289556342364" lon="11.079503839360484"><ele>44.0</ele><time>2026-04-05T12:59:21.993Z</time></trkpt><trkpt lat="53.74812309458745" lon="11.079571767962399"><ele>44.0</ele><time>2026-04-05T12:59:22.993Z</time></trkpt><trkpt lat="53.7479679894168" lon="11.079620723726217"><ele>44.0</ele><time>2026-04-05T12:59:23.993Z</time></trkpt><trkpt lat="53.74781187019127" lon="11.079655969956852"><ele>44.0</ele><time>2026-04-05T12:59:24.993Z</time></trkpt><trkpt lat="53.74765996242697" lon="11.079659321348196"><ele>44.0</ele><time>2026-04-05T12:59:25.993Z</time></trkpt><trkpt lat="53.74751117356156" lon="11.079658583959787"><ele>44.0</ele><time>2026-04-05T12:59:26.993Z</time></trkpt><trkpt lat="53.74732933772453" lon="11.079653995044017"><ele>44.0</ele><time>2026-04-05T12:59:27.993Z</time></trkpt><trkpt lat="53.747144658422414" lon="11.079572920460329"><ele>44.0</ele><time>2026-04-05T12:59:28.993Z</time></trkpt><trkpt lat="53.74694468940117" lon="11.079548809652499"><ele>44.0</ele><time>2026-04-05T12:59:29.993Z</time></trkpt><trkpt lat="53.74677949542065" lon="11.079521320459785"><ele>44.0</ele><time>2026-04-05T12:59:30.993Z</time></trkpt><trkpt lat="53.74656378907169" lon="11.07948800672919"><ele>43.33333333333333</ele><time>2026-04-05T12:59:31.993Z</time></trkpt><trkpt lat="53.746377716497875" lon="11.079460832177386"><ele>42.666666666666664</ele><time>2026-04-05T12:59:32.993Z</time></trkpt><trkpt lat="53.74618362106616" lon="11.079411107164812"><ele>42.0</ele><time>2026-04-05T12:59:33.993Z</time></trkpt><trkpt lat="53.74599110485552" lon="11.079388200648777"><ele>41.666666666666664</ele><time>2026-04-05T12:59:34.993Z</time></trkpt><trkpt lat="53.74583429749934" lon="11.079267716894737"><ele>41.33333333333333</ele><time>2026-04-05T12:59:35.993Z</time></trkpt><trkpt lat="53.745694566669044" lon="11.079105109185079"><ele>41.0</ele><time>2026-04-05T12:59:36.993Z</time></trkpt><trkpt lat="53.74555522178324" lon="11.07893436536319"><ele>40.666666666666664</ele><time>2026-04-05T12:59:37.993Z</time></trkpt><trkpt lat="53.74539445443522" lon="11.078752747567602"><ele>40.333333333333336</ele><time>2026-04-05T12:59:38.993Z</time></trkpt><trkpt lat="53.7452642808707" lon="11.078546168280186"><ele>40.0</ele><time>2026-04-05T12:59:39.993Z</time></trkpt><trkpt lat="53.74510575262457" lon="11.078354897341704"><ele>40.66666666666667</ele><time>2026-04-05T12:59:40.993Z</time></trkpt><trkpt lat="53.74493789262321" lon="11.078182504695285"><ele>41.333333333333336</ele><time>2026-04-05T12:59:41.993Z</time></trkpt><trkpt lat="53.74475243386728" lon="11.078056899640853"><ele>42.0</ele><time>2026-04-05T12:59:42.993Z</time></trkpt><trkpt lat="53.74457984182622" lon="11.07793792534313"><ele>42.0</ele><time>2026-04-05T12:59:43.993Z</time></trkpt><trkpt lat="53.74442693934205" lon="11.077774429381126"><ele>42.0</ele><time>2026-04-05T12:59:44.993Z</time></trkpt><trkpt lat="53.744295496998085" lon="11.077585958308536"><ele>42.0</ele><time>2026-04-05T12:59:45.993Z</time></trkpt><trkpt lat="53.74415851327254" lon="11.077354577390018"><ele>41.0</ele><time>2026-04-05T12:59:46.993Z</time></trkpt><trkpt lat="53.744015951938614" lon="11.077150764174622"><ele>40.0</ele><time>2026-04-05T12:59:47.993Z</time></trkpt><trkpt lat="53.74387351088578" lon="11.07694699222837"><ele>39.0</ele><time>2026-04-05T12:59:48.993Z</time></trkpt><trkpt lat="53.743697658040176" lon="11.076793355083707"><ele>39.0</ele><time>2026-04-05T12:59:49.993Z</time></trkpt><trkpt lat="53.743516110200964" lon="11.076684488443686"><ele>39.0</ele><time>2026-04-05T12:59:50.993Z</time></trkpt><trkpt lat="53.74333327477645" lon="11.076660949236377"><ele>39.0</ele><time>2026-04-05T12:59:51.993Z</time></trkpt><trkpt lat="53.74316966226044" lon="11.076577281455199"><ele>39.0</ele><time>2026-04-05T12:59:52.993Z</time></trkpt><trkpt lat="53.74302755909018" lon="11.076443689104297"><ele>39.0</ele><time>2026-04-05T12:59:53.993Z</time></trkpt><trkpt lat="53.74289434246551" lon="11.076267449178138"><ele>39.0</ele><time>2026-04-05T12:59:54.993Z</time></trkpt><trkpt lat="53.74275500029078" lon="11.076081881124827"><ele>38.666666666666664</ele><time>2026-04-05T12:59:55.993Z</time></trkpt><trkpt lat="53.7426168355355" lon="11.075887653454187"><ele>38.33333333333333</ele><time>2026-04-05T12:59:56.993Z</time></trkpt><trkpt lat="53.74246943461162" lon="11.075683833150622"><ele>38.0</ele><time>2026-04-05T12:59:57.993Z</time></trkpt><trkpt lat="53.742326751982944" lon="11.075493462871615"><ele>37.33333333333333</ele><time>2026-04-05T12:59:58.993Z</time></trkpt><trkpt lat="53.74218993882622" lon="11.075289799686667"><ele>36.666666666666664</ele><time>2026-04-05T12:59:59.993Z</time></trkpt><trkpt lat="53.742055285664804" lon="11.075085257052532"><ele>36.0</ele><time>2026-04-05T13:00:00.993Z</time></trkpt><trkpt lat="53.74192665584412" lon="11.074863107389712"><ele>35.333333333333336</ele><time>2026-04-05T13:00:01.993Z</time></trkpt><trkpt lat="53.74178232886517" lon="11.074691024362334"><ele>34.66666666666667</ele><time>2026-04-05T13:00:02.993Z</time></trkpt><trkpt lat="53.74163814406099" lon="11.074493634456385"><ele>34.0</ele><time>2026-04-05T13:00:03.993Z</time></trkpt><trkpt lat="53.74150429539962" lon="11.074325580355048"><ele>34.0</ele><time>2026-04-05T13:00:04.993Z</time></trkpt><trkpt lat="53.741360781619676" lon="11.0741155476205"><ele>34.0</ele><time>2026-04-05T13:00:05.993Z</time></trkpt><trkpt lat="53.741188097017" lon="11.074043651922883"><ele>34.0</ele><time>2026-04-05T13:00:06.993Z</time></trkpt><trkpt lat="53.74099863399634" lon="11.074027399228488"><ele>33.0</ele><time>2026-04-05T13:00:07.993Z</time></trkpt><trkpt lat="53.74080293741895" lon="11.07401581468586"><ele>32.0</ele><time>2026-04-05T13:00:08.993Z</time></trkpt><trkpt lat="53.74061035269592" lon="11.074005738878233"><ele>31.0</ele><time>2026-04-05T13:00:09.993Z</time></trkpt><trkpt lat="53.74043793041226" lon="11.073998044669613"><ele>31.0</ele><time>2026-04-05T13:00:10.993Z</time></trkpt><trkpt lat="53.74026231100161" lon="11.073986425359001"><ele>31.0</ele><time>2026-04-05T13:00:11.993Z</time></trkpt><trkpt lat="53.74007034586033" lon="11.073973549917296"><ele>31.0</ele><time>2026-04-05T13:00:12.993Z</time></trkpt><trkpt lat="53.73985511330261" lon="11.073947871524265"><ele>30.666666666666668</ele><time>2026-04-05T13:00:13.993Z</time></trkpt><trkpt lat="53.7396601842778" lon="11.073956252763528"><ele>30.333333333333336</ele><time>2026-04-05T13:00:14.993Z</time></trkpt><trkpt lat="53.73946654126611" lon="11.07396615958678"><ele>30.0</ele><time>2026-04-05T13:00:15.993Z</time></trkpt><trkpt lat="53.73929515700936" lon="11.073939808129182"><ele>30.0</ele><time>2026-04-05T13:00:16.993Z</time></trkpt><trkpt lat="53.7391240131431" lon="11.07389131023088"><ele>30.0</ele><time>2026-04-05T13:00:17.993Z</time></trkpt><trkpt lat="53.73895029254028" lon="11.073859664303207"><ele>30.0</ele><time>2026-04-05T13:00:18.993Z</time></trkpt><trkpt lat="53.73878179665689" lon="11.073743750480237"><ele>30.0</ele><time>2026-04-05T13:00:19.993Z</time></trkpt><trkpt lat="53.73863935558709" lon="11.073563642871681"><ele>30.0</ele><time>2026-04-05T13:00:20.993Z</time></trkpt><trkpt lat="53.73849803991991" lon="11.073358166417883"><ele>30.0</ele><time>2026-04-05T13:00:21.993Z</time></trkpt><trkpt lat="53.73836098422148" lon="11.07316714555906"><ele>29.666666666666664</ele><time>2026-04-05T13:00:22.993Z</time></trkpt><trkpt lat="53.73821451515613" lon="11.072963258365107"><ele>29.333333333333332</ele><time>2026-04-05T13:00:23.993Z</time></trkpt><trkpt lat="53.7380719536258" lon="11.072764810406053"><ele>29.0</ele><time>2026-04-05T13:00:24.993Z</time></trkpt><trkpt lat="53.73793241790339" lon="11.072569544048731"><ele>29.0</ele><time>2026-04-05T13:00:25.993Z</time></trkpt><trkpt lat="53.73780445672092" lon="11.072375214235066"><ele>29.0</ele><time>2026-04-05T13:00:26.993Z</time></trkpt><trkpt lat="53.73770689840046" lon="11.072211064161271"><ele>29.0</ele><time>2026-04-05T13:00:27.993Z</time></trkpt><trkpt lat="53.737590841172626" lon="11.072011791294045"><ele>29.333333333333332</ele><time>2026-04-05T13:00:28.993Z</time></trkpt><trkpt lat="53.73745444608389" lon="11.071809517241489"><ele>29.666666666666664</ele><time>2026-04-05T13:00:29.993Z</time></trkpt><trkpt lat="53.737322718211566" lon="11.071618586213622"><ele>30.0</ele><time>2026-04-05T13:00:30.993Z</time></trkpt><trkpt lat="53.737188608036455" lon="11.071427373458416"><ele>30.0</ele><time>2026-04-05T13:00:31.993Z</time></trkpt><trkpt lat="53.73705780335278" lon="11.07122473626633"><ele>30.0</ele><time>2026-04-05T13:00:32.993Z</time></trkpt><trkpt lat="53.73693836471544" lon="11.071046505011653"><ele>30.0</ele><time>2026-04-05T13:00:33.993Z</time></trkpt><trkpt lat="53.73681391325824" lon="11.070867635697734"><ele>30.333333333333336</ele><time>2026-04-05T13:00:34.993Z</time></trkpt><trkpt lat="53.736684372232816" lon="11.070683909247817"><ele>30.666666666666668</ele><time>2026-04-05T13:00:35.993Z</time></trkpt><trkpt lat="53.73653537249758" lon="11.07047925480992"><ele>31.0</ele><time>2026-04-05T13:00:36.993Z</time></trkpt><trkpt lat="53.73637642412452" lon="11.070265145406866"><ele>31.0</ele><time>2026-04-05T13:00:37.993Z</time></trkpt><trkpt lat="53.7362218775491" lon="11.070054717147382"><ele>31.0</ele><time>2026-04-05T13:00:38.993Z</time></trkpt><trkpt lat="53.736066852232675" lon="11.069843669063482"><ele>31.0</ele><time>2026-04-05T13:00:39.993Z</time></trkpt><trkpt lat="53.73591672288865" lon="11.069650717613726"><ele>29.666666666666668</ele><time>2026-04-05T13:00:40.993Z</time></trkpt><trkpt lat="53.73576721828771" lon="11.069458032952749"><ele>28.333333333333336</ele><time>2026-04-05T13:00:41.993Z</time></trkpt><trkpt lat="53.735626761789014" lon="11.069280093962853"><ele>27.0</ele><time>2026-04-05T13:00:42.993Z</time></trkpt><trkpt lat="53.73545868845289" lon="11.069100604292267"><ele>26.333333333333336</ele><time>2026-04-05T13:00:43.993Z</time></trkpt><trkpt lat="53.73530108352842" lon="11.068921480997368"><ele>25.666666666666668</ele><time>2026-04-05T13:00:44.993Z</time></trkpt><trkpt lat="53.7351662381349" lon="11.068727860840474"><ele>25.0</ele><time>2026-04-05T13:00:45.993Z</time></trkpt><trkpt lat="53.73502420721162" lon="11.068532154157346"><ele>25.0</ele><time>2026-04-05T13:00:46.993Z</time></trkpt><trkpt lat="53.734888324880274" lon="11.06835052826208"><ele>25.0</ele><time>2026-04-05T13:00:47.993Z</time></trkpt><trkpt lat="53.734729894508035" lon="11.068245335230243"><ele>25.0</ele><time>2026-04-05T13:00:48.993Z</time></trkpt><trkpt lat="53.73464601877247" lon="11.068137283506651"><ele>25.0</ele><time>2026-04-05T13:00:49.993Z</time></trkpt><trkpt lat="53.734567877086505" lon="11.067989668595677"><ele>25.0</ele><time>2026-04-05T13:00:50.993Z</time></trkpt><trkpt lat="53.734465399306124" lon="11.06792604849259"><ele>25.0</ele><time>2026-04-05T13:00:51.993Z</time></trkpt><trkpt lat="53.73448760408835" lon="11.06770051934818"><ele>25.0</ele><time>2026-04-05T13:00:52.993Z</time></trkpt><trkpt lat="53.73449325751347" lon="11.067536964124322"><ele>25.0</ele><time>2026-04-05T13:00:53.993Z</time></trkpt><trkpt lat="53.73450359139752" lon="11.0673435631946"><ele>25.5</ele><time>2026-04-05T13:00:54.993Z</time></trkpt><trkpt lat="53.73451399023881" lon="11.067163378772765"><ele>26.0</ele><time>2026-04-05T13:00:55.993Z</time></trkpt><trkpt lat="53.73452782667725" lon="11.06698222492364"><ele>26.5</ele><time>2026-04-05T13:00:56.993Z</time></trkpt><trkpt lat="53.73455158436765" lon="11.066800675625899"><ele>27.0</ele><time>2026-04-05T13:00:57.993Z</time></trkpt><trkpt lat="53.734582426103394" lon="11.066590864620062"><ele>27.200000000000003</ele><time>2026-04-05T13:00:58.993Z</time></trkpt><trkpt lat="53.73461494166788" lon="11.066386920461737"><ele>27.400000000000002</ele><time>2026-04-05T13:00:59.993Z</time></trkpt><trkpt lat="53.734614630260246" lon="11.066277317104186"><ele>27.599999999999998</ele><time>2026-04-05T13:01:00.993Z</time></trkpt><trkpt lat="53.734631365699684" lon="11.066103076125696"><ele>27.799999999999997</ele><time>2026-04-05T13:01:01.993Z</time></trkpt><trkpt lat="53.73462646217337" lon="11.065961110976332"><ele>28.0</ele><time>2026-04-05T13:01:02.993Z</time></trkpt><trkpt lat="53.734626769093744" lon="11.065815395106853"><ele>28.000000000000004</ele><time>2026-04-05T13:01:03.993Z</time></trkpt><trkpt lat="53.734622523069156" lon="11.065689141366658"><ele>28.0</ele><time>2026-04-05T13:01:04.993Z</time></trkpt><trkpt lat="53.73463502520669" lon="11.065538796581196"><ele>28.0</ele><time>2026-04-05T13:01:05.993Z</time></trkpt><trkpt lat="53.73463053820068" lon="11.065399045541023"><ele>28.0</ele><time>2026-04-05T13:01:06.993Z</time></trkpt><trkpt lat="53.73464353509703" lon="11.065259575900715"><ele>28.000000000000004</ele><time>2026-04-05T13:01:07.993Z</time></trkpt><trkpt lat="53.734659931586876" lon="11.065145548288058"><ele>28.0</ele><time>2026-04-05T13:01:08.993Z</time></trkpt><trkpt lat="53.73467451874134" lon="11.064925662186948"><ele>28.0</ele><time>2026-04-05T13:01:10.993Z</time></trkpt><trkpt lat="53.73467248084551" lon="11.064816769262157"><ele>27.999999999999996</ele><time>2026-04-05T13:01:12.993Z</time></trkpt><trkpt lat="53.73452675703048" lon="11.064721974189013"><ele>27.999999999999996</ele><time>2026-04-05T13:01:28.993Z</time></trkpt><trkpt lat="53.734462776705605" lon="11.064835464225668"><ele>28.0</ele><time>2026-04-05T13:01:29.993Z</time></trkpt><trkpt lat="53.73437946701023" lon="11.064945716693588"><ele>28.0</ele><time>2026-04-05T13:01:30.993Z</time></trkpt><trkpt lat="53.73429165666872" lon="11.065098808670124"><ele>28.0</ele><time>2026-04-05T13:01:31.993Z</time></trkpt><trkpt lat="53.73420049673293" lon="11.065234849831114"><ele>28.0</ele><time>2026-04-05T13:01:32.993Z</time></trkpt><trkpt lat="53.73410477652974" lon="11.06539944311344"><ele>28.0</ele><time>2026-04-05T13:01:33.993Z</time></trkpt><trkpt lat="53.73400695982397" lon="11.065560146765993"><ele>28.0</ele><time>2026-04-05T13:01:34.993Z</time></trkpt><trkpt lat="53.73389310452295" lon="11.065712953343354"><ele>28.0</ele><time>2026-04-05T13:01:35.993Z</time></trkpt><trkpt lat="53.7337663778785" lon="11.06589680109628"><ele>28.0</ele><time>2026-04-05T13:01:36.993Z</time></trkpt><trkpt lat="53.733632996134254" lon="11.066027280511953"><ele>28.0</ele><time>2026-04-05T13:01:37.993Z</time></trkpt><trkpt lat="53.73351470064148" lon="11.066166565913566"><ele>29.333333333333336</ele><time>2026-04-05T13:01:38.993Z</time></trkpt><trkpt lat="53.73336377253945" lon="11.066250448701002"><ele>30.666666666666664</ele><time>2026-04-05T13:01:39.993Z</time></trkpt><trkpt lat="53.73320858225978" lon="11.06633661615871"><ele>32.0</ele><time>2026-04-05T13:01:40.993Z</time></trkpt><trkpt lat="53.733052361339176" lon="11.066421973995931"><ele>32.0</ele><time>2026-04-05T13:01:41.993Z</time></trkpt><trkpt lat="53.73288878445295" lon="11.066546498244456"><ele>32.0</ele><time>2026-04-05T13:01:42.993Z</time></trkpt><trkpt lat="53.73275334573463" lon="11.066605830516872"><ele>32.0</ele><time>2026-04-05T13:01:43.993Z</time></trkpt><trkpt lat="53.732596042766346" lon="11.066746056156566"><ele>31.333333333333332</ele><time>2026-04-05T13:01:44.993Z</time></trkpt><trkpt lat="53.73244072931601" lon="11.066852323139944"><ele>30.666666666666664</ele><time>2026-04-05T13:01:45.993Z</time></trkpt><trkpt lat="53.73229187733433" lon="11.066937577187721"><ele>30.0</ele><time>2026-04-05T13:01:46.993Z</time></trkpt><trkpt lat="53.73212375187753" lon="11.067061476851222"><ele>30.0</ele><time>2026-04-05T13:01:47.993Z</time></trkpt><trkpt lat="53.73195847208803" lon="11.067181038917555"><ele>30.0</ele><time>2026-04-05T13:01:48.993Z</time></trkpt><trkpt lat="53.7317893921892" lon="11.067296072273857"><ele>30.0</ele><time>2026-04-05T13:01:49.993Z</time></trkpt><trkpt lat="53.73160925876037" lon="11.067405926570158"><ele>30.333333333333336</ele><time>2026-04-05T13:01:50.993Z</time></trkpt><trkpt lat="53.731420106555646" lon="11.06748840548912"><ele>30.666666666666668</ele><time>2026-04-05T13:01:51.993Z</time></trkpt><trkpt lat="53.73124019505867" lon="11.067615424580204"><ele>31.0</ele><time>2026-04-05T13:01:52.993Z</time></trkpt><trkpt lat="53.73104245079575" lon="11.067750419576885"><ele>33.66666666666667</ele><time>2026-04-05T13:01:53.993Z</time></trkpt><trkpt lat="53.73088177562863" lon="11.067903176984883"><ele>36.333333333333336</ele><time>2026-04-05T13:01:54.993Z</time></trkpt><trkpt lat="53.73070029435516" lon="11.06805713690199"><ele>39.0</ele><time>2026-04-05T13:01:55.993Z</time></trkpt><trkpt lat="53.730545856645" lon="11.06813534073035"><ele>39.0</ele><time>2026-04-05T13:01:56.993Z</time></trkpt><trkpt lat="53.73037021469926" lon="11.06825417462097"><ele>39.0</ele><time>2026-04-05T13:01:57.993Z</time></trkpt><trkpt lat="53.730212470819986" lon="11.068249723799433"><ele>39.0</ele><time>2026-04-05T13:01:58.993Z</time></trkpt><trkpt lat="53.730048172431886" lon="11.068370357866284"><ele>38.0</ele><time>2026-04-05T13:01:59.993Z</time></trkpt><trkpt lat="53.729904111344524" lon="11.068502121598572"><ele>37.0</ele><time>2026-04-05T13:02:00.993Z</time></trkpt><trkpt lat="53.72981668082792" lon="11.068665037898562"><ele>36.0</ele><time>2026-04-05T13:02:01.995Z</time></trkpt><trkpt lat="53.72973536385044" lon="11.068733628990973"><ele>35.0</ele><time>2026-04-05T13:02:02.995Z</time></trkpt><trkpt lat="53.72966400976925" lon="11.06874386632129"><ele>35.0</ele><time>2026-04-05T13:02:03.995Z</time></trkpt><trkpt lat="53.72959289584216" lon="11.06875971114114"><ele>35.0</ele><time>2026-04-05T13:02:04.995Z</time></trkpt><trkpt lat="53.729551384684406" lon="11.068624340001763"><ele>35.0</ele><time>2026-04-05T13:02:06.996Z</time></trkpt><trkpt lat="53.72952928148044" lon="11.068459816171192"><ele>35.0</ele><time>2026-04-05T13:02:07.996Z</time></trkpt><trkpt lat="53.729515579254134" lon="11.06833162622133"><ele>35.0</ele><time>2026-04-05T13:02:08.996Z</time></trkpt><trkpt lat="53.729514508601234" lon="11.068170481781419"><ele>35.0</ele><time>2026-04-05T13:02:09.996Z</time></trkpt><trkpt lat="53.72945720136632" lon="11.068033133251259"><ele>35.8</ele><time>2026-04-05T13:02:10.997Z</time></trkpt><trkpt lat="53.72943971351644" lon="11.067882949698339"><ele>36.6</ele><time>2026-04-05T13:02:11.997Z</time></trkpt><trkpt lat="53.72942881986054" lon="11.067772809547648"><ele>37.4</ele><time>2026-04-05T13:02:12.997Z</time></trkpt><trkpt lat="53.72940749167769" lon="11.067589476795117"><ele>38.2</ele><time>2026-04-05T13:02:13.997Z</time></trkpt><trkpt lat="53.7293931917822" lon="11.067447944246055"><ele>39.0</ele><time>2026-04-05T13:02:14.998Z</time></trkpt><trkpt lat="53.72937368127407" lon="11.06724342796131"><ele>39.5</ele><time>2026-04-05T13:02:15.998Z</time></trkpt><trkpt lat="53.72935416427944" lon="11.067032925156997"><ele>40.0</ele><time>2026-04-05T13:02:16.998Z</time></trkpt><trkpt lat="53.72933234558242" lon="11.06682732875596"><ele>40.5</ele><time>2026-04-05T13:02:17.998Z</time></trkpt><trkpt lat="53.72930987234129" lon="11.066632216504381"><ele>41.0</ele><time>2026-04-05T13:02:18.998Z</time></trkpt><trkpt lat="53.729302930069224" lon="11.066417160738023"><ele>41.199999999999996</ele><time>2026-04-05T13:02:19.998Z</time></trkpt><trkpt lat="53.72928694296911" lon="11.066256371621114"><ele>41.4</ele><time>2026-04-05T13:02:20.998Z</time></trkpt><trkpt lat="53.729270085176644" lon="11.066086825062362"><ele>41.6</ele><time>2026-04-05T13:02:21.999Z</time></trkpt><trkpt lat="53.729230822685935" lon="11.065890641397994"><ele>41.8</ele><time>2026-04-05T13:02:22.999Z</time></trkpt><trkpt lat="53.729216052129175" lon="11.06572176389589"><ele>42.0</ele><time>2026-04-05T13:02:23.999Z</time></trkpt><trkpt lat="53.7291840901561" lon="11.065564303851367"><ele>42.0</ele><time>2026-04-05T13:02:24.999Z</time></trkpt><trkpt lat="53.72912053180472" lon="11.065435203014776"><ele>42.0</ele><time>2026-04-05T13:02:25.999Z</time></trkpt><trkpt lat="53.72903851448983" lon="11.065329689607594"><ele>42.0</ele><time>2026-04-05T13:02:26.999Z</time></trkpt><trkpt lat="53.72895493269486" lon="11.065250587007487"><ele>42.0</ele><time>2026-04-05T13:02:27.999Z</time></trkpt><trkpt lat="53.728873428344464" lon="11.065168813619453"><ele>42.0</ele><time>2026-04-05T13:02:28.999Z</time></trkpt><trkpt lat="53.728781944528514" lon="11.06508149140233"><ele>42.0</ele><time>2026-04-05T13:02:29.999Z</time></trkpt><trkpt lat="53.728692049800486" lon="11.065001755509563"><ele>42.0</ele><time>2026-04-05T13:02:30.999Z</time></trkpt><trkpt lat="53.728606504855286" lon="11.064902968634527"><ele>42.0</ele><time>2026-04-05T13:02:31.999Z</time></trkpt><trkpt lat="53.72851614948279" lon="11.06479059155775"><ele>42.0</ele><time>2026-04-05T13:02:32.999Z</time></trkpt><trkpt lat="53.72842048164211" lon="11.064680663348353"><ele>42.0</ele><time>2026-04-05T13:02:33.999Z</time></trkpt><trkpt lat="53.728331548184926" lon="11.064585333784782"><ele>41.8</ele><time>2026-04-05T13:02:34.999Z</time></trkpt><trkpt lat="53.72822954028462" lon="11.064515093053101"><ele>41.6</ele><time>2026-04-05T13:02:36Z</time></trkpt><trkpt lat="53.728129037800834" lon="11.064456948013627"><ele>41.4</ele><time>2026-04-05T13:02:37Z</time></trkpt><trkpt lat="53.72801890974829" lon="11.064393730340411"><ele>41.199999999999996</ele><time>2026-04-05T13:02:38Z</time></trkpt><trkpt lat="53.727920851202924" lon="11.064330515211344"><ele>41.0</ele><time>2026-04-05T13:02:39Z</time></trkpt><trkpt lat="53.72783168341106" lon="11.064237582240017"><ele>41.0</ele><time>2026-04-05T13:02:40Z</time></trkpt><trkpt lat="53.72776580034803" lon="11.064117013192144"><ele>41.0</ele><time>2026-04-05T13:02:41Z</time></trkpt><trkpt lat="53.72770674307269" lon="11.063961356230468"><ele>41.0</ele><time>2026-04-05T13:02:42Z</time></trkpt><trkpt lat="53.72763933311593" lon="11.063817453475782"><ele>41.0</ele><time>2026-04-05T13:02:43Z</time></trkpt><trkpt lat="53.72756940046835" lon="11.063671266417346"><ele>41.0</ele><time>2026-04-05T13:02:44Z</time></trkpt><trkpt lat="53.72750670021025" lon="11.063519769839745"><ele>41.75</ele><time>2026-04-05T13:02:45Z</time></trkpt><trkpt lat="53.727436494141585" lon="11.063353102993437"><ele>42.5</ele><time>2026-04-05T13:02:46Z</time></trkpt><trkpt lat="53.727363457461564" lon="11.063203081491121"><ele>43.25</ele><time>2026-04-05T13:02:47Z</time></trkpt><trkpt lat="53.72729360527699" lon="11.063047716022586"><ele>44.0</ele><time>2026-04-05T13:02:48Z</time></trkpt><trkpt lat="53.72722401973465" lon="11.062907586936534"><ele>44.6</ele><time>2026-04-05T13:02:49Z</time></trkpt><trkpt lat="53.7271608174303" lon="11.062779931120163"><ele>45.2</ele><time>2026-04-05T13:02:50Z</time></trkpt><trkpt lat="53.72709815768525" lon="11.062652195880638"><ele>45.800000000000004</ele><time>2026-04-05T13:02:51Z</time></trkpt><trkpt lat="53.727036942294056" lon="11.062522717734693"><ele>46.400000000000006</ele><time>2026-04-05T13:02:52Z</time></trkpt><trkpt lat="53.72697252007346" lon="11.062385446645234"><ele>47.0</ele><time>2026-04-05T13:02:53Z</time></trkpt><trkpt lat="53.7269036257419" lon="11.062236997145488"><ele>47.25</ele><time>2026-04-05T13:02:54Z</time></trkpt><trkpt lat="53.72683214127639" lon="11.062083000762177"><ele>47.5</ele><time>2026-04-05T13:02:55Z</time></trkpt><trkpt lat="53.72676275884705" lon="11.061926947572013"><ele>47.75</ele><time>2026-04-05T13:02:56Z</time></trkpt><trkpt lat="53.72669828527613" lon="11.06176321620678"><ele>48.0</ele><time>2026-04-05T13:02:57Z</time></trkpt><trkpt lat="53.726618567226865" lon="11.0615914192977"><ele>48.25</ele><time>2026-04-05T13:02:58Z</time></trkpt><trkpt lat="53.72653655009139" lon="11.061426020223447"><ele>48.5</ele><time>2026-04-05T13:02:59Z</time></trkpt><trkpt lat="53.726440060412074" lon="11.061256523703378"><ele>48.75</ele><time>2026-04-05T13:03:00Z</time></trkpt><trkpt lat="53.72635686150662" lon="11.061110668315958"><ele>49.0</ele><time>2026-04-05T13:03:01Z</time></trkpt><trkpt lat="53.72628593315158" lon="11.060956390000777"><ele>49.0</ele><time>2026-04-05T13:03:02Z</time></trkpt><trkpt lat="53.726218372594225" lon="11.06080088132247"><ele>49.0</ele><time>2026-04-05T13:03:03Z</time></trkpt><trkpt lat="53.72614847481143" lon="11.060651092260356"><ele>49.0</ele><time>2026-04-05T13:03:04Z</time></trkpt><trkpt lat="53.726082769452105" lon="11.060499095225746"><ele>49.0</ele><time>2026-04-05T13:03:05Z</time></trkpt><trkpt lat="53.72600522081924" lon="11.060323078602533"><ele>47.5</ele><time>2026-04-05T13:03:06Z</time></trkpt><trkpt lat="53.72592442788361" lon="11.060133494286319"><ele>46.0</ele><time>2026-04-05T13:03:07Z</time></trkpt><trkpt lat="53.72584584880783" lon="11.059946178384337"><ele>44.5</ele><time>2026-04-05T13:03:08Z</time></trkpt><trkpt lat="53.72577638962591" lon="11.05972994493501"><ele>43.0</ele><time>2026-04-05T13:03:09Z</time></trkpt><trkpt lat="53.72570829498526" lon="11.059502259897707"><ele>43.0</ele><time>2026-04-05T13:03:10Z</time></trkpt><trkpt lat="53.72565519704283" lon="11.059253095327312"><ele>43.0</ele><time>2026-04-05T13:03:11Z</time></trkpt><trkpt lat="53.725615694571246" lon="11.058996444632013"><ele>43.0</ele><time>2026-04-05T13:03:12Z</time></trkpt><trkpt lat="53.72561072742489" lon="11.058728783864503"><ele>43.333333333333336</ele><time>2026-04-05T13:03:13Z</time></trkpt><trkpt lat="53.72560638313841" lon="11.058464717886263"><ele>43.666666666666664</ele><time>2026-04-05T13:03:14Z</time></trkpt><trkpt lat="53.72560384787451" lon="11.058213597747583"><ele>44.0</ele><time>2026-04-05T13:03:15Z</time></trkpt><trkpt lat="53.72560254004982" lon="11.057960230942822"><ele>44.25</ele><time>2026-04-05T13:03:16Z</time></trkpt><trkpt lat="53.72560302384513" lon="11.05770454361728"><ele>44.5</ele><time>2026-04-05T13:03:17Z</time></trkpt><trkpt lat="53.7256058269405" lon="11.057452906106942"><ele>44.75</ele><time>2026-04-05T13:03:18Z</time></trkpt><trkpt lat="53.72561000420558" lon="11.057211703626923"><ele>45.0</ele><time>2026-04-05T13:03:19Z</time></trkpt><trkpt lat="53.72560485346264" lon="11.056967008943744"><ele>45.666666666666664</ele><time>2026-04-05T13:03:20Z</time></trkpt><trkpt lat="53.725606555657386" lon="11.056721071426312"><ele>46.33333333333333</ele><time>2026-04-05T13:03:21Z</time></trkpt><trkpt lat="53.72559551170897" lon="11.056445851965321"><ele>47.0</ele><time>2026-04-05T13:03:22Z</time></trkpt><trkpt lat="53.72557739129761" lon="11.056191708110298"><ele>47.0</ele><time>2026-04-05T13:03:23Z</time></trkpt><trkpt lat="53.7255230770456" lon="11.055964975649626"><ele>47.0</ele><time>2026-04-05T13:03:24Z</time></trkpt><trkpt lat="53.72543013034455" lon="11.055779865097001"><ele>47.0</ele><time>2026-04-05T13:03:25Z</time></trkpt><trkpt lat="53.72527677047055" lon="11.05568552205829"><ele>48.0</ele><time>2026-04-05T13:03:26Z</time></trkpt><trkpt lat="53.72516120648609" lon="11.055529472570539"><ele>49.0</ele><time>2026-04-05T13:03:27Z</time></trkpt><trkpt lat="53.72502936707119" lon="11.05538317465456"><ele>50.0</ele><time>2026-04-05T13:03:28Z</time></trkpt><trkpt lat="53.72488843057808" lon="11.05523417008363"><ele>50.0</ele><time>2026-04-05T13:03:29Z</time></trkpt><trkpt lat="53.72474059968341" lon="11.055070312293084"><ele>50.0</ele><time>2026-04-05T13:03:30Z</time></trkpt><trkpt lat="53.72459560081181" lon="11.054909588366543"><ele>50.0</ele><time>2026-04-05T13:03:31Z</time></trkpt><trkpt lat="53.724429023819276" lon="11.05473962536596"><ele>50.0</ele><time>2026-04-05T13:03:32Z</time></trkpt><trkpt lat="53.72426355708722" lon="11.054565311748826"><ele>50.0</ele><time>2026-04-05T13:03:33Z</time></trkpt><trkpt lat="53.72407958577084" lon="11.054391643151378"><ele>50.0</ele><time>2026-04-05T13:03:34Z</time></trkpt><trkpt lat="53.723936369978965" lon="11.054201986268833"><ele>50.0</ele><time>2026-04-05T13:03:35Z</time></trkpt><trkpt lat="53.72377187745086" lon="11.053997207328468"><ele>50.0</ele><time>2026-04-05T13:03:36Z</time></trkpt><trkpt lat="53.723595361942216" lon="11.053848736744975"><ele>50.0</ele><time>2026-04-05T13:03:37Z</time></trkpt><trkpt lat="53.72343340049419" lon="11.053670718003639"><ele>49.66666666666667</ele><time>2026-04-05T13:03:38Z</time></trkpt><trkpt lat="53.72327053361624" lon="11.053500975950215"><ele>49.33333333333333</ele><time>2026-04-05T13:03:39Z</time></trkpt><trkpt lat="53.72311349340812" lon="11.0533527032449"><ele>49.0</ele><time>2026-04-05T13:03:40Z</time></trkpt><trkpt lat="53.72294847693461" lon="11.053233217864339"><ele>50.33333333333333</ele><time>2026-04-05T13:03:41Z</time></trkpt><trkpt lat="53.72277327070102" lon="11.053129894593216"><ele>51.66666666666667</ele><time>2026-04-05T13:03:42Z</time></trkpt><trkpt lat="53.722599504875284" lon="11.053061363232684"><ele>53.0</ele><time>2026-04-05T13:03:43Z</time></trkpt><trkpt lat="53.72243092288612" lon="11.05296640209605"><ele>53.333333333333336</ele><time>2026-04-05T13:03:44Z</time></trkpt><trkpt lat="53.722259636615895" lon="11.052892208498545"><ele>53.66666666666667</ele><time>2026-04-05T13:03:45Z</time></trkpt><trkpt lat="53.72208745102602" lon="11.052809518884663"><ele>54.0</ele><time>2026-04-05T13:03:46Z</time></trkpt><trkpt lat="53.72193859627208" lon="11.052721552291098"><ele>54.66666666666667</ele><time>2026-04-05T13:03:47Z</time></trkpt><trkpt lat="53.72178648178972" lon="11.052610674241876"><ele>55.333333333333336</ele><time>2026-04-05T13:03:48Z</time></trkpt><trkpt lat="53.721626842373986" lon="11.052558114995453"><ele>56.0</ele><time>2026-04-05T13:03:49.001Z</time></trkpt><trkpt lat="53.721466534265275" lon="11.052475995095838"><ele>56.66666666666667</ele><time>2026-04-05T13:03:50.001Z</time></trkpt><trkpt lat="53.72130964197935" lon="11.052395417893555"><ele>57.33333333333333</ele><time>2026-04-05T13:03:51.001Z</time></trkpt><trkpt lat="53.7211552599661" lon="11.052316129697848"><ele>58.0</ele><time>2026-04-05T13:03:52.001Z</time></trkpt><trkpt lat="53.721000490859446" lon="11.052236642292472"><ele>58.33333333333333</ele><time>2026-04-05T13:03:53.001Z</time></trkpt><trkpt lat="53.72085441680506" lon="11.052132935859747"><ele>58.66666666666667</ele><time>2026-04-05T13:03:54.001Z</time></trkpt><trkpt lat="53.720688387389956" lon="11.052075929768344"><ele>59.0</ele><time>2026-04-05T13:03:55.001Z</time></trkpt><trkpt lat="53.72054008811433" lon="11.052002356251316"><ele>59.0</ele><time>2026-04-05T13:03:56.001Z</time></trkpt><trkpt lat="53.72037123511572" lon="11.051939349242922"><ele>59.0</ele><time>2026-04-05T13:03:57.001Z</time></trkpt><trkpt lat="53.72023223332697" lon="11.051874709362725"><ele>59.0</ele><time>2026-04-05T13:03:58.001Z</time></trkpt><trkpt lat="53.72009475500528" lon="11.05180307619216"><ele>59.0</ele><time>2026-04-05T13:03:59.001Z</time></trkpt><trkpt lat="53.71994919123759" lon="11.0517355244215"><ele>59.0</ele><time>2026-04-05T13:04:00.001Z</time></trkpt><trkpt lat="53.719802818952786" lon="11.05166608207926"><ele>59.0</ele><time>2026-04-05T13:04:01.001Z</time></trkpt><trkpt lat="53.71965756838428" lon="11.051529092864584"><ele>59.0</ele><time>2026-04-05T13:04:02.001Z</time></trkpt><trkpt lat="53.71951065093067" lon="11.051471893883534"><ele>59.0</ele><time>2026-04-05T13:04:03.001Z</time></trkpt><trkpt lat="53.719360928535984" lon="11.051395973070173"><ele>59.0</ele><time>2026-04-05T13:04:04.001Z</time></trkpt><trkpt lat="53.71921825000218" lon="11.051323624100592"><ele>59.333333333333336</ele><time>2026-04-05T13:04:05.001Z</time></trkpt><trkpt lat="53.719049065114156" lon="11.051237834368667"><ele>59.66666666666667</ele><time>2026-04-05T13:04:06.001Z</time></trkpt><trkpt lat="53.71888211104755" lon="11.051153176016872"><ele>60.0</ele><time>2026-04-05T13:04:07.001Z</time></trkpt><trkpt lat="53.71870958103252" lon="11.05104490549898"><ele>60.0</ele><time>2026-04-05T13:04:08.001Z</time></trkpt><trkpt lat="53.71854229400529" lon="11.050953770689855"><ele>60.0</ele><time>2026-04-05T13:04:09.001Z</time></trkpt><trkpt lat="53.71837131149559" lon="11.050872928174451"><ele>60.0</ele><time>2026-04-05T13:04:10.001Z</time></trkpt><trkpt lat="53.71820089115125" lon="11.050814181034497"><ele>59.66666666666667</ele><time>2026-04-05T13:04:11.001Z</time></trkpt><trkpt lat="53.718031872375555" lon="11.05072382475347"><ele>59.333333333333336</ele><time>2026-04-05T13:04:12.001Z</time></trkpt><trkpt lat="53.717866092920886" lon="11.050640493813052"><ele>59.0</ele><time>2026-04-05T13:04:13.001Z</time></trkpt><trkpt lat="53.71770422278622" lon="11.050557107275813"><ele>59.0</ele><time>2026-04-05T13:04:14.001Z</time></trkpt><trkpt lat="53.71754639568316" lon="11.050454433523555"><ele>59.0</ele><time>2026-04-05T13:04:15.001Z</time></trkpt><trkpt lat="53.71737189644467" lon="11.050393506258802"><ele>59.0</ele><time>2026-04-05T13:04:16.001Z</time></trkpt><trkpt lat="53.71719888023231" lon="11.050324501896236"><ele>59.0</ele><time>2026-04-05T13:04:17.001Z</time></trkpt><trkpt lat="53.71702598974482" lon="11.05025113617554"><ele>59.0</ele><time>2026-04-05T13:04:18.001Z</time></trkpt><trkpt lat="53.71685586317704" lon="11.050140852937453"><ele>59.0</ele><time>2026-04-05T13:04:19.001Z</time></trkpt><trkpt lat="53.71671411361727" lon="11.050056277357994"><ele>58.66666666666667</ele><time>2026-04-05T13:04:20.001Z</time></trkpt><trkpt lat="53.71652003350736" lon="11.049977183006739"><ele>58.33333333333333</ele><time>2026-04-05T13:04:21.001Z</time></trkpt><trkpt lat="53.71634383071406" lon="11.049886985057327"><ele>58.0</ele><time>2026-04-05T13:04:22.001Z</time></trkpt><trkpt lat="53.71618087229722" lon="11.04979930711555"><ele>57.33333333333333</ele><time>2026-04-05T13:04:23.001Z</time></trkpt><trkpt lat="53.71600842054558" lon="11.049694749858332"><ele>56.66666666666667</ele><time>2026-04-05T13:04:24.001Z</time></trkpt><trkpt lat="53.71586317665028" lon="11.049572936607728"><ele>56.0</ele><time>2026-04-05T13:04:25.001Z</time></trkpt><trkpt lat="53.715718741657504" lon="11.04938865369422"><ele>56.0</ele><time>2026-04-05T13:04:26.001Z</time></trkpt><trkpt lat="53.715573174606384" lon="11.04917400841507"><ele>56.0</ele><time>2026-04-05T13:04:27.001Z</time></trkpt><trkpt lat="53.71542734323928" lon="11.048915335855007"><ele>56.0</ele><time>2026-04-05T13:04:28.001Z</time></trkpt><trkpt lat="53.71529382034906" lon="11.048661112544536"><ele>56.333333333333336</ele><time>2026-04-05T13:04:29.001Z</time></trkpt><trkpt lat="53.715164947286546" lon="11.048453723532521"><ele>56.66666666666667</ele><time>2026-04-05T13:04:30.001Z</time></trkpt><trkpt lat="53.71504969815775" lon="11.048214108628184"><ele>57.0</ele><time>2026-04-05T13:04:31.001Z</time></trkpt><trkpt lat="53.71494276243626" lon="11.047987259033297"><ele>57.0</ele><time>2026-04-05T13:04:32.001Z</time></trkpt><trkpt lat="53.7148212918975" lon="11.047774970719427"><ele>57.0</ele><time>2026-04-05T13:04:33.001Z</time></trkpt><trkpt lat="53.7146765928938" lon="11.047553379958467"><ele>57.0</ele><time>2026-04-05T13:04:34.001Z</time></trkpt><trkpt lat="53.714504956627565" lon="11.047419836405787"><ele>57.0</ele><time>2026-04-05T13:04:35.001Z</time></trkpt><trkpt lat="53.714342802582486" lon="11.047284388763998"><ele>57.0</ele><time>2026-04-05T13:04:36.001Z</time></trkpt><trkpt lat="53.714174560946184" lon="11.0472119325547"><ele>57.0</ele><time>2026-04-05T13:04:37.001Z</time></trkpt><trkpt lat="53.7140619121896" lon="11.04705361273355"><ele>57.0</ele><time>2026-04-05T13:04:38.001Z</time></trkpt><trkpt lat="53.71395814859382" lon="11.046873875457582"><ele>57.0</ele><time>2026-04-05T13:04:39.001Z</time></trkpt><trkpt lat="53.71389029938989" lon="11.04662137257583"><ele>57.0</ele><time>2026-04-05T13:04:40.001Z</time></trkpt><trkpt lat="53.71381459857664" lon="11.046357790969498"><ele>57.25</ele><time>2026-04-05T13:04:41.001Z</time></trkpt><trkpt lat="53.71374924517385" lon="11.046147195627823"><ele>57.5</ele><time>2026-04-05T13:04:42.001Z</time></trkpt><trkpt lat="53.71367293206457" lon="11.045955274994338"><ele>57.75</ele><time>2026-04-05T13:04:43.001Z</time></trkpt><trkpt lat="53.713620423080606" lon="11.045724269662738"><ele>58.0</ele><time>2026-04-05T13:04:44.001Z</time></trkpt><trkpt lat="53.71353730662774" lon="11.045487424658399"><ele>57.33333333333333</ele><time>2026-04-05T13:04:45.001Z</time></trkpt><trkpt lat="53.71347523151497" lon="11.045230554197094"><ele>56.66666666666667</ele><time>2026-04-05T13:04:46.001Z</time></trkpt><trkpt lat="53.71339687679066" lon="11.044968360386695"><ele>56.0</ele><time>2026-04-05T13:04:47.001Z</time></trkpt><trkpt lat="53.71332311693494" lon="11.044721541170636"><ele>56.0</ele><time>2026-04-05T13:04:48.001Z</time></trkpt><trkpt lat="53.71325771399344" lon="11.044496939369466"><ele>56.0</ele><time>2026-04-05T13:04:49.001Z</time></trkpt><trkpt lat="53.71321092682195" lon="11.044284872603788"><ele>56.0</ele><time>2026-04-05T13:04:50.001Z</time></trkpt><trkpt lat="53.71315320944627" lon="11.044057005205573"><ele>56.0</ele><time>2026-04-05T13:04:51.001Z</time></trkpt><trkpt lat="53.713109844842705" lon="11.043822146549859"><ele>56.0</ele><time>2026-04-05T13:04:52.001Z</time></trkpt><trkpt lat="53.713090127325756" lon="11.043581291324026"><ele>56.0</ele><time>2026-04-05T13:04:53.001Z</time></trkpt><trkpt lat="53.71304062508231" lon="11.043363677917563"><ele>56.0</ele><time>2026-04-05T13:04:54.001Z</time></trkpt><trkpt lat="53.712958362902796" lon="11.043165091869755"><ele>56.0</ele><time>2026-04-05T13:04:55.001Z</time></trkpt><trkpt lat="53.7128611470533" lon="11.042976935257473"><ele>56.0</ele><time>2026-04-05T13:04:56.001Z</time></trkpt><trkpt lat="53.712767501747166" lon="11.042780917977147"><ele>56.0</ele><time>2026-04-05T13:04:57.001Z</time></trkpt><trkpt lat="53.71266881366176" lon="11.042588303363086"><ele>56.0</ele><time>2026-04-05T13:04:58.001Z</time></trkpt><trkpt lat="53.71257105835369" lon="11.04240027824728"><ele>56.0</ele><time>2026-04-05T13:04:59.001Z</time></trkpt><trkpt lat="53.712473772207126" lon="11.042217047831604"><ele>55.0</ele><time>2026-04-05T13:05:00.001Z</time></trkpt><trkpt lat="53.71237652059023" lon="11.042025583663312"><ele>54.0</ele><time>2026-04-05T13:05:01.001Z</time></trkpt><trkpt lat="53.71227962317912" lon="11.04183882670989"><ele>53.0</ele><time>2026-04-05T13:05:02.001Z</time></trkpt><trkpt lat="53.71218517368664" lon="11.041652729165596"><ele>52.0</ele><time>2026-04-05T13:05:03.001Z</time></trkpt><trkpt lat="53.71208330270756" lon="11.04147456695576"><ele>52.0</ele><time>2026-04-05T13:05:04.001Z</time></trkpt><trkpt lat="53.7119729952744" lon="11.041306377411074"><ele>52.0</ele><time>2026-04-05T13:05:05.001Z</time></trkpt><trkpt lat="53.71186670650181" lon="11.041151919641143"><ele>52.0</ele><time>2026-04-05T13:05:06.001Z</time></trkpt><trkpt lat="53.71174052840211" lon="11.041017341942446"><ele>52.0</ele><time>2026-04-05T13:05:07.001Z</time></trkpt><trkpt lat="53.71161704841792" lon="11.040855072970022"><ele>52.33333333333333</ele><time>2026-04-05T13:05:08.001Z</time></trkpt><trkpt lat="53.7115126585201" lon="11.04066832784807"><ele>52.66666666666667</ele><time>2026-04-05T13:05:09.001Z</time></trkpt><trkpt lat="53.71142686010711" lon="11.040444988009138"><ele>53.0</ele><time>2026-04-05T13:05:10.001Z</time></trkpt><trkpt lat="53.711373110299846" lon="11.040217785869272"><ele>53.0</ele><time>2026-04-05T13:05:11.001Z</time></trkpt><trkpt lat="53.71130750533523" lon="11.039983790919306"><ele>53.0</ele><time>2026-04-05T13:05:12.001Z</time></trkpt><trkpt lat="53.71124637386413" lon="11.03976178316152"><ele>53.0</ele><time>2026-04-05T13:05:13.001Z</time></trkpt><trkpt lat="53.71118236606425" lon="11.039537255366513"><ele>53.0</ele><time>2026-04-05T13:05:14.001Z</time></trkpt><trkpt lat="53.71112170579673" lon="11.039314581817276"><ele>54.333333333333336</ele><time>2026-04-05T13:05:15.001Z</time></trkpt><trkpt lat="53.711062762711954" lon="11.039091556778303"><ele>55.66666666666667</ele><time>2026-04-05T13:05:16.001Z</time></trkpt><trkpt lat="53.71100529685036" lon="11.038865643061357"><ele>57.0</ele><time>2026-04-05T13:05:17.001Z</time></trkpt><trkpt lat="53.71095438092354" lon="11.038609633691511"><ele>57.0</ele><time>2026-04-05T13:05:18.001Z</time></trkpt><trkpt lat="53.71090793600439" lon="11.038357707457214"><ele>57.0</ele><time>2026-04-05T13:05:19.001Z</time></trkpt><trkpt lat="53.710862703961176" lon="11.0381123940379"><ele>57.0</ele><time>2026-04-05T13:05:20.001Z</time></trkpt><trkpt lat="53.71082268258146" lon="11.037861750873603"><ele>56.66666666666667</ele><time>2026-04-05T13:05:21.001Z</time></trkpt><trkpt lat="53.71077829669121" lon="11.03761060120746"><ele>56.333333333333336</ele><time>2026-04-05T13:05:22.001Z</time></trkpt><trkpt lat="53.7107283240875" lon="11.03733723961246"><ele>56.0</ele><time>2026-04-05T13:05:23.001Z</time></trkpt><trkpt lat="53.71067984392433" lon="11.037100492806534"><ele>55.66666666666667</ele><time>2026-04-05T13:05:24.001Z</time></trkpt><trkpt lat="53.71061140934283" lon="11.036882817165553"><ele>55.33333333333333</ele><time>2026-04-05T13:05:25.001Z</time></trkpt><trkpt lat="53.71051351943285" lon="11.036694317001782"><ele>55.0</ele><time>2026-04-05T13:05:26.001Z</time></trkpt><trkpt lat="53.71041152859144" lon="11.036494960189556"><ele>55.0</ele><time>2026-04-05T13:05:27.001Z</time></trkpt><trkpt lat="53.710327610523066" lon="11.03628463804404"><ele>55.0</ele><time>2026-04-05T13:05:28.001Z</time></trkpt><trkpt lat="53.71023452356336" lon="11.036081678876059"><ele>55.0</ele><time>2026-04-05T13:05:29.001Z</time></trkpt><trkpt lat="53.71014376546031" lon="11.035882749103546"><ele>54.33333333333333</ele><time>2026-04-05T13:05:30.001Z</time></trkpt><trkpt lat="53.710054878305264" lon="11.035680109727922"><ele>53.66666666666667</ele><time>2026-04-05T13:05:31.001Z</time></trkpt><trkpt lat="53.70996374275386" lon="11.035471089465577"><ele>53.0</ele><time>2026-04-05T13:05:32.001Z</time></trkpt><trkpt lat="53.70986927464505" lon="11.03525152607083"><ele>53.0</ele><time>2026-04-05T13:05:33.001Z</time></trkpt><trkpt lat="53.70977483148796" lon="11.035031777465543"><ele>53.0</ele><time>2026-04-05T13:05:34.001Z</time></trkpt><trkpt lat="53.70968402018398" lon="11.034819017631866"><ele>53.0</ele><time>2026-04-05T13:05:35.001Z</time></trkpt><trkpt lat="53.70959102062525" lon="11.034591792281038"><ele>53.0</ele><time>2026-04-05T13:05:36.001Z</time></trkpt><trkpt lat="53.709508610839116" lon="11.03437909074161"><ele>53.0</ele><time>2026-04-05T13:05:37.001Z</time></trkpt><trkpt lat="53.70941356471493" lon="11.03411294879996"><ele>53.0</ele><time>2026-04-05T13:05:38.001Z</time></trkpt><trkpt lat="53.70933349119205" lon="11.033882602341103"><ele>52.66666666666667</ele><time>2026-04-05T13:05:39.001Z</time></trkpt><trkpt lat="53.709251285643354" lon="11.033644836362932"><ele>52.33333333333333</ele><time>2026-04-05T13:05:40.001Z</time></trkpt><trkpt lat="53.70917248617729" lon="11.033416921973341"><ele>52.0</ele><time>2026-04-05T13:05:41.001Z</time></trkpt><trkpt lat="53.70909835414612" lon="11.033202507591847"><ele>52.0</ele><time>2026-04-05T13:05:42.001Z</time></trkpt><trkpt lat="53.70901788142055" lon="11.032969753305851"><ele>52.0</ele><time>2026-04-05T13:05:43.001Z</time></trkpt><trkpt lat="53.708942085977405" lon="11.032751199374806"><ele>52.0</ele><time>2026-04-05T13:05:44.001Z</time></trkpt><trkpt lat="53.70886583688874" lon="11.032534273001176"><ele>52.0</ele><time>2026-04-05T13:05:45.001Z</time></trkpt><trkpt lat="53.70880812684462" lon="11.032370854535971"><ele>52.0</ele><time>2026-04-05T13:05:46.001Z</time></trkpt><trkpt lat="53.7087334584057" lon="11.032164180088037"><ele>52.0</ele><time>2026-04-05T13:05:47.001Z</time></trkpt><trkpt lat="53.708652577501475" lon="11.03194030960536"><ele>52.0</ele><time>2026-04-05T13:05:48.001Z</time></trkpt><trkpt lat="53.708592308126654" lon="11.031773489887282"><ele>51.666666666666664</ele><time>2026-04-05T13:05:49.001Z</time></trkpt><trkpt lat="53.708512315145384" lon="11.031552077377446"><ele>51.33333333333333</ele><time>2026-04-05T13:05:50.001Z</time></trkpt><trkpt lat="53.708432569893894" lon="11.031331350623253"><ele>51.0</ele><time>2026-04-05T13:05:51.001Z</time></trkpt><trkpt lat="53.70834446976333" lon="11.031111792239942"><ele>51.0</ele><time>2026-04-05T13:05:52.001Z</time></trkpt><trkpt lat="53.70826991742562" lon="11.030865647172947"><ele>51.0</ele><time>2026-04-05T13:05:53.001Z</time></trkpt><trkpt lat="53.70819740022163" lon="11.030656766157115"><ele>51.0</ele><time>2026-04-05T13:05:54.001Z</time></trkpt><trkpt lat="53.70812338441751" lon="11.030438470894438"><ele>51.0</ele><time>2026-04-05T13:05:55.001Z</time></trkpt><trkpt lat="53.7080527316101" lon="11.030214531275027"><ele>51.0</ele><time>2026-04-05T13:05:56.001Z</time></trkpt><trkpt lat="53.70799414169206" lon="11.029981140014709"><ele>51.0</ele><time>2026-04-05T13:05:57.001Z</time></trkpt><trkpt lat="53.70796034370053" lon="11.029754798288344"><ele>51.0</ele><time>2026-04-05T13:05:58.001Z</time></trkpt><trkpt lat="53.70793381111548" lon="11.029498870829077"><ele>51.0</ele><time>2026-04-05T13:05:59.001Z</time></trkpt><trkpt lat="53.70791185055969" lon="11.029237672651634"><ele>51.0</ele><time>2026-04-05T13:06:00.001Z</time></trkpt><trkpt lat="53.707888872504476" lon="11.028962969720984"><ele>51.0</ele><time>2026-04-05T13:06:01.001Z</time></trkpt><trkpt lat="53.707867424003446" lon="11.028689803020873"><ele>51.0</ele><time>2026-04-05T13:06:02.001Z</time></trkpt><trkpt lat="53.707847127033865" lon="11.028431302016765"><ele>51.0</ele><time>2026-04-05T13:06:03.001Z</time></trkpt><trkpt lat="53.70782560692083" lon="11.028155575066933"><ele>51.0</ele><time>2026-04-05T13:06:04.001Z</time></trkpt><trkpt lat="53.70780372045238" lon="11.027867591581913"><ele>51.0</ele><time>2026-04-05T13:06:05.001Z</time></trkpt><trkpt lat="53.70777731696671" lon="11.02757309138956"><ele>51.0</ele><time>2026-04-05T13:06:06.001Z</time></trkpt><trkpt lat="53.70776824451042" lon="11.027292962815068"><ele>51.0</ele><time>2026-04-05T13:06:07.001Z</time></trkpt><trkpt lat="53.70775016412863" lon="11.027015649364936"><ele>51.33333333333333</ele><time>2026-04-05T13:06:08.001Z</time></trkpt><trkpt lat="53.70773633439828" lon="11.026735978014688"><ele>51.666666666666664</ele><time>2026-04-05T13:06:09.001Z</time></trkpt><trkpt lat="53.70771994274463" lon="11.026468129651745"><ele>52.0</ele><time>2026-04-05T13:06:10.001Z</time></trkpt><trkpt lat="53.7076994838702" lon="11.02621585189309"><ele>52.0</ele><time>2026-04-05T13:06:11.001Z</time></trkpt><trkpt lat="53.70767156683926" lon="11.025972229585863"><ele>52.0</ele><time>2026-04-05T13:06:12.001Z</time></trkpt><trkpt lat="53.70764214381486" lon="11.025722057292361"><ele>52.0</ele><time>2026-04-05T13:06:13.001Z</time></trkpt><trkpt lat="53.70761704379469" lon="11.025475770872113"><ele>52.0</ele><time>2026-04-05T13:06:14.001Z</time></trkpt><trkpt lat="53.70759455914223" lon="11.02519319511766"><ele>52.33333333333333</ele><time>2026-04-05T13:06:15.001Z</time></trkpt><trkpt lat="53.707572311452736" lon="11.024912487693687"><ele>52.66666666666667</ele><time>2026-04-05T13:06:16.001Z</time></trkpt><trkpt lat="53.70755219846759" lon="11.024655006276792"><ele>53.0</ele><time>2026-04-05T13:06:17.001Z</time></trkpt><trkpt lat="53.70751406308504" lon="11.024372398662353"><ele>53.0</ele><time>2026-04-05T13:06:18.001Z</time></trkpt><trkpt lat="53.70749376401911" lon="11.024075433995373"><ele>53.0</ele><time>2026-04-05T13:06:19.001Z</time></trkpt><trkpt lat="53.707480878676584" lon="11.023769117679478"><ele>53.0</ele><time>2026-04-05T13:06:20.001Z</time></trkpt><trkpt lat="53.70745571669669" lon="11.023464155185717"><ele>52.66666666666667</ele><time>2026-04-05T13:06:21.001Z</time></trkpt><trkpt lat="53.707429225529374" lon="11.023147978328801"><ele>52.33333333333333</ele><time>2026-04-05T13:06:22.001Z</time></trkpt><trkpt lat="53.70740377330123" lon="11.022846270764239"><ele>52.0</ele><time>2026-04-05T13:06:23.001Z</time></trkpt><trkpt lat="53.70737863215656" lon="11.02255416264278"><ele>51.666666666666664</ele><time>2026-04-05T13:06:24.001Z</time></trkpt><trkpt lat="53.7073503294936" lon="11.02222680732195"><ele>51.33333333333333</ele><time>2026-04-05T13:06:25.001Z</time></trkpt><trkpt lat="53.70732398566488" lon="11.021931530481504"><ele>51.0</ele><time>2026-04-05T13:06:26.001Z</time></trkpt><trkpt lat="53.707296458220625" lon="11.021633747421493"><ele>50.66666666666667</ele><time>2026-04-05T13:06:27.001Z</time></trkpt><trkpt lat="53.7072692983598" lon="11.021344531531131"><ele>50.333333333333336</ele><time>2026-04-05T13:06:28.001Z</time></trkpt><trkpt lat="53.70724355762935" lon="11.021048687787053"><ele>50.0</ele><time>2026-04-05T13:06:29.001Z</time></trkpt><trkpt lat="53.707220213429544" lon="11.020773258878041"><ele>50.66666666666667</ele><time>2026-04-05T13:06:30.001Z</time></trkpt><trkpt lat="53.70719601577233" lon="11.020487095177108"><ele>51.33333333333333</ele><time>2026-04-05T13:06:31.001Z</time></trkpt><trkpt lat="53.70717193267123" lon="11.020202286016731"><ele>52.0</ele><time>2026-04-05T13:06:32.001Z</time></trkpt><trkpt lat="53.70714827807987" lon="11.019928678800381"><ele>52.0</ele><time>2026-04-05T13:06:33.001Z</time></trkpt><trkpt lat="53.70712369416364" lon="11.01964697671326"><ele>52.0</ele><time>2026-04-05T13:06:34.001Z</time></trkpt><trkpt lat="53.70709838848222" lon="11.019357004141426"><ele>52.0</ele><time>2026-04-05T13:06:35.001Z</time></trkpt><trkpt lat="53.70707459553966" lon="11.0190865519806"><ele>52.33333333333333</ele><time>2026-04-05T13:06:36.001Z</time></trkpt><trkpt lat="53.707051930685054" lon="11.018829698786408"><ele>52.66666666666667</ele><time>2026-04-05T13:06:37.001Z</time></trkpt><trkpt lat="53.70702823216361" lon="11.018561130606692"><ele>53.0</ele><time>2026-04-05T13:06:38.001Z</time></trkpt><trkpt lat="53.70700537171197" lon="11.018302060799554"><ele>53.0</ele><time>2026-04-05T13:06:39.001Z</time></trkpt><trkpt lat="53.706982755039355" lon="11.018057359434684"><ele>53.0</ele><time>2026-04-05T13:06:40.001Z</time></trkpt><trkpt lat="53.70695254733397" lon="11.017786098304493"><ele>53.0</ele><time>2026-04-05T13:06:41.001Z</time></trkpt><trkpt lat="53.706908010704026" lon="11.017517927963146"><ele>52.5</ele><time>2026-04-05T13:06:42.001Z</time></trkpt><trkpt lat="53.70685537885915" lon="11.017277013551178"><ele>52.0</ele><time>2026-04-05T13:06:43.001Z</time></trkpt><trkpt lat="53.706813057501236" lon="11.017075142147164"><ele>51.5</ele><time>2026-04-05T13:06:44.001Z</time></trkpt><trkpt lat="53.7067422464466" lon="11.01684702076089"><ele>51.0</ele><time>2026-04-05T13:06:45.001Z</time></trkpt><trkpt lat="53.7067032898951" lon="11.016592421642791"><ele>50.75</ele><time>2026-04-05T13:06:46.001Z</time></trkpt><trkpt lat="53.70665188930422" lon="11.016360677540076"><ele>50.5</ele><time>2026-04-05T13:06:47.001Z</time></trkpt><trkpt lat="53.70659760948463" lon="11.016116566824948"><ele>50.25</ele><time>2026-04-05T13:06:48.001Z</time></trkpt><trkpt lat="53.70655239606588" lon="11.015884312011094"><ele>50.0</ele><time>2026-04-05T13:06:49.001Z</time></trkpt><trkpt lat="53.70651449536692" lon="11.015653868066803"><ele>50.0</ele><time>2026-04-05T13:06:50.001Z</time></trkpt><trkpt lat="53.70648211550802" lon="11.015410666111048"><ele>50.0</ele><time>2026-04-05T13:06:51.001Z</time></trkpt><trkpt lat="53.70645661276116" lon="11.01518694337939"><ele>50.0</ele><time>2026-04-05T13:06:52.001Z</time></trkpt><trkpt lat="53.70643050882535" lon="11.014914932455529"><ele>50.0</ele><time>2026-04-05T13:06:53.001Z</time></trkpt><trkpt lat="53.70640982922568" lon="11.014651463262306"><ele>50.0</ele><time>2026-04-05T13:06:54.001Z</time></trkpt><trkpt lat="53.706392671861906" lon="11.014383077459161"><ele>50.0</ele><time>2026-04-05T13:06:55.001Z</time></trkpt><trkpt lat="53.706376792594604" lon="11.01410927871046"><ele>50.0</ele><time>2026-04-05T13:06:56.001Z</time></trkpt><trkpt lat="53.70636405512204" lon="11.013858656702462"><ele>50.66666666666667</ele><time>2026-04-05T13:06:57.001Z</time></trkpt><trkpt lat="53.706350617717774" lon="11.013588752629174"><ele>51.33333333333333</ele><time>2026-04-05T13:06:58.001Z</time></trkpt><trkpt lat="53.70633602583156" lon="11.013311422115677"><ele>52.0</ele><time>2026-04-05T13:06:59.001Z</time></trkpt><trkpt lat="53.706320754533884" lon="11.013054393200827"><ele>52.25</ele><time>2026-04-05T13:07:00.001Z</time></trkpt><trkpt lat="53.7063018981462" lon="11.012797187479515"><ele>52.5</ele><time>2026-04-05T13:07:01.001Z</time></trkpt><trkpt lat="53.706278769040416" lon="11.012543647288362"><ele>52.75</ele><time>2026-04-05T13:07:02.001Z</time></trkpt><trkpt lat="53.70625392113454" lon="11.012306105245269"><ele>53.0</ele><time>2026-04-05T13:07:03.001Z</time></trkpt><trkpt lat="53.706226579452405" lon="11.012059171862836"><ele>53.0</ele><time>2026-04-05T13:07:04.001Z</time></trkpt><trkpt lat="53.70609047247379" lon="11.011830202178407"><ele>53.0</ele><time>2026-04-05T13:07:05.001Z</time></trkpt><trkpt lat="53.70605291368596" lon="11.011571081079053"><ele>53.0</ele><time>2026-04-05T13:07:06.001Z</time></trkpt><trkpt lat="53.70602096941021" lon="11.011329438068506"><ele>53.333333333333336</ele><time>2026-04-05T13:07:07.001Z</time></trkpt><trkpt lat="53.70598671417394" lon="11.01107902379248"><ele>53.66666666666667</ele><time>2026-04-05T13:07:08.001Z</time></trkpt><trkpt lat="53.70596077566519" lon="11.010828092523333"><ele>54.0</ele><time>2026-04-05T13:07:09.001Z</time></trkpt><trkpt lat="53.705923619881496" lon="11.010567205853736"><ele>54.66666666666667</ele><time>2026-04-05T13:07:10.001Z</time></trkpt><trkpt lat="53.705891412013756" lon="11.010302971236147"><ele>55.333333333333336</ele><time>2026-04-05T13:07:11.001Z</time></trkpt><trkpt lat="53.705857566738366" lon="11.010034395985967"><ele>56.0</ele><time>2026-04-05T13:07:12.001Z</time></trkpt><trkpt lat="53.705822254298255" lon="11.009768627209876"><ele>56.66666666666667</ele><time>2026-04-05T13:07:13.001Z</time></trkpt><trkpt lat="53.70579093110761" lon="11.009519475113608"><ele>57.33333333333333</ele><time>2026-04-05T13:07:14.001Z</time></trkpt><trkpt lat="53.70576276511802" lon="11.009264577291752"><ele>58.0</ele><time>2026-04-05T13:07:15.001Z</time></trkpt><trkpt lat="53.70572930245133" lon="11.009023578888069"><ele>58.0</ele><time>2026-04-05T13:07:16.001Z</time></trkpt><trkpt lat="53.70570284517463" lon="11.00878953318542"><ele>58.0</ele><time>2026-04-05T13:07:17.001Z</time></trkpt><trkpt lat="53.70566814442685" lon="11.00854784122003"><ele>58.0</ele><time>2026-04-05T13:07:18.001Z</time></trkpt><trkpt lat="53.7056395360982" lon="11.008306110840536"><ele>58.0</ele><time>2026-04-05T13:07:19.001Z</time></trkpt><trkpt lat="53.70560381307453" lon="11.008068143796818"><ele>58.0</ele><time>2026-04-05T13:07:20.001Z</time></trkpt><trkpt lat="53.705568802624654" lon="11.007857823694774"><ele>58.0</ele><time>2026-04-05T13:07:21.001Z</time></trkpt><trkpt lat="53.70555037667671" lon="11.007681326876442"><ele>58.0</ele><time>2026-04-05T13:07:22.001Z</time></trkpt><trkpt lat="53.70552504870748" lon="11.007536390504228"><ele>58.0</ele><time>2026-04-05T13:07:23.001Z</time></trkpt><trkpt lat="53.70550635906864" lon="11.007379752953115"><ele>58.0</ele><time>2026-04-05T13:07:25.001Z</time></trkpt><trkpt lat="53.70538101570539" lon="11.007508212395697"><ele>58.0</ele><time>2026-04-05T13:07:27.001Z</time></trkpt><trkpt lat="53.70531095480476" lon="11.007698214318875"><ele>58.0</ele><time>2026-04-05T13:07:28.001Z</time></trkpt><trkpt lat="53.70521577678915" lon="11.007840061510814"><ele>58.0</ele><time>2026-04-05T13:07:29.001Z</time></trkpt><trkpt lat="53.70512225584959" lon="11.007975699034908"><ele>58.0</ele><time>2026-04-05T13:07:30.001Z</time></trkpt><trkpt lat="53.70508446765167" lon="11.008245760520044"><ele>58.0</ele><time>2026-04-05T13:07:31.001Z</time></trkpt><trkpt lat="53.704981390485464" lon="11.008405252610192"><ele>58.0</ele><time>2026-04-05T13:07:32.001Z</time></trkpt><trkpt lat="53.70486304238363" lon="11.008588888367099"><ele>58.0</ele><time>2026-04-05T13:07:33.002Z</time></trkpt><trkpt lat="53.704730579611244" lon="11.008774646960337"><ele>58.0</ele><time>2026-04-05T13:07:34.002Z</time></trkpt><trkpt lat="53.704610738181884" lon="11.00898710026006"><ele>58.0</ele><time>2026-04-05T13:07:35.002Z</time></trkpt><trkpt lat="53.70448262334874" lon="11.009188245412844"><ele>58.0</ele><time>2026-04-05T13:07:36.002Z</time></trkpt><trkpt lat="53.704331858980424" lon="11.009385838402531"><ele>56.666666666666664</ele><time>2026-04-05T13:07:37.002Z</time></trkpt><trkpt lat="53.70415582381786" lon="11.009551233364702"><ele>55.33333333333333</ele><time>2026-04-05T13:07:38.002Z</time></trkpt><trkpt lat="53.703985537499946" lon="11.009713005361046"><ele>54.0</ele><time>2026-04-05T13:07:39.002Z</time></trkpt><trkpt lat="53.70381939236184" lon="11.009895368366616"><ele>53.66666666666667</ele><time>2026-04-05T13:07:40.002Z</time></trkpt><trkpt lat="53.70365248777093" lon="11.010046424711376"><ele>53.333333333333336</ele><time>2026-04-05T13:07:41.002Z</time></trkpt><trkpt lat="53.703478258488346" lon="11.010193790191467"><ele>53.0</ele><time>2026-04-05T13:07:42.002Z</time></trkpt><trkpt lat="53.70331246434207" lon="11.010327065439744"><ele>52.66666666666667</ele><time>2026-04-05T13:07:43.002Z</time></trkpt><trkpt lat="53.70317194358303" lon="11.01043558879321"><ele>52.33333333333333</ele><time>2026-04-05T13:07:44.003Z</time></trkpt><trkpt lat="53.70300918320121" lon="11.010555722961657"><ele>52.0</ele><time>2026-04-05T13:07:45.003Z</time></trkpt><trkpt lat="53.70284153876058" lon="11.010679462700368"><ele>52.0</ele><time>2026-04-05T13:07:46.003Z</time></trkpt><trkpt lat="53.7026673098684" lon="11.010798028583208"><ele>52.0</ele><time>2026-04-05T13:07:47.003Z</time></trkpt><trkpt lat="53.70249510830226" lon="11.01090910277773"><ele>52.0</ele><time>2026-04-05T13:07:48.003Z</time></trkpt><trkpt lat="53.70232038658686" lon="11.011019926938644"><ele>52.0</ele><time>2026-04-05T13:07:49.003Z</time></trkpt><trkpt lat="53.70215527186185" lon="11.011121248070793"><ele>52.0</ele><time>2026-04-05T13:07:50.003Z</time></trkpt><trkpt lat="53.701987831987644" lon="11.011223995908749"><ele>52.0</ele><time>2026-04-05T13:07:51.003Z</time></trkpt><trkpt lat="53.701809392867894" lon="11.011333493310962"><ele>52.0</ele><time>2026-04-05T13:07:52.003Z</time></trkpt><trkpt lat="53.70164098505667" lon="11.011435624413684"><ele>52.0</ele><time>2026-04-05T13:07:53.003Z</time></trkpt><trkpt lat="53.70147191122442" lon="11.011539223155923"><ele>52.0</ele><time>2026-04-05T13:07:54.003Z</time></trkpt><trkpt lat="53.701301233597135" lon="11.01165091907557"><ele>52.0</ele><time>2026-04-05T13:07:55.003Z</time></trkpt><trkpt lat="53.70112878301084" lon="11.011774980913396"><ele>52.0</ele><time>2026-04-05T13:07:56.003Z</time></trkpt><trkpt lat="53.700955309889984" lon="11.011904011448696"><ele>52.0</ele><time>2026-04-05T13:07:57.003Z</time></trkpt><trkpt lat="53.70079159256266" lon="11.012037851504177"><ele>52.666666666666664</ele><time>2026-04-05T13:07:58.003Z</time></trkpt><trkpt lat="53.700613732497246" lon="11.012177142352748"><ele>53.33333333333333</ele><time>2026-04-05T13:07:59.003Z</time></trkpt><trkpt lat="53.700450464235765" lon="11.01230948183763"><ele>54.0</ele><time>2026-04-05T13:08:00.003Z</time></trkpt><trkpt lat="53.70030816728208" lon="11.012435779023805"><ele>54.0</ele><time>2026-04-05T13:08:01.003Z</time></trkpt><trkpt lat="53.70016431531001" lon="11.012582634079365"><ele>54.0</ele><time>2026-04-05T13:08:02.003Z</time></trkpt><trkpt lat="53.700001769326214" lon="11.012768384282182"><ele>54.0</ele><time>2026-04-05T13:08:03.003Z</time></trkpt><trkpt lat="53.69983914711104" lon="11.012956616529314"><ele>54.0</ele><time>2026-04-05T13:08:04.003Z</time></trkpt><trkpt lat="53.69968644807565" lon="11.013135675240301"><ele>54.0</ele><time>2026-04-05T13:08:05.003Z</time></trkpt><trkpt lat="53.69952944910343" lon="11.013319501937929"><ele>54.0</ele><time>2026-04-05T13:08:06.003Z</time></trkpt><trkpt lat="53.69936672138313" lon="11.013512283224118"><ele>54.0</ele><time>2026-04-05T13:08:07.003Z</time></trkpt><trkpt lat="53.699205956834" lon="11.013720217064439"><ele>54.0</ele><time>2026-04-05T13:08:08.003Z</time></trkpt><trkpt lat="53.699053339826996" lon="11.013919754899028"><ele>54.0</ele><time>2026-04-05T13:08:09.003Z</time></trkpt><trkpt lat="53.69890909425078" lon="11.014113329867694"><ele>54.0</ele><time>2026-04-05T13:08:10.003Z</time></trkpt><trkpt lat="53.698766319159745" lon="11.01430493162535"><ele>54.0</ele><time>2026-04-05T13:08:11.003Z</time></trkpt><trkpt lat="53.69862072911919" lon="11.01445946654123"><ele>54.0</ele><time>2026-04-05T13:08:12.003Z</time></trkpt><trkpt lat="53.69849190312965" lon="11.01464086782182"><ele>54.0</ele><time>2026-04-05T13:08:13.003Z</time></trkpt><trkpt lat="53.698316936942255" lon="11.014832263404863"><ele>54.0</ele><time>2026-04-05T13:08:14.003Z</time></trkpt><trkpt lat="53.698148049805525" lon="11.01501331116308"><ele>54.0</ele><time>2026-04-05T13:08:15.003Z</time></trkpt><trkpt lat="53.697978976010944" lon="11.015190282302573"><ele>53.66666666666667</ele><time>2026-04-05T13:08:16.003Z</time></trkpt><trkpt lat="53.6978263649235" lon="11.015341964889304"><ele>53.333333333333336</ele><time>2026-04-05T13:08:17.003Z</time></trkpt><trkpt lat="53.69765313869762" lon="11.015513749367681"><ele>53.0</ele><time>2026-04-05T13:08:18.003Z</time></trkpt><trkpt lat="53.697490166254674" lon="11.015660004521285"><ele>53.0</ele><time>2026-04-05T13:08:19.003Z</time></trkpt><trkpt lat="53.697323240692604" lon="11.015790003624177"><ele>53.0</ele><time>2026-04-05T13:08:20.003Z</time></trkpt><trkpt lat="53.697155730620736" lon="11.015903563775993"><ele>53.0</ele><time>2026-04-05T13:08:21.003Z</time></trkpt><trkpt lat="53.69699539577439" lon="11.01599809498734"><ele>53.0</ele><time>2026-04-05T13:08:22.003Z</time></trkpt><trkpt lat="53.69683823960653" lon="11.016095207848188"><ele>53.0</ele><time>2026-04-05T13:08:23.003Z</time></trkpt><trkpt lat="53.69668325292779" lon="11.016196823247725"><ele>53.0</ele><time>2026-04-05T13:08:24.003Z</time></trkpt><trkpt lat="53.69652448273028" lon="11.016310666264685"><ele>53.0</ele><time>2026-04-05T13:08:25.003Z</time></trkpt><trkpt lat="53.696402143762796" lon="11.016401294281636"><ele>53.0</ele><time>2026-04-05T13:08:26.003Z</time></trkpt><trkpt lat="53.69626271016198" lon="11.016502952752326"><ele>53.0</ele><time>2026-04-05T13:08:27.003Z</time></trkpt><trkpt lat="53.69615946541855" lon="11.016574939039241"><ele>53.0</ele><time>2026-04-05T13:08:28.003Z</time></trkpt><trkpt lat="53.69602614767702" lon="11.016667638838786"><ele>52.5</ele><time>2026-04-05T13:08:29.003Z</time></trkpt><trkpt lat="53.69590057917197" lon="11.016752771563773"><ele>52.0</ele><time>2026-04-05T13:08:30.003Z</time></trkpt><trkpt lat="53.69577218210077" lon="11.016829895818919"><ele>51.5</ele><time>2026-04-05T13:08:31.003Z</time></trkpt><trkpt lat="53.695666302561065" lon="11.01687725269804"><ele>51.0</ele><time>2026-04-05T13:08:32.003Z</time></trkpt><trkpt lat="53.695479938061894" lon="11.016919008166346"><ele>51.0</ele><time>2026-04-05T13:08:33.003Z</time></trkpt><trkpt lat="53.69532536975044" lon="11.016921977704259"><ele>51.0</ele><time>2026-04-05T13:08:34.003Z</time></trkpt><trkpt lat="53.695174140481996" lon="11.016912158393524"><ele>51.0</ele><time>2026-04-05T13:08:35.003Z</time></trkpt><trkpt lat="53.69504090717172" lon="11.016903239847428"><ele>51.0</ele><time>2026-04-05T13:08:36.003Z</time></trkpt><trkpt lat="53.69491251213424" lon="11.016813685646106"><ele>51.199999999999996</ele><time>2026-04-05T13:08:37.003Z</time></trkpt><trkpt lat="53.6947858945809" lon="11.0167804326202"><ele>51.4</ele><time>2026-04-05T13:08:38.003Z</time></trkpt><trkpt lat="53.69466611738876" lon="11.016762318787366"><ele>51.6</ele><time>2026-04-05T13:08:39.003Z</time></trkpt><trkpt lat="53.694565936922004" lon="11.01673317147987"><ele>51.8</ele><time>2026-04-05T13:08:40.003Z</time></trkpt><trkpt lat="53.694468540043886" lon="11.016749875870648"><ele>52.0</ele><time>2026-04-05T13:08:41.003Z</time></trkpt><trkpt lat="53.694395774113104" lon="11.016758616290613"><ele>52.285714285714285</ele><time>2026-04-05T13:08:42.003Z</time></trkpt><trkpt lat="53.69433198741123" lon="11.01675492180024"><ele>52.57142857142858</ele><time>2026-04-05T13:08:43.003Z</time></trkpt><trkpt lat="53.694264740009736" lon="11.01674420635098"><ele>52.85714285714286</ele><time>2026-04-05T13:08:45.003Z</time></trkpt><trkpt lat="53.694241965635605" lon="11.016630453539296"><ele>53.14285714285714</ele><time>2026-04-05T13:08:47.003Z</time></trkpt><trkpt lat="53.69423841303709" lon="11.016515967233776"><ele>53.42857142857143</ele><time>2026-04-05T13:08:48.003Z</time></trkpt><trkpt lat="53.69423270664293" lon="11.016380161114467"><ele>53.714285714285715</ele><time>2026-04-05T13:08:49.003Z</time></trkpt><trkpt lat="53.69422677305215" lon="11.016240577937188"><ele>54.0</ele><time>2026-04-05T13:08:50.003Z</time></trkpt><trkpt lat="53.69421514411534" lon="11.016084824836883"><ele>54.2</ele><time>2026-04-05T13:08:51.003Z</time></trkpt><trkpt lat="53.694208333628964" lon="11.01592011868051"><ele>54.400000000000006</ele><time>2026-04-05T13:08:52.003Z</time></trkpt><trkpt lat="53.69420884810564" lon="11.01574014226347"><ele>54.6</ele><time>2026-04-05T13:08:53.003Z</time></trkpt><trkpt lat="53.69421134494651" lon="11.015547592148012"><ele>54.8</ele><time>2026-04-05T13:08:54.003Z</time></trkpt><trkpt lat="53.694215600752955" lon="11.01535562679655"><ele>55.0</ele><time>2026-04-05T13:08:55.003Z</time></trkpt><trkpt lat="53.69421177507191" lon="11.015171223538923"><ele>55.166666666666664</ele><time>2026-04-05T13:08:56.003Z</time></trkpt><trkpt lat="53.69421200976845" lon="11.015009054206638"><ele>55.33333333333333</ele><time>2026-04-05T13:08:57.003Z</time></trkpt><trkpt lat="53.694207587805764" lon="11.014867355686917"><ele>55.5</ele><time>2026-04-05T13:08:58.003Z</time></trkpt><trkpt lat="53.69421234577059" lon="11.014747755521988"><ele>55.66666666666667</ele><time>2026-04-05T13:08:59.003Z</time></trkpt><trkpt lat="53.69417172943061" lon="11.014643488762097"><ele>55.833333333333336</ele><time>2026-04-05T13:09:00.003Z</time></trkpt><trkpt lat="53.6941774152588" lon="11.014518446149703"><ele>56.0</ele><time>2026-04-05T13:09:02.003Z</time></trkpt><trkpt lat="53.694185956484986" lon="11.014385515732112"><ele>56.199999999999996</ele><time>2026-04-05T13:09:05.003Z</time></trkpt><trkpt lat="53.69407282934549" lon="11.014360531184622"><ele>56.39999999999999</ele><time>2026-04-05T13:09:06.003Z</time></trkpt><trkpt lat="53.69399569073369" lon="11.014370203237148"><ele>56.6</ele><time>2026-04-05T13:09:07.003Z</time></trkpt><trkpt lat="53.69391320785759" lon="11.014398674443711"><ele>56.8</ele><time>2026-04-05T13:09:08.005Z</time></trkpt><trkpt lat="53.69382749696275" lon="11.014443076166852"><ele>57.0</ele><time>2026-04-05T13:09:09.005Z</time></trkpt><trkpt lat="53.69373745294446" lon="11.01450439543839"><ele>57.0</ele><time>2026-04-05T13:09:10.005Z</time></trkpt><trkpt lat="53.693633200884236" lon="11.014551727298379"><ele>57.0</ele><time>2026-04-05T13:09:11.005Z</time></trkpt><trkpt lat="53.693518918750556" lon="11.014602828064332"><ele>57.0</ele><time>2026-04-05T13:09:12.005Z</time></trkpt><trkpt lat="53.69339545307194" lon="11.014626090869754"><ele>57.0</ele><time>2026-04-05T13:09:13.004Z</time></trkpt><trkpt lat="53.69326939852389" lon="11.014676240139355"><ele>57.25</ele><time>2026-04-05T13:09:14.004Z</time></trkpt><trkpt lat="53.693137740255516" lon="11.01473898866546"><ele>57.5</ele><time>2026-04-05T13:09:15.004Z</time></trkpt><trkpt lat="53.69300721948884" lon="11.014820561687943"><ele>57.75</ele><time>2026-04-05T13:09:16.004Z</time></trkpt><trkpt lat="53.692872822098515" lon="11.014907132252425"><ele>58.0</ele><time>2026-04-05T13:09:17.004Z</time></trkpt><trkpt lat="53.692729884331825" lon="11.014997485709543"><ele>58.666666666666664</ele><time>2026-04-05T13:09:18.003Z</time></trkpt><trkpt lat="53.69257987093809" lon="11.015092722542727"><ele>59.33333333333333</ele><time>2026-04-05T13:09:19.003Z</time></trkpt><trkpt lat="53.692428388045265" lon="11.01519072847838"><ele>60.0</ele><time>2026-04-05T13:09:20.003Z</time></trkpt><trkpt lat="53.69227333116912" lon="11.015271686196884"><ele>60.0</ele><time>2026-04-05T13:09:21.003Z</time></trkpt><trkpt lat="53.69210393650434" lon="11.015278105680213"><ele>60.0</ele><time>2026-04-05T13:09:22.003Z</time></trkpt><trkpt lat="53.6919638586412" lon="11.01523611768298"><ele>60.0</ele><time>2026-04-05T13:09:23.003Z</time></trkpt><trkpt lat="53.691794106933415" lon="11.015165932115057"><ele>59.66666666666667</ele><time>2026-04-05T13:09:24.002Z</time></trkpt><trkpt lat="53.6916170322161" lon="11.015089682648481"><ele>59.333333333333336</ele><time>2026-04-05T13:09:25.002Z</time></trkpt><trkpt lat="53.69144952509003" lon="11.014977822983495"><ele>59.0</ele><time>2026-04-05T13:09:26.002Z</time></trkpt><trkpt lat="53.691251568201906" lon="11.014896284852139"><ele>59.0</ele><time>2026-04-05T13:09:27.002Z</time></trkpt><trkpt lat="53.691062852195564" lon="11.014780159358562"><ele>59.0</ele><time>2026-04-05T13:09:28.002Z</time></trkpt><trkpt lat="53.69088062127242" lon="11.01467955736734"><ele>59.0</ele><time>2026-04-05T13:09:29.002Z</time></trkpt><trkpt lat="53.69070768286724" lon="11.01459699405684"><ele>59.0</ele><time>2026-04-05T13:09:30.002Z</time></trkpt><trkpt lat="53.69050925934784" lon="11.014493641852328"><ele>59.0</ele><time>2026-04-05T13:09:31.002Z</time></trkpt><trkpt lat="53.69032266845382" lon="11.014454794983962"><ele>59.0</ele><time>2026-04-05T13:09:32.002Z</time></trkpt><trkpt lat="53.690151838383464" lon="11.014413317648797"><ele>57.0</ele><time>2026-04-05T13:09:33.002Z</time></trkpt><trkpt lat="53.68997273741248" lon="11.014437847464325"><ele>55.0</ele><time>2026-04-05T13:09:34.001Z</time></trkpt><trkpt lat="53.68982144924474" lon="11.014414815106305"><ele>53.0</ele><time>2026-04-05T13:09:35.001Z</time></trkpt><trkpt lat="53.689662134431735" lon="11.014398306786703"><ele>53.0</ele><time>2026-04-05T13:09:36.001Z</time></trkpt><trkpt lat="53.68952684809782" lon="11.014347256898109"><ele>53.0</ele><time>2026-04-05T13:09:37.001Z</time></trkpt><trkpt lat="53.68939430779611" lon="11.014293668223926"><ele>53.0</ele><time>2026-04-05T13:09:38.001Z</time></trkpt><trkpt lat="53.68926854794243" lon="11.014229481005046"><ele>53.0</ele><time>2026-04-05T13:09:39.001Z</time></trkpt><trkpt lat="53.68914264359544" lon="11.014160789277827"><ele>53.25</ele><time>2026-04-05T13:09:40.001Z</time></trkpt><trkpt lat="53.689009784190695" lon="11.014101529409649"><ele>53.5</ele><time>2026-04-05T13:09:41.001Z</time></trkpt><trkpt lat="53.68889033318741" lon="11.013987709490637"><ele>53.75</ele><time>2026-04-05T13:09:42.001Z</time></trkpt><trkpt lat="53.688768362231976" lon="11.013865800512725"><ele>54.0</ele><time>2026-04-05T13:09:43.001Z</time></trkpt><trkpt lat="53.688643085132476" lon="11.013789159042764"><ele>54.75</ele><time>2026-04-05T13:09:44.001Z</time></trkpt><trkpt lat="53.68850821652784" lon="11.013720048704394"><ele>55.5</ele><time>2026-04-05T13:09:45.001Z</time></trkpt><trkpt lat="53.68837854811606" lon="11.013634339125751"><ele>56.25</ele><time>2026-04-05T13:09:46.001Z</time></trkpt><trkpt lat="53.68825763384122" lon="11.013543487696833"><ele>57.0</ele><time>2026-04-05T13:09:47.001Z</time></trkpt><trkpt lat="53.68811671806335" lon="11.013464464269788"><ele>57.0</ele><time>2026-04-05T13:09:48.001Z</time></trkpt><trkpt lat="53.687968113682956" lon="11.013406000638849"><ele>57.0</ele><time>2026-04-05T13:09:49.001Z</time></trkpt><trkpt lat="53.68783245955141" lon="11.013330891109947"><ele>57.0</ele><time>2026-04-05T13:09:50.001Z</time></trkpt><trkpt lat="53.6876779547091" lon="11.013289941642435"><ele>54.66666666666667</ele><time>2026-04-05T13:09:51.001Z</time></trkpt><trkpt lat="53.68750835289818" lon="11.013203755196212"><ele>52.333333333333336</ele><time>2026-04-05T13:09:52.001Z</time></trkpt><trkpt lat="53.68734542415416" lon="11.013103870763148"><ele>50.0</ele><time>2026-04-05T13:09:53.001Z</time></trkpt><trkpt lat="53.687185683168835" lon="11.013041749971569"><ele>50.0</ele><time>2026-04-05T13:09:54.001Z</time></trkpt><trkpt lat="53.68702628323593" lon="11.01299037497015"><ele>50.0</ele><time>2026-04-05T13:09:55.001Z</time></trkpt><trkpt lat="53.68686553582858" lon="11.012940900345589"><ele>50.0</ele><time>2026-04-05T13:09:56.001Z</time></trkpt><trkpt lat="53.68668819800661" lon="11.012884612579377"><ele>49.66666666666667</ele><time>2026-04-05T13:09:57.001Z</time></trkpt><trkpt lat="53.6865123046747" lon="11.012827407583202"><ele>49.33333333333333</ele><time>2026-04-05T13:09:58.001Z</time></trkpt><trkpt lat="53.68632361456324" lon="11.012770198549521"><ele>49.0</ele><time>2026-04-05T13:09:59.001Z</time></trkpt><trkpt lat="53.68614038410458" lon="11.012690566154012"><ele>48.666666666666664</ele><time>2026-04-05T13:10:00Z</time></trkpt><trkpt lat="53.685950961325936" lon="11.012659266150388"><ele>48.33333333333333</ele><time>2026-04-05T13:10:01Z</time></trkpt><trkpt lat="53.6857646279086" lon="11.01261473322939"><ele>48.0</ele><time>2026-04-05T13:10:02Z</time></trkpt><trkpt lat="53.685592451095175" lon="11.012533035787243"><ele>48.33333333333333</ele><time>2026-04-05T13:10:03Z</time></trkpt><trkpt lat="53.685403719901956" lon="11.01247273237626"><ele>48.666666666666664</ele><time>2026-04-05T13:10:04Z</time></trkpt><trkpt lat="53.685214691029785" lon="11.012415869985977"><ele>49.0</ele><time>2026-04-05T13:10:05Z</time></trkpt><trkpt lat="53.68502541013593" lon="11.012353161453357"><ele>49.0</ele><time>2026-04-05T13:10:06Z</time></trkpt><trkpt lat="53.684845435683016" lon="11.012273316501952"><ele>49.0</ele><time>2026-04-05T13:10:07Z</time></trkpt><trkpt lat="53.68466422846443" lon="11.01224431415192"><ele>49.0</ele><time>2026-04-05T13:10:08Z</time></trkpt><trkpt lat="53.68449888444213" lon="11.012192275986436"><ele>49.33333333333333</ele><time>2026-04-05T13:10:09Z</time></trkpt><trkpt lat="53.68431744371233" lon="11.012139381433327"><ele>49.66666666666667</ele><time>2026-04-05T13:10:10Z</time></trkpt><trkpt lat="53.68413917962994" lon="11.012079712681661"><ele>50.0</ele><time>2026-04-05T13:10:11Z</time></trkpt><trkpt lat="53.68395605225679" lon="11.01200323675722"><ele>50.0</ele><time>2026-04-05T13:10:12Z</time></trkpt><trkpt lat="53.683780283921784" lon="11.01189301439497"><ele>50.0</ele><time>2026-04-05T13:10:13Z</time></trkpt><trkpt lat="53.68361474742687" lon="11.011739420998735"><ele>50.0</ele><time>2026-04-05T13:10:14Z</time></trkpt><trkpt lat="53.68345212331235" lon="11.011622672408796"><ele>50.0</ele><time>2026-04-05T13:10:15Z</time></trkpt><trkpt lat="53.68332272300117" lon="11.011439853932547"><ele>50.0</ele><time>2026-04-05T13:10:16Z</time></trkpt><trkpt lat="53.68320235428583" lon="11.011258352535696"><ele>50.0</ele><time>2026-04-05T13:10:17Z</time></trkpt><trkpt lat="53.68308828182301" lon="11.011063002234089"><ele>50.0</ele><time>2026-04-05T13:10:18Z</time></trkpt><trkpt lat="53.6829727061734" lon="11.010825378595984"><ele>50.0</ele><time>2026-04-05T13:10:19Z</time></trkpt><trkpt lat="53.6828593615496" lon="11.010609896514545"><ele>50.0</ele><time>2026-04-05T13:10:20Z</time></trkpt><trkpt lat="53.68275056170669" lon="11.010396047619963"><ele>50.66666666666667</ele><time>2026-04-05T13:10:21Z</time></trkpt><trkpt lat="53.682646505148305" lon="11.01017220981818"><ele>51.33333333333333</ele><time>2026-04-05T13:10:22Z</time></trkpt><trkpt lat="53.68253799335843" lon="11.009972287410584"><ele>52.0</ele><time>2026-04-05T13:10:23Z</time></trkpt><trkpt lat="53.68242923209122" lon="11.00977527888395"><ele>52.0</ele><time>2026-04-05T13:10:24Z</time></trkpt><trkpt lat="53.68232510923085" lon="11.009551842657574"><ele>52.0</ele><time>2026-04-05T13:10:25Z</time></trkpt><trkpt lat="53.68225482951409" lon="11.009352483874789"><ele>52.0</ele><time>2026-04-05T13:10:26Z</time></trkpt><trkpt lat="53.68215455199799" lon="11.00923154140127"><ele>52.0</ele><time>2026-04-05T13:10:27Z</time></trkpt><trkpt lat="53.68205749335205" lon="11.009120531608314"><ele>52.2</ele><time>2026-04-05T13:10:28Z</time></trkpt><trkpt lat="53.681978247046644" lon="11.009001431197575"><ele>52.400000000000006</ele><time>2026-04-05T13:10:29Z</time></trkpt><trkpt lat="53.68190939554987" lon="11.008868183574839"><ele>52.599999999999994</ele><time>2026-04-05T13:10:30Z</time></trkpt><trkpt lat="53.681864252553844" lon="11.00876161084895"><ele>52.8</ele><time>2026-04-05T13:10:31Z</time></trkpt><trkpt lat="53.68172972059999" lon="11.008707774310242"><ele>53.0</ele><time>2026-04-05T13:10:33Z</time></trkpt><trkpt lat="53.68167069941009" lon="11.008770077528139"><ele>53.25</ele><time>2026-04-05T13:10:34Z</time></trkpt><trkpt lat="53.68160420328144" lon="11.008891989051088"><ele>53.5</ele><time>2026-04-05T13:10:35Z</time></trkpt><trkpt lat="53.68152436592459" lon="11.009005664018362"><ele>53.75</ele><time>2026-04-05T13:10:36Z</time></trkpt><trkpt lat="53.681427545205004" lon="11.00911724891426"><ele>54.0</ele><time>2026-04-05T13:10:37Z</time></trkpt><trkpt lat="53.681310536501826" lon="11.009233136292405"><ele>54.0</ele><time>2026-04-05T13:10:38Z</time></trkpt><trkpt lat="53.68119717233628" lon="11.009364746347504"><ele>54.0</ele><time>2026-04-05T13:10:39Z</time></trkpt><trkpt lat="53.68110525917202" lon="11.009471452026728"><ele>54.0</ele><time>2026-04-05T13:10:40Z</time></trkpt><trkpt lat="53.68100236256873" lon="11.009593281663683"><ele>54.0</ele><time>2026-04-05T13:10:41Z</time></trkpt><trkpt lat="53.680898811343596" lon="11.00971682170963"><ele>54.0</ele><time>2026-04-05T13:10:42Z</time></trkpt><trkpt lat="53.68077137576377" lon="11.009861251788795"><ele>54.0</ele><time>2026-04-05T13:10:43Z</time></trkpt><trkpt lat="53.680649726917714" lon="11.01003111429144"><ele>54.0</ele><time>2026-04-05T13:10:44Z</time></trkpt><trkpt lat="53.68050109399528" lon="11.010180108937295"><ele>54.0</ele><time>2026-04-05T13:10:45Z</time></trkpt><trkpt lat="53.68036330868483" lon="11.010340330289573"><ele>54.0</ele><time>2026-04-05T13:10:46Z</time></trkpt><trkpt lat="53.68021850664557" lon="11.01051109982208"><ele>54.0</ele><time>2026-04-05T13:10:47Z</time></trkpt><trkpt lat="53.68007411599291" lon="11.010680574931"><ele>53.0</ele><time>2026-04-05T13:10:48Z</time></trkpt><trkpt lat="53.679912081920634" lon="11.010867625487457"><ele>52.0</ele><time>2026-04-05T13:10:49Z</time></trkpt><trkpt lat="53.67975678745333" lon="11.011049839795245"><ele>51.0</ele><time>2026-04-05T13:10:50Z</time></trkpt><trkpt lat="53.67960256293973" lon="11.01125419049011"><ele>51.0</ele><time>2026-04-05T13:10:51Z</time></trkpt><trkpt lat="53.679447105489835" lon="11.011394720357439"><ele>51.0</ele><time>2026-04-05T13:10:52Z</time></trkpt><trkpt lat="53.67928931727407" lon="11.011572758378668"><ele>51.0</ele><time>2026-04-05T13:10:53Z</time></trkpt><trkpt lat="53.67913934014926" lon="11.011771086756259"><ele>51.33333333333333</ele><time>2026-04-05T13:10:54Z</time></trkpt><trkpt lat="53.678973142419046" lon="11.011921709400644"><ele>51.666666666666664</ele><time>2026-04-05T13:10:55Z</time></trkpt><trkpt lat="53.678816413404256" lon="11.012118486480363"><ele>52.0</ele><time>2026-04-05T13:10:56Z</time></trkpt><trkpt lat="53.6786615447064" lon="11.0123226549949"><ele>52.33333333333333</ele><time>2026-04-05T13:10:57Z</time></trkpt><trkpt lat="53.678505486149795" lon="11.012522291264839"><ele>52.66666666666667</ele><time>2026-04-05T13:10:58Z</time></trkpt><trkpt lat="53.678366524055896" lon="11.012743023940308"><ele>53.0</ele><time>2026-04-05T13:10:59Z</time></trkpt><trkpt lat="53.678239525326156" lon="11.012886523083651"><ele>53.0</ele><time>2026-04-05T13:11:00Z</time></trkpt><trkpt lat="53.678105789732314" lon="11.013071095423406"><ele>53.0</ele><time>2026-04-05T13:11:01Z</time></trkpt><trkpt lat="53.67797424197012" lon="11.013258668820567"><ele>53.0</ele><time>2026-04-05T13:11:02Z</time></trkpt><trkpt lat="53.677826603660215" lon="11.013432402464309"><ele>53.333333333333336</ele><time>2026-04-05T13:11:03Z</time></trkpt><trkpt lat="53.6776757697304" lon="11.013629401542909"><ele>53.66666666666667</ele><time>2026-04-05T13:11:04Z</time></trkpt><trkpt lat="53.677519191048845" lon="11.013833903519146"><ele>54.0</ele><time>2026-04-05T13:11:05Z</time></trkpt><trkpt lat="53.67738631449867" lon="11.01403846703737"><ele>54.0</ele><time>2026-04-05T13:11:06Z</time></trkpt><trkpt lat="53.677231303665046" lon="11.014210320470529"><ele>54.0</ele><time>2026-04-05T13:11:07Z</time></trkpt><trkpt lat="53.67707294802178" lon="11.0144128396034"><ele>54.0</ele><time>2026-04-05T13:11:08Z</time></trkpt><trkpt lat="53.67692273656642" lon="11.014614902849486"><ele>54.0</ele><time>2026-04-05T13:11:09Z</time></trkpt><trkpt lat="53.676763156016484" lon="11.014798499055797"><ele>54.0</ele><time>2026-04-05T13:11:10Z</time></trkpt><trkpt lat="53.676559932738705" lon="11.014953082592424"><ele>54.0</ele><time>2026-04-05T13:11:11Z</time></trkpt><trkpt lat="53.67639033235496" lon="11.015076466891975"><ele>53.0</ele><time>2026-04-05T13:11:12Z</time></trkpt><trkpt lat="53.67620395714318" lon="11.015117942772775"><ele>52.0</ele><time>2026-04-05T13:11:13Z</time></trkpt><trkpt lat="53.67601515336593" lon="11.015140803588347"><ele>51.0</ele><time>2026-04-05T13:11:14Z</time></trkpt><trkpt lat="53.675842333984534" lon="11.015145555528449"><ele>50.66666666666667</ele><time>2026-04-05T13:11:15Z</time></trkpt><trkpt lat="53.67567201825421" lon="11.015102499233759"><ele>50.333333333333336</ele><time>2026-04-05T13:11:16Z</time></trkpt><trkpt lat="53.675496190810804" lon="11.014995687609204"><ele>50.0</ele><time>2026-04-05T13:11:17Z</time></trkpt><trkpt lat="53.675335844411975" lon="11.014853432858551"><ele>50.333333333333336</ele><time>2026-04-05T13:11:18Z</time></trkpt><trkpt lat="53.675181254109944" lon="11.014717588960771"><ele>50.66666666666667</ele><time>2026-04-05T13:11:19Z</time></trkpt><trkpt lat="53.67504966224639" lon="11.014546482600299"><ele>51.0</ele><time>2026-04-05T13:11:20Z</time></trkpt><trkpt lat="53.67491581553135" lon="11.014421925530469"><ele>51.0</ele><time>2026-04-05T13:11:21Z</time></trkpt><trkpt lat="53.67479763039272" lon="11.014305633364524"><ele>51.0</ele><time>2026-04-05T13:11:22Z</time></trkpt><trkpt lat="53.67466802833382" lon="11.01417924760397"><ele>51.0</ele><time>2026-04-05T13:11:23Z</time></trkpt><trkpt lat="53.67453772393616" lon="11.01411265839745"><ele>51.0</ele><time>2026-04-05T13:11:24Z</time></trkpt><trkpt lat="53.674374648526424" lon="11.0140800207254"><ele>50.0</ele><time>2026-04-05T13:11:25Z</time></trkpt><trkpt lat="53.67422204255073" lon="11.014149312888774"><ele>49.0</ele><time>2026-04-05T13:11:26Z</time></trkpt><trkpt lat="53.674072423019716" lon="11.01419571292988"><ele>48.0</ele><time>2026-04-05T13:11:27Z</time></trkpt><trkpt lat="53.67392634514031" lon="11.014294955933426"><ele>48.0</ele><time>2026-04-05T13:11:28Z</time></trkpt><trkpt lat="53.67378410417492" lon="11.014449851979021"><ele>48.0</ele><time>2026-04-05T13:11:29Z</time></trkpt><trkpt lat="53.673662199003246" lon="11.014661489563855"><ele>48.0</ele><time>2026-04-05T13:11:30Z</time></trkpt><trkpt lat="53.673518113141704" lon="11.01482418738408"><ele>48.66666666666667</ele><time>2026-04-05T13:11:31Z</time></trkpt><trkpt lat="53.67339019444647" lon="11.015020001153763"><ele>49.333333333333336</ele><time>2026-04-05T13:11:32Z</time></trkpt><trkpt lat="53.67325641225308" lon="11.015204672024447"><ele>50.0</ele><time>2026-04-05T13:11:33Z</time></trkpt><trkpt lat="53.67314876424461" lon="11.0154126820668"><ele>50.0</ele><time>2026-04-05T13:11:34Z</time></trkpt><trkpt lat="53.673023545787174" lon="11.015551259011023"><ele>50.0</ele><time>2026-04-05T13:11:35Z</time></trkpt><trkpt lat="53.67292488841494" lon="11.01568057302119"><ele>50.0</ele><time>2026-04-05T13:11:36Z</time></trkpt><trkpt lat="53.67282690861303" lon="11.015806680821992"><ele>50.0</ele><time>2026-04-05T13:11:37Z</time></trkpt><trkpt lat="53.67273279140487" lon="11.015918085226584"><ele>50.00000000000001</ele><time>2026-04-05T13:11:38Z</time></trkpt><trkpt lat="53.672653946202075" lon="11.0160047775962"><ele>50.0</ele><time>2026-04-05T13:11:39Z</time></trkpt><trkpt lat="53.67257747036946" lon="11.01608141946664"><ele>50.0</ele><time>2026-04-05T13:11:40Z</time></trkpt><trkpt lat="53.67251166203347" lon="11.016140739249224"><ele>50.0</ele><time>2026-04-05T13:11:41Z</time></trkpt><trkpt lat="53.67242576457983" lon="11.016186337346753"><ele>50.00000000000001</ele><time>2026-04-05T13:11:43Z</time></trkpt><trkpt lat="53.6724844860066" lon="11.01613617896176"><ele>50.0</ele><time>2026-04-05T13:12:01Z</time></trkpt><trkpt lat="53.67240976578377" lon="11.016208232579627"><ele>50.00000000000001</ele><time>2026-04-05T13:12:36.999Z</time></trkpt><trkpt lat="53.672345571413764" lon="11.016250973568589"><ele>50.0</ele><time>2026-04-05T13:12:37.999Z</time></trkpt><trkpt lat="53.67227338607186" lon="11.016307571244797"><ele>50.0</ele><time>2026-04-05T13:12:38.999Z</time></trkpt><trkpt lat="53.67219102282394" lon="11.016367917818984"><ele>50.0</ele><time>2026-04-05T13:12:39.999Z</time></trkpt><trkpt lat="53.672126689773116" lon="11.016413369436892"><ele>50.00000000000001</ele><time>2026-04-05T13:12:40.999Z</time></trkpt><trkpt lat="53.67201772172149" lon="11.016539877788995"><ele>50.0</ele><time>2026-04-05T13:12:41.999Z</time></trkpt><trkpt lat="53.67187253710497" lon="11.016618869264004"><ele>50.25</ele><time>2026-04-05T13:12:42.999Z</time></trkpt><trkpt lat="53.67173745493439" lon="11.016715339113121"><ele>50.5</ele><time>2026-04-05T13:12:43.999Z</time></trkpt><trkpt lat="53.67159648366047" lon="11.01677745959762"><ele>50.75</ele><time>2026-04-05T13:12:44.999Z</time></trkpt><trkpt lat="53.67146279260076" lon="11.01681476467016"><ele>51.0</ele><time>2026-04-05T13:12:45.999Z</time></trkpt><trkpt lat="53.671344033598736" lon="11.016874532929734"><ele>51.0</ele><time>2026-04-05T13:12:46.999Z</time></trkpt><trkpt lat="53.67122093907697" lon="11.016935105448034"><ele>51.0</ele><time>2026-04-05T13:12:47.999Z</time></trkpt><trkpt lat="53.67108007750567" lon="11.017012880301916"><ele>51.0</ele><time>2026-04-05T13:12:48.999Z</time></trkpt><trkpt lat="53.67092691052757" lon="11.017040639501387"><ele>51.0</ele><time>2026-04-05T13:12:49.999Z</time></trkpt><trkpt lat="53.67078483400301" lon="11.017084097591072"><ele>51.0</ele><time>2026-04-05T13:12:50.999Z</time></trkpt><trkpt lat="53.67063117906994" lon="11.017133050404444"><ele>51.0</ele><time>2026-04-05T13:12:51.999Z</time></trkpt><trkpt lat="53.6704870389505" lon="11.017178296475404"><ele>51.0</ele><time>2026-04-05T13:12:52.999Z</time></trkpt><trkpt lat="53.670344113906786" lon="11.017219778567526"><ele>51.0</ele><time>2026-04-05T13:12:53.999Z</time></trkpt><trkpt lat="53.67022235290855" lon="11.017254033158707"><ele>50.25</ele><time>2026-04-05T13:12:54.999Z</time></trkpt><trkpt lat="53.67007299071539" lon="11.017339239126033"><ele>49.5</ele><time>2026-04-05T13:12:55.999Z</time></trkpt><trkpt lat="53.669961252122135" lon="11.017388413270243"><ele>48.75</ele><time>2026-04-05T13:12:56.999Z</time></trkpt><trkpt lat="53.6698732735325" lon="11.017378297392815"><ele>48.0</ele><time>2026-04-05T13:12:57.999Z</time></trkpt><trkpt lat="53.66977395883365" lon="11.017412302114044"><ele>48.5</ele><time>2026-04-05T13:12:58.999Z</time></trkpt><trkpt lat="53.66974099560838" lon="11.017532955207129"><ele>49.0</ele><time>2026-04-05T13:12:59.999Z</time></trkpt><trkpt lat="53.669688229544235" lon="11.017719275251928"><ele>49.5</ele><time>2026-04-05T13:13:00.999Z</time></trkpt><trkpt lat="53.6696319292967" lon="11.017943031870331"><ele>50.0</ele><time>2026-04-05T13:13:01.999Z</time></trkpt><trkpt lat="53.669571903433415" lon="11.018162558080343"><ele>50.0</ele><time>2026-04-05T13:13:02.999Z</time></trkpt><trkpt lat="53.66950871129815" lon="11.018393663477491"><ele>50.0</ele><time>2026-04-05T13:13:03.999Z</time></trkpt><trkpt lat="53.66943714445663" lon="11.018647080807495"><ele>50.0</ele><time>2026-04-05T13:13:04.999Z</time></trkpt><trkpt lat="53.669374756474795" lon="11.018919579609106"><ele>50.0</ele><time>2026-04-05T13:13:05.999Z</time></trkpt><trkpt lat="53.66929165676267" lon="11.019178413794823"><ele>50.0</ele><time>2026-04-05T13:13:06.999Z</time></trkpt><trkpt lat="53.66920439543462" lon="11.019446420586364"><ele>50.0</ele><time>2026-04-05T13:13:07.999Z</time></trkpt><trkpt lat="53.669113141121656" lon="11.019700885686479"><ele>49.333333333333336</ele><time>2026-04-05T13:13:08.999Z</time></trkpt><trkpt lat="53.669030836609004" lon="11.01999381424664"><ele>48.66666666666667</ele><time>2026-04-05T13:13:09.999Z</time></trkpt><trkpt lat="53.66896473379756" lon="11.02028729568023"><ele>48.0</ele><time>2026-04-05T13:13:10.999Z</time></trkpt><trkpt lat="53.66889171141829" lon="11.0205848579222"><ele>48.0</ele><time>2026-04-05T13:13:11.999Z</time></trkpt><trkpt lat="53.66884675665306" lon="11.020907868094275"><ele>48.0</ele><time>2026-04-05T13:13:12.999Z</time></trkpt><trkpt lat="53.66878267430728" lon="11.021227227817052"><ele>48.0</ele><time>2026-04-05T13:13:13.999Z</time></trkpt><trkpt lat="53.66873354487456" lon="11.021541909715133"><ele>48.0</ele><time>2026-04-05T13:13:14.999Z</time></trkpt><trkpt lat="53.668659088005555" lon="11.021839227134617"><ele>48.0</ele><time>2026-04-05T13:13:15.999Z</time></trkpt><trkpt lat="53.66859191308175" lon="11.022128814551273"><ele>48.0</ele><time>2026-04-05T13:13:16.999Z</time></trkpt><trkpt lat="53.66851481333787" lon="11.022426552314487"><ele>49.33333333333333</ele><time>2026-04-05T13:13:17.999Z</time></trkpt><trkpt lat="53.66845074594416" lon="11.022735387973945"><ele>50.666666666666664</ele><time>2026-04-05T13:13:18.999Z</time></trkpt><trkpt lat="53.66839729090467" lon="11.02303452082756"><ele>52.0</ele><time>2026-04-05T13:13:19.999Z</time></trkpt><trkpt lat="53.66835775316813" lon="11.02332932637615"><ele>52.0</ele><time>2026-04-05T13:13:20.999Z</time></trkpt><trkpt lat="53.66828507692386" lon="11.02362006158904"><ele>52.0</ele><time>2026-04-05T13:13:21.999Z</time></trkpt><trkpt lat="53.668228717471266" lon="11.023898285485696"><ele>52.0</ele><time>2026-04-05T13:13:22.999Z</time></trkpt><trkpt lat="53.66817273751149" lon="11.024178839406359"><ele>51.33333333333333</ele><time>2026-04-05T13:13:23.999Z</time></trkpt><trkpt lat="53.66811326793045" lon="11.024424178346909"><ele>50.66666666666667</ele><time>2026-04-05T13:13:24.999Z</time></trkpt><trkpt lat="53.66804698063679" lon="11.024657783659114"><ele>50.0</ele><time>2026-04-05T13:13:25.999Z</time></trkpt><trkpt lat="53.66797465465552" lon="11.024866120658254"><ele>50.0</ele><time>2026-04-05T13:13:26.999Z</time></trkpt><trkpt lat="53.66788763481369" lon="11.02506423887495"><ele>50.0</ele><time>2026-04-05T13:13:27.999Z</time></trkpt><trkpt lat="53.667782951448245" lon="11.025260280103417"><ele>50.0</ele><time>2026-04-05T13:13:28.999Z</time></trkpt><trkpt lat="53.66767135860507" lon="11.025436260825701"><ele>50.0</ele><time>2026-04-05T13:13:29.999Z</time></trkpt><trkpt lat="53.66753858667635" lon="11.025619808026946"><ele>50.0</ele><time>2026-04-05T13:13:30.999Z</time></trkpt><trkpt lat="53.66739974366565" lon="11.025813508707808"><ele>50.0</ele><time>2026-04-05T13:13:31.999Z</time></trkpt><trkpt lat="53.66727001522887" lon="11.026055532597894"><ele>50.0</ele><time>2026-04-05T13:13:32.999Z</time></trkpt><trkpt lat="53.66716742060557" lon="11.026329236756286"><ele>50.0</ele><time>2026-04-05T13:13:33.999Z</time></trkpt><trkpt lat="53.66708772094294" lon="11.026607903094025"><ele>50.0</ele><time>2026-04-05T13:13:34.999Z</time></trkpt><trkpt lat="53.667016157236894" lon="11.026885282854177"><ele>50.333333333333336</ele><time>2026-04-05T13:13:35.999Z</time></trkpt><trkpt lat="53.666944924259504" lon="11.027157385360082"><ele>50.66666666666667</ele><time>2026-04-05T13:13:36.999Z</time></trkpt><trkpt lat="53.666868707864076" lon="11.027441533233139"><ele>51.0</ele><time>2026-04-05T13:13:37.999Z</time></trkpt><trkpt lat="53.66679227553256" lon="11.027731268140059"><ele>51.0</ele><time>2026-04-05T13:13:38.999Z</time></trkpt><trkpt lat="53.666721313228216" lon="11.028003544058063"><ele>51.0</ele><time>2026-04-05T13:13:39.999Z</time></trkpt><trkpt lat="53.666650772386056" lon="11.028271719628888"><ele>51.0</ele><time>2026-04-05T13:13:40.999Z</time></trkpt><trkpt lat="53.66658446765904" lon="11.028510339348932"><ele>51.0</ele><time>2026-04-05T13:13:41.999Z</time></trkpt><trkpt lat="53.66651303788206" lon="11.028741000567962"><ele>51.0</ele><time>2026-04-05T13:13:42.999Z</time></trkpt><trkpt lat="53.666431097208864" lon="11.0289505288896"><ele>51.0</ele><time>2026-04-05T13:13:43.999Z</time></trkpt><trkpt lat="53.666432050842594" lon="11.029229372124027"><ele>51.0</ele><time>2026-04-05T13:13:44.999Z</time></trkpt><trkpt lat="53.66643812912552" lon="11.029455686179677"><ele>51.0</ele><time>2026-04-05T13:13:45.999Z</time></trkpt><trkpt lat="53.66647199477176" lon="11.029695691668772"><ele>51.0</ele><time>2026-04-05T13:13:46.999Z</time></trkpt><trkpt lat="53.666498034933596" lon="11.029972185549104"><ele>51.0</ele><time>2026-04-05T13:13:47.999Z</time></trkpt><trkpt lat="53.666508327623994" lon="11.030200974909157"><ele>51.0</ele><time>2026-04-05T13:13:48.999Z</time></trkpt><trkpt lat="53.66654578836515" lon="11.030433248042588"><ele>51.0</ele><time>2026-04-05T13:13:49.999Z</time></trkpt><trkpt lat="53.666569720720254" lon="11.030717428489607"><ele>51.0</ele><time>2026-04-05T13:13:50.999Z</time></trkpt><trkpt lat="53.666614770010085" lon="11.030935211350059"><ele>51.0</ele><time>2026-04-05T13:13:51.999Z</time></trkpt><trkpt lat="53.666631623603976" lon="11.031165340187435"><ele>51.25</ele><time>2026-04-05T13:13:52.999Z</time></trkpt><trkpt lat="53.66666389925637" lon="11.031379755319742"><ele>51.5</ele><time>2026-04-05T13:13:53.999Z</time></trkpt><trkpt lat="53.66670138308798" lon="11.03157416662014"><ele>51.75</ele><time>2026-04-05T13:13:54.999Z</time></trkpt><trkpt lat="53.66672881897816" lon="11.031793088153503"><ele>52.0</ele><time>2026-04-05T13:13:55.999Z</time></trkpt><trkpt lat="53.66676957679705" lon="11.032016405526635"><ele>52.75</ele><time>2026-04-05T13:13:56.999Z</time></trkpt><trkpt lat="53.666786408199975" lon="11.032242337608531"><ele>53.5</ele><time>2026-04-05T13:13:57.999Z</time></trkpt><trkpt lat="53.66680743471282" lon="11.032487854570082"><ele>54.25</ele><time>2026-04-05T13:13:58.999Z</time></trkpt><trkpt lat="53.666824416109414" lon="11.032736362548663"><ele>55.0</ele><time>2026-04-05T13:13:59.999Z</time></trkpt><trkpt lat="53.66684688590699" lon="11.032970747166209"><ele>55.5</ele><time>2026-04-05T13:14:00.999Z</time></trkpt><trkpt lat="53.66686908120085" lon="11.033208209322009"><ele>56.0</ele><time>2026-04-05T13:14:01.999Z</time></trkpt><trkpt lat="53.66688225081528" lon="11.033442613769168"><ele>56.5</ele><time>2026-04-05T13:14:02.999Z</time></trkpt><trkpt lat="53.666894409038534" lon="11.033668769520563"><ele>57.0</ele><time>2026-04-05T13:14:03.999Z</time></trkpt><trkpt lat="53.6669060620162" lon="11.03389763292539"><ele>57.0</ele><time>2026-04-05T13:14:04.999Z</time></trkpt><trkpt lat="53.666916249383384" lon="11.03413720498531"><ele>57.0</ele><time>2026-04-05T13:14:05.999Z</time></trkpt><trkpt lat="53.666925864188926" lon="11.034383102541073"><ele>57.0</ele><time>2026-04-05T13:14:06.999Z</time></trkpt><trkpt lat="53.66693527615084" lon="11.034639922730499"><ele>57.0</ele><time>2026-04-05T13:14:07.999Z</time></trkpt><trkpt lat="53.666945552932106" lon="11.034892563565169"><ele>55.66666666666667</ele><time>2026-04-05T13:14:08.999Z</time></trkpt><trkpt lat="53.666957310970034" lon="11.035155183819326"><ele>54.333333333333336</ele><time>2026-04-05T13:14:09.999Z</time></trkpt><trkpt lat="53.66696907555988" lon="11.035447635588222"><ele>53.0</ele><time>2026-04-05T13:14:10.999Z</time></trkpt><trkpt lat="53.66697724510036" lon="11.035723367388435"><ele>53.66666666666667</ele><time>2026-04-05T13:14:11.999Z</time></trkpt><trkpt lat="53.666983705355776" lon="11.036000929618705"><ele>54.33333333333333</ele><time>2026-04-05T13:14:12.999Z</time></trkpt><trkpt lat="53.666990419952164" lon="11.036306215089121"><ele>55.0</ele><time>2026-04-05T13:14:13.999Z</time></trkpt><trkpt lat="53.66699820308357" lon="11.036567413582853"><ele>54.666666666666664</ele><time>2026-04-05T13:14:14.999Z</time></trkpt><trkpt lat="53.66700816728841" lon="11.036881150266241"><ele>54.33333333333333</ele><time>2026-04-05T13:14:15.999Z</time></trkpt><trkpt lat="53.66701777487104" lon="11.037196923622494"><ele>54.0</ele><time>2026-04-05T13:14:16.999Z</time></trkpt><trkpt lat="53.667026318956815" lon="11.037501928174809"><ele>53.66666666666667</ele><time>2026-04-05T13:14:17.999Z</time></trkpt><trkpt lat="53.66703422630669" lon="11.037804702294931"><ele>53.333333333333336</ele><time>2026-04-05T13:14:18.999Z</time></trkpt><trkpt lat="53.66704227192415" lon="11.038136329199652"><ele>53.0</ele><time>2026-04-05T13:14:19.999Z</time></trkpt><trkpt lat="53.66705225291963" lon="11.038481385423239"><ele>53.0</ele><time>2026-04-05T13:14:20.999Z</time></trkpt><trkpt lat="53.66706408765462" lon="11.038850926212731"><ele>53.0</ele><time>2026-04-05T13:14:21.999Z</time></trkpt><trkpt lat="53.66707671459457" lon="11.039224583030178"><ele>53.0</ele><time>2026-04-05T13:14:22.999Z</time></trkpt><trkpt lat="53.667085329041655" lon="11.039560135461652"><ele>53.0</ele><time>2026-04-05T13:14:23.999Z</time></trkpt><trkpt lat="53.66707785762442" lon="11.03990423998591"><ele>53.0</ele><time>2026-04-05T13:14:24.999Z</time></trkpt><trkpt lat="53.667060401389556" lon="11.04022919616"><ele>53.0</ele><time>2026-04-05T13:14:25.999Z</time></trkpt><trkpt lat="53.66703665679064" lon="11.040578482193496"><ele>54.0</ele><time>2026-04-05T13:14:26.999Z</time></trkpt><trkpt lat="53.66701139818208" lon="11.040922445827505"><ele>55.0</ele><time>2026-04-05T13:14:27.999Z</time></trkpt><trkpt lat="53.66710207128072" lon="11.041320665155963"><ele>55.666666666666664</ele><time>2026-04-05T13:14:28.999Z</time></trkpt><trkpt lat="53.667058361191884" lon="11.041641014249215"><ele>56.33333333333333</ele><time>2026-04-05T13:14:29.999Z</time></trkpt><trkpt lat="53.66702669058313" lon="11.04200609342477"><ele>57.0</ele><time>2026-04-05T13:14:30.999Z</time></trkpt><trkpt lat="53.66701666898397" lon="11.042360515318641"><ele>58.0</ele><time>2026-04-05T13:14:31.999Z</time></trkpt><trkpt lat="53.66700244672015" lon="11.042705654179152"><ele>59.0</ele><time>2026-04-05T13:14:32.999Z</time></trkpt><trkpt lat="53.666986587903246" lon="11.043019143940931"><ele>60.0</ele><time>2026-04-05T13:14:33.999Z</time></trkpt><trkpt lat="53.66696106467509" lon="11.043330374330562"><ele>60.33333333333333</ele><time>2026-04-05T13:14:34.999Z</time></trkpt><trkpt lat="53.66694079202568" lon="11.043637223022055"><ele>60.666666666666664</ele><time>2026-04-05T13:14:35.999Z</time></trkpt><trkpt lat="53.666914954541554" lon="11.043930808989108"><ele>61.0</ele><time>2026-04-05T13:14:36.999Z</time></trkpt><trkpt lat="53.666894435622815" lon="11.04420199624664"><ele>61.0</ele><time>2026-04-05T13:14:37.999Z</time></trkpt><trkpt lat="53.66688467149257" lon="11.04445928174132"><ele>61.0</ele><time>2026-04-05T13:14:38.999Z</time></trkpt><trkpt lat="53.66687466053422" lon="11.044671019240024"><ele>61.0</ele><time>2026-04-05T13:14:39.999Z</time></trkpt><trkpt lat="53.666907658231295" lon="11.044841158551044"><ele>61.0</ele><time>2026-04-05T13:14:40.999Z</time></trkpt><trkpt lat="53.66692582838665" lon="11.044999478972034"><ele>60.99999999999999</ele><time>2026-04-05T13:14:41.999Z</time></trkpt><trkpt lat="53.666951991669364" lon="11.0451548052992"><ele>61.0</ele><time>2026-04-05T13:14:43.999Z</time></trkpt><trkpt lat="53.666978901835634" lon="11.045287743700134"><ele>61.0</ele><time>2026-04-05T13:14:46.999Z</time></trkpt><trkpt lat="53.66701041851403" lon="11.045383244477764"><ele>61.0</ele><time>2026-04-05T13:15:33.999Z</time></trkpt><trkpt lat="53.66694279742017" lon="11.04539037132785"><ele>60.99999999999999</ele><time>2026-04-05T13:15:55.998Z</time></trkpt><trkpt lat="53.66686998986021" lon="11.045422497685905"><ele>61.0</ele><time>2026-04-05T13:16:02.998Z</time></trkpt><trkpt lat="53.66688932077603" lon="11.045312792209108"><ele>60.99999999999999</ele><time>2026-04-05T13:16:43Z</time></trkpt><trkpt lat="53.66693811869423" lon="11.04522762697614"><ele>61.0</ele><time>2026-04-05T13:17:04Z</time></trkpt><trkpt lat="53.66696977838318" lon="11.045133910943123"><ele>60.99999999999999</ele><time>2026-04-05T13:17:27Z</time></trkpt><trkpt lat="53.66698325315114" lon="11.04501873854076"><ele>60.99999999999999</ele><time>2026-04-05T13:17:42Z</time></trkpt><trkpt lat="53.66702898238" lon="11.044902501927837"><ele>61.0</ele><time>2026-04-05T13:18:32.999Z</time></trkpt><trkpt lat="53.66704778349234" lon="11.044795029226513"><ele>60.99999999999999</ele><time>2026-04-05T13:18:46.999Z</time></trkpt><trkpt lat="53.66699480553261" lon="11.044854175658026"><ele>60.99999999999999</ele><time>2026-04-05T13:19:32.999Z</time></trkpt><trkpt lat="53.66685455900965" lon="11.044890143235204"><ele>60.99999999999999</ele><time>2026-04-05T13:23:13.998Z</time></trkpt><trkpt lat="53.66688466023935" lon="11.045001161510509"><ele>61.0</ele><time>2026-04-05T13:26:32Z</time></trkpt><trkpt lat="53.666829004016996" lon="11.0451973436174"><ele>61.0</ele><time>2026-04-05T13:28:31.999Z</time></trkpt><trkpt lat="53.666788658616674" lon="11.045279971478696"><ele>61.0</ele><time>2026-04-05T13:30:15.999Z</time></trkpt><trkpt lat="53.66679451119546" lon="11.045387127349303"><ele>60.99999999999999</ele><time>2026-04-05T13:30:39Z</time></trkpt><trkpt lat="53.66681389499688" lon="11.045283070238751"><ele>61.0</ele><time>2026-04-05T13:44:33.999Z</time></trkpt><trkpt lat="53.66683995628345" lon="11.045181390484396"><ele>60.99999999999999</ele><time>2026-04-05T13:46:47Z</time></trkpt><trkpt lat="53.66681108334697" lon="11.04508443267838"><ele>61.0</ele><time>2026-04-05T13:47:49Z</time></trkpt><trkpt lat="53.66674734711168" lon="11.045004812135021"><ele>60.99999999999999</ele><time>2026-04-05T13:50:18.999Z</time></trkpt><trkpt lat="53.666761769081695" lon="11.04487089240475"><ele>60.99999999999999</ele><time>2026-04-05T13:50:21.999Z</time></trkpt><trkpt lat="53.66681727700178" lon="11.044772622905805"><ele>61.0</ele><time>2026-04-05T13:50:23.999Z</time></trkpt><trkpt lat="53.66682644118776" lon="11.044666848937332"><ele>60.99999999999999</ele><time>2026-04-05T13:50:24.999Z</time></trkpt><trkpt lat="53.666827963449144" lon="11.044545971376948"><ele>60.99999999999999</ele><time>2026-04-05T13:50:25.999Z</time></trkpt><trkpt lat="53.66687787973212" lon="11.0443989712373"><ele>61.0</ele><time>2026-04-05T13:50:26.999Z</time></trkpt><trkpt lat="53.666866147605425" lon="11.04426551063884"><ele>60.99999999999999</ele><time>2026-04-05T13:50:27.999Z</time></trkpt><trkpt lat="53.666859635322574" lon="11.044120928951891"><ele>60.99999999999999</ele><time>2026-04-05T13:50:28.999Z</time></trkpt><trkpt lat="53.66685337789604" lon="11.043961916034313"><ele>61.0</ele><time>2026-04-05T13:50:29.999Z</time></trkpt><trkpt lat="53.66685425548677" lon="11.043776753830052"><ele>61.0</ele><time>2026-04-05T13:50:30.999Z</time></trkpt><trkpt lat="53.666874518647504" lon="11.043560969696955"><ele>61.0</ele><time>2026-04-05T13:50:31.999Z</time></trkpt><trkpt lat="53.66687371896934" lon="11.043334449186984"><ele>61.0</ele><time>2026-04-05T13:50:32.999Z</time></trkpt><trkpt lat="53.66689278268152" lon="11.043089082724867"><ele>61.0</ele><time>2026-04-05T13:50:33.999Z</time></trkpt><trkpt lat="53.666911328010144" lon="11.04283125363102"><ele>61.0</ele><time>2026-04-05T13:50:34.999Z</time></trkpt><trkpt lat="53.666944775000985" lon="11.042575454701462"><ele>59.666666666666664</ele><time>2026-04-05T13:50:35.999Z</time></trkpt><trkpt lat="53.66696057450519" lon="11.042299822849404"><ele>58.33333333333333</ele><time>2026-04-05T13:50:36.999Z</time></trkpt><trkpt lat="53.66697344377434" lon="11.042016664594128"><ele>57.0</ele><time>2026-04-05T13:50:37.999Z</time></trkpt><trkpt lat="53.66697268106344" lon="11.041742615310813"><ele>56.33333333333333</ele><time>2026-04-05T13:50:38.999Z</time></trkpt><trkpt lat="53.66699527198429" lon="11.041452331092827"><ele>55.666666666666664</ele><time>2026-04-05T13:50:39.999Z</time></trkpt><trkpt lat="53.667015116783254" lon="11.041159449647632"><ele>55.0</ele><time>2026-04-05T13:50:40.999Z</time></trkpt><trkpt lat="53.66703383301226" lon="11.040870372359139"><ele>55.0</ele><time>2026-04-05T13:50:41.999Z</time></trkpt><trkpt lat="53.66706235274201" lon="11.040601508819334"><ele>55.0</ele><time>2026-04-05T13:50:42.999Z</time></trkpt><trkpt lat="53.66708816003934" lon="11.040325250980878"><ele>55.0</ele><time>2026-04-05T13:50:43.999Z</time></trkpt><trkpt lat="53.66710276411802" lon="11.03999356411786"><ele>54.33333333333333</ele><time>2026-04-05T13:50:44.999Z</time></trkpt><trkpt lat="53.667108492753506" lon="11.039667924712127"><ele>53.66666666666667</ele><time>2026-04-05T13:50:45.999Z</time></trkpt><trkpt lat="53.66711466895193" lon="11.039363205739642"><ele>53.0</ele><time>2026-04-05T13:50:46.999Z</time></trkpt><trkpt lat="53.66709685668047" lon="11.039089218238713"><ele>53.0</ele><time>2026-04-05T13:50:47.999Z</time></trkpt><trkpt lat="53.66708831848562" lon="11.038809892031146"><ele>53.0</ele><time>2026-04-05T13:50:48.999Z</time></trkpt><trkpt lat="53.66707836908829" lon="11.038528659165447"><ele>53.0</ele><time>2026-04-05T13:50:49.999Z</time></trkpt><trkpt lat="53.66706308319928" lon="11.038254198406971"><ele>53.0</ele><time>2026-04-05T13:50:50.999Z</time></trkpt><trkpt lat="53.6670718000396" lon="11.037982042450093"><ele>53.0</ele><time>2026-04-05T13:50:51.999Z</time></trkpt><trkpt lat="53.6670646278863" lon="11.037686418223187"><ele>53.0</ele><time>2026-04-05T13:50:52.999Z</time></trkpt><trkpt lat="53.66705664400553" lon="11.037396425665863"><ele>53.25</ele><time>2026-04-05T13:50:53.999Z</time></trkpt><trkpt lat="53.667037217132275" lon="11.037149745148131"><ele>53.5</ele><time>2026-04-05T13:50:54.999Z</time></trkpt><trkpt lat="53.66704247483407" lon="11.03691315590748"><ele>53.75</ele><time>2026-04-05T13:50:55.999Z</time></trkpt><trkpt lat="53.667046309905736" lon="11.036645112509433"><ele>54.0</ele><time>2026-04-05T13:50:56.999Z</time></trkpt><trkpt lat="53.66703336171853" lon="11.036356381048108"><ele>54.33333333333333</ele><time>2026-04-05T13:50:57.999Z</time></trkpt><trkpt lat="53.66700707520024" lon="11.036055563741058"><ele>54.666666666666664</ele><time>2026-04-05T13:50:58.999Z</time></trkpt><trkpt lat="53.66699660350366" lon="11.03577763981902"><ele>55.0</ele><time>2026-04-05T13:50:59.999Z</time></trkpt><trkpt lat="53.66699231711909" lon="11.035493373154678"><ele>54.33333333333333</ele><time>2026-04-05T13:51:00.999Z</time></trkpt><trkpt lat="53.66699392781134" lon="11.035228420734507"><ele>53.66666666666667</ele><time>2026-04-05T13:51:01.999Z</time></trkpt><trkpt lat="53.66698185841779" lon="11.034958846346417"><ele>53.0</ele><time>2026-04-05T13:51:02.999Z</time></trkpt><trkpt lat="53.666970818328366" lon="11.034700918396632"><ele>52.66666666666667</ele><time>2026-04-05T13:51:03.999Z</time></trkpt><trkpt lat="53.66696009351818" lon="11.034408275889499"><ele>52.33333333333333</ele><time>2026-04-05T13:51:04.999Z</time></trkpt><trkpt lat="53.6669472142254" lon="11.034081161907858"><ele>52.0</ele><time>2026-04-05T13:51:05.999Z</time></trkpt><trkpt lat="53.66693358743158" lon="11.033782934240158"><ele>53.666666666666664</ele><time>2026-04-05T13:51:06.999Z</time></trkpt><trkpt lat="53.66691798985587" lon="11.033484389741457"><ele>55.33333333333333</ele><time>2026-04-05T13:51:07.999Z</time></trkpt><trkpt lat="53.6669005827493" lon="11.033174561643015"><ele>57.0</ele><time>2026-04-05T13:51:08.999Z</time></trkpt><trkpt lat="53.66688005296924" lon="11.032865604646526"><ele>57.0</ele><time>2026-04-05T13:51:09.999Z</time></trkpt><trkpt lat="53.6668561380079" lon="11.03256774162902"><ele>57.0</ele><time>2026-04-05T13:51:10.999Z</time></trkpt><trkpt lat="53.666821936593834" lon="11.032253690039191"><ele>57.0</ele><time>2026-04-05T13:51:11.999Z</time></trkpt><trkpt lat="53.666781979323055" lon="11.03195271643185"><ele>56.33333333333333</ele><time>2026-04-05T13:51:12.999Z</time></trkpt><trkpt lat="53.66674095436091" lon="11.031663822698908"><ele>55.666666666666664</ele><time>2026-04-05T13:51:13.999Z</time></trkpt><trkpt lat="53.66669761707024" lon="11.031390674343204"><ele>55.0</ele><time>2026-04-05T13:51:14.999Z</time></trkpt><trkpt lat="53.666656159190104" lon="11.03110202314908"><ele>53.666666666666664</ele><time>2026-04-05T13:51:15.999Z</time></trkpt><trkpt lat="53.66661163759677" lon="11.030782749322627"><ele>52.33333333333333</ele><time>2026-04-05T13:51:16.999Z</time></trkpt><trkpt lat="53.66657145588486" lon="11.030455236945166"><ele>51.0</ele><time>2026-04-05T13:51:17.999Z</time></trkpt><trkpt lat="53.66653403190473" lon="11.030125458669897"><ele>50.66666666666667</ele><time>2026-04-05T13:51:18.999Z</time></trkpt><trkpt lat="53.66650177549728" lon="11.029817692592324"><ele>50.333333333333336</ele><time>2026-04-05T13:51:19.999Z</time></trkpt><trkpt lat="53.666477528095434" lon="11.029554336104548"><ele>50.0</ele><time>2026-04-05T13:51:20.999Z</time></trkpt><trkpt lat="53.66646695883014" lon="11.02929747989079"><ele>50.2</ele><time>2026-04-05T13:51:21.999Z</time></trkpt><trkpt lat="53.66645024927548" lon="11.029083390763736"><ele>50.4</ele><time>2026-04-05T13:51:22.999Z</time></trkpt><trkpt lat="53.66646290244295" lon="11.028967658851904"><ele>50.599999999999994</ele><time>2026-04-05T13:51:23.999Z</time></trkpt><trkpt lat="53.666526621483015" lon="11.028816708310048"><ele>50.8</ele><time>2026-04-05T13:51:24.999Z</time></trkpt><trkpt lat="53.666590567349864" lon="11.028613096538031"><ele>51.0</ele><time>2026-04-05T13:51:25.999Z</time></trkpt><trkpt lat="53.66664935175417" lon="11.028410571664569"><ele>51.25</ele><time>2026-04-05T13:51:26.999Z</time></trkpt><trkpt lat="53.66670723439394" lon="11.028196858697537"><ele>51.5</ele><time>2026-04-05T13:51:27.999Z</time></trkpt><trkpt lat="53.66675080795691" lon="11.027987378915226"><ele>51.75</ele><time>2026-04-05T13:51:28.999Z</time></trkpt><trkpt lat="53.66680393616355" lon="11.027771213930107"><ele>52.0</ele><time>2026-04-05T13:51:29.999Z</time></trkpt><trkpt lat="53.66686336429807" lon="11.027599077626569"><ele>51.666666666666664</ele><time>2026-04-05T13:51:30.999Z</time></trkpt><trkpt lat="53.66692326228014" lon="11.027374138090313"><ele>51.33333333333333</ele><time>2026-04-05T13:51:31.999Z</time></trkpt><trkpt lat="53.66699028625605" lon="11.027124260830202"><ele>51.0</ele><time>2026-04-05T13:51:32.999Z</time></trkpt><trkpt lat="53.667053358499466" lon="11.026869125571363"><ele>50.66666666666667</ele><time>2026-04-05T13:51:33.999Z</time></trkpt><trkpt lat="53.667130524461854" lon="11.026584568422017"><ele>50.333333333333336</ele><time>2026-04-05T13:51:34.999Z</time></trkpt><trkpt lat="53.66719098002775" lon="11.026330790247162"><ele>50.0</ele><time>2026-04-05T13:51:35.999Z</time></trkpt><trkpt lat="53.66728328136328" lon="11.02611961859044"><ele>50.0</ele><time>2026-04-05T13:51:36.999Z</time></trkpt><trkpt lat="53.667370614889876" lon="11.02591362004841"><ele>50.0</ele><time>2026-04-05T13:51:37.999Z</time></trkpt><trkpt lat="53.66749178735444" lon="11.02575272813358"><ele>50.0</ele><time>2026-04-05T13:51:38.999Z</time></trkpt><trkpt lat="53.66761269129313" lon="11.025567807964403"><ele>50.0</ele><time>2026-04-05T13:51:39.999Z</time></trkpt><trkpt lat="53.667748803001004" lon="11.025393347560293"><ele>50.0</ele><time>2026-04-05T13:51:40.999Z</time></trkpt><trkpt lat="53.667878970462134" lon="11.025168046570354"><ele>50.0</ele><time>2026-04-05T13:51:41.999Z</time></trkpt><trkpt lat="53.667988538821724" lon="11.024932050864946"><ele>50.0</ele><time>2026-04-05T13:51:43Z</time></trkpt><trkpt lat="53.6680829415024" lon="11.024662082538894"><ele>50.0</ele><time>2026-04-05T13:51:44Z</time></trkpt><trkpt lat="53.66815641735169" lon="11.02439970163217"><ele>50.0</ele><time>2026-04-05T13:51:45Z</time></trkpt><trkpt lat="53.6682112678153" lon="11.024164346055171"><ele>50.66666666666667</ele><time>2026-04-05T13:51:46Z</time></trkpt><trkpt lat="53.66826292499695" lon="11.023902811545957"><ele>51.33333333333333</ele><time>2026-04-05T13:51:47Z</time></trkpt><trkpt lat="53.66831299431164" lon="11.023655639407277"><ele>52.0</ele><time>2026-04-05T13:51:48Z</time></trkpt><trkpt lat="53.66836673959093" lon="11.023382555638152"><ele>52.0</ele><time>2026-04-05T13:51:49Z</time></trkpt><trkpt lat="53.66841774029759" lon="11.023113993168717"><ele>52.0</ele><time>2026-04-05T13:51:50Z</time></trkpt><trkpt lat="53.668450188530784" lon="11.022844938963456"><ele>52.0</ele><time>2026-04-05T13:51:51Z</time></trkpt><trkpt lat="53.66851775548793" lon="11.022568514834422"><ele>51.666666666666664</ele><time>2026-04-05T13:51:52Z</time></trkpt><trkpt lat="53.66858231172888" lon="11.022301777300143"><ele>51.33333333333333</ele><time>2026-04-05T13:51:53Z</time></trkpt><trkpt lat="53.66865191919494" lon="11.022029188182902"><ele>51.0</ele><time>2026-04-05T13:51:54Z</time></trkpt><trkpt lat="53.66871049714225" lon="11.021762277368119"><ele>50.0</ele><time>2026-04-05T13:51:55Z</time></trkpt><trkpt lat="53.66876319483878" lon="11.02149414580588"><ele>49.0</ele><time>2026-04-05T13:51:56Z</time></trkpt><trkpt lat="53.66881047040945" lon="11.021226915458893"><ele>48.0</ele><time>2026-04-05T13:51:57Z</time></trkpt><trkpt lat="53.668847455231685" lon="11.020950079623164"><ele>48.0</ele><time>2026-04-05T13:51:58Z</time></trkpt><trkpt lat="53.66891241074004" lon="11.02066207022342"><ele>48.0</ele><time>2026-04-05T13:51:59Z</time></trkpt><trkpt lat="53.668969753848145" lon="11.020363590654718"><ele>48.0</ele><time>2026-04-05T13:52:00Z</time></trkpt><trkpt lat="53.669030898242" lon="11.020052374496393"><ele>48.66666666666667</ele><time>2026-04-05T13:52:01Z</time></trkpt><trkpt lat="53.6691228693568" lon="11.019782755139463"><ele>49.333333333333336</ele><time>2026-04-05T13:52:02Z</time></trkpt><trkpt lat="53.66921649412281" lon="11.019512281746943"><ele>50.0</ele><time>2026-04-05T13:52:03Z</time></trkpt><trkpt lat="53.669299682419044" lon="11.019246701405862"><ele>50.0</ele><time>2026-04-05T13:52:04Z</time></trkpt><trkpt lat="53.669382268447066" lon="11.018965136138643"><ele>50.0</ele><time>2026-04-05T13:52:05Z</time></trkpt><trkpt lat="53.669454921394866" lon="11.01871438538056"><ele>50.0</ele><time>2026-04-05T13:52:06Z</time></trkpt><trkpt lat="53.6695323713591" lon="11.0184407400991"><ele>50.0</ele><time>2026-04-05T13:52:07Z</time></trkpt><trkpt lat="53.669601689162675" lon="11.018187472930801"><ele>50.0</ele><time>2026-04-05T13:52:08Z</time></trkpt><trkpt lat="53.66966465396303" lon="11.017957199272848"><ele>50.0</ele><time>2026-04-05T13:52:09Z</time></trkpt><trkpt lat="53.669716199664364" lon="11.017752319505139"><ele>50.0</ele><time>2026-04-05T13:52:10Z</time></trkpt><trkpt lat="53.66977075133223" lon="11.01755791806959"><ele>49.66666666666667</ele><time>2026-04-05T13:52:11Z</time></trkpt><trkpt lat="53.66982243005096" lon="11.017458088948866"><ele>49.333333333333336</ele><time>2026-04-05T13:52:12Z</time></trkpt><trkpt lat="53.66989070658331" lon="11.01742555641025"><ele>49.0</ele><time>2026-04-05T13:52:13Z</time></trkpt><trkpt lat="53.66997817108845" lon="11.01741192489949"><ele>48.66666666666667</ele><time>2026-04-05T13:52:14Z</time></trkpt><trkpt lat="53.67008031421386" lon="11.017379407206878"><ele>48.333333333333336</ele><time>2026-04-05T13:52:15Z</time></trkpt><trkpt lat="53.67017096388418" lon="11.017328660694941"><ele>48.0</ele><time>2026-04-05T13:52:16Z</time></trkpt><trkpt lat="53.67027194204123" lon="11.017325217683887"><ele>48.75</ele><time>2026-04-05T13:52:17Z</time></trkpt><trkpt lat="53.670366164099015" lon="11.017272648551812"><ele>49.5</ele><time>2026-04-05T13:52:18Z</time></trkpt><trkpt lat="53.67048337151043" lon="11.017237336317603"><ele>50.25</ele><time>2026-04-05T13:52:19Z</time></trkpt><trkpt lat="53.67059401884442" lon="11.017213633333144"><ele>51.0</ele><time>2026-04-05T13:52:20Z</time></trkpt><trkpt lat="53.670717456292934" lon="11.017173393340952"><ele>51.0</ele><time>2026-04-05T13:52:21Z</time></trkpt><trkpt lat="53.670835908959546" lon="11.017127032187974"><ele>51.0</ele><time>2026-04-05T13:52:22Z</time></trkpt><trkpt lat="53.670960885398124" lon="11.017085859451388"><ele>51.0</ele><time>2026-04-05T13:52:23Z</time></trkpt><trkpt lat="53.67109375738333" lon="11.017044990981748"><ele>51.0</ele><time>2026-04-05T13:52:24Z</time></trkpt><trkpt lat="53.67122834740965" lon="11.01701819292375"><ele>51.0</ele><time>2026-04-05T13:52:25Z</time></trkpt><trkpt lat="53.67135325049727" lon="11.016936541087572"><ele>51.0</ele><time>2026-04-05T13:52:26Z</time></trkpt><trkpt lat="53.67149189712388" lon="11.016903205750086"><ele>51.0</ele><time>2026-04-05T13:52:27Z</time></trkpt><trkpt lat="53.671632889921895" lon="11.016810796031997"><ele>51.0</ele><time>2026-04-05T13:52:28Z</time></trkpt><trkpt lat="53.671784455639965" lon="11.016718132127842"><ele>50.66666666666667</ele><time>2026-04-05T13:52:29Z</time></trkpt><trkpt lat="53.67194321101088" lon="11.01663333136083"><ele>50.333333333333336</ele><time>2026-04-05T13:52:30Z</time></trkpt><trkpt lat="53.67209955433195" lon="11.016523612285074"><ele>50.0</ele><time>2026-04-05T13:52:31Z</time></trkpt><trkpt lat="53.67225807232729" lon="11.016396260054785"><ele>50.0</ele><time>2026-04-05T13:52:32Z</time></trkpt><trkpt lat="53.67240140564905" lon="11.016299832045288"><ele>50.0</ele><time>2026-04-05T13:52:33Z</time></trkpt><trkpt lat="53.67254547011348" lon="11.016151302533993"><ele>50.0</ele><time>2026-04-05T13:52:34Z</time></trkpt><trkpt lat="53.67269822801484" lon="11.016030750298722"><ele>50.0</ele><time>2026-04-05T13:52:35Z</time></trkpt><trkpt lat="53.67283018169337" lon="11.015871589163524"><ele>50.0</ele><time>2026-04-05T13:52:36Z</time></trkpt><trkpt lat="53.6729750216488" lon="11.015676287133541"><ele>50.0</ele><time>2026-04-05T13:52:37Z</time></trkpt><trkpt lat="53.67312064528365" lon="11.015478647674945"><ele>50.0</ele><time>2026-04-05T13:52:38Z</time></trkpt><trkpt lat="53.67326105825998" lon="11.015308674372765"><ele>50.0</ele><time>2026-04-05T13:52:39Z</time></trkpt><trkpt lat="53.67338302952518" lon="11.015143817639387"><ele>50.0</ele><time>2026-04-05T13:52:40Z</time></trkpt><trkpt lat="53.673507114573454" lon="11.014974656765883"><ele>49.5</ele><time>2026-04-05T13:52:41Z</time></trkpt><trkpt lat="53.67361179049072" lon="11.014817025078573"><ele>49.0</ele><time>2026-04-05T13:52:42Z</time></trkpt><trkpt lat="53.673722590860976" lon="11.014689820365783"><ele>48.5</ele><time>2026-04-05T13:52:43Z</time></trkpt><trkpt lat="53.67383766569279" lon="11.014555126430885"><ele>48.0</ele><time>2026-04-05T13:52:44Z</time></trkpt><trkpt lat="53.67395419818346" lon="11.01442676719948"><ele>48.0</ele><time>2026-04-05T13:52:45Z</time></trkpt><trkpt lat="53.67407957692192" lon="11.014329358378268"><ele>48.0</ele><time>2026-04-05T13:52:46Z</time></trkpt><trkpt lat="53.67421693602393" lon="11.014260759335315"><ele>48.0</ele><time>2026-04-05T13:52:47Z</time></trkpt><trkpt lat="53.67436064646372" lon="11.014211091015518"><ele>48.0</ele><time>2026-04-05T13:52:48Z</time></trkpt><trkpt lat="53.674516061537936" lon="11.014230549247356"><ele>48.75</ele><time>2026-04-05T13:52:49Z</time></trkpt><trkpt lat="53.67466185769035" lon="11.014270239484812"><ele>49.5</ele><time>2026-04-05T13:52:50Z</time></trkpt><trkpt lat="53.674794750254726" lon="11.014378012330416"><ele>50.25</ele><time>2026-04-05T13:52:51Z</time></trkpt><trkpt lat="53.674923329572295" lon="11.014514663981915"><ele>51.0</ele><time>2026-04-05T13:52:52Z</time></trkpt><trkpt lat="53.67504617226377" lon="11.01465331525307"><ele>51.0</ele><time>2026-04-05T13:52:53Z</time></trkpt><trkpt lat="53.67517095968016" lon="11.014787515737657"><ele>51.0</ele><time>2026-04-05T13:52:54Z</time></trkpt><trkpt lat="53.675299866362884" lon="11.014911107624878"><ele>51.0</ele><time>2026-04-05T13:52:55Z</time></trkpt><trkpt lat="53.67542851878484" lon="11.01503461376907"><ele>51.0</ele><time>2026-04-05T13:52:56Z</time></trkpt><trkpt lat="53.675545078339695" lon="11.015102761640444"><ele>51.0</ele><time>2026-04-05T13:52:57Z</time></trkpt><trkpt lat="53.6756808127772" lon="11.01519142835044"><ele>51.0</ele><time>2026-04-05T13:52:58Z</time></trkpt><trkpt lat="53.67581813677603" lon="11.015241294517073"><ele>51.0</ele><time>2026-04-05T13:52:59Z</time></trkpt><trkpt lat="53.67596935167852" lon="11.015270338469797"><ele>51.0</ele><time>2026-04-05T13:53:00Z</time></trkpt><trkpt lat="53.67613501782969" lon="11.015230493250845"><ele>51.0</ele><time>2026-04-05T13:53:01Z</time></trkpt><trkpt lat="53.676297026206875" lon="11.015197604479667"><ele>51.0</ele><time>2026-04-05T13:53:02Z</time></trkpt><trkpt lat="53.67643995601064" lon="11.015120714912152"><ele>51.0</ele><time>2026-04-05T13:53:03Z</time></trkpt><trkpt lat="53.67657682909371" lon="11.01503403415055"><ele>51.66666666666667</ele><time>2026-04-05T13:53:04Z</time></trkpt><trkpt lat="53.67671042920196" lon="11.014905261799385"><ele>52.333333333333336</ele><time>2026-04-05T13:53:05Z</time></trkpt><trkpt lat="53.676842547025174" lon="11.014757522095072"><ele>53.0</ele><time>2026-04-05T13:53:06Z</time></trkpt><trkpt lat="53.67695217068727" lon="11.014617067251388"><ele>53.0</ele><time>2026-04-05T13:53:07Z</time></trkpt><trkpt lat="53.6770834285565" lon="11.014499963623019"><ele>53.0</ele><time>2026-04-05T13:53:08Z</time></trkpt><trkpt lat="53.677207629482" lon="11.014371744879597"><ele>53.0</ele><time>2026-04-05T13:53:09Z</time></trkpt><trkpt lat="53.677323059880564" lon="11.014220237098547"><ele>53.0</ele><time>2026-04-05T13:53:10Z</time></trkpt><trkpt lat="53.67742994230218" lon="11.014056293581486"><ele>53.25</ele><time>2026-04-05T13:53:11Z</time></trkpt><trkpt lat="53.6775270613127" lon="11.013929902724028"><ele>53.5</ele><time>2026-04-05T13:53:11.999Z</time></trkpt><trkpt lat="53.6776389378097" lon="11.013783785438278"><ele>53.75</ele><time>2026-04-05T13:53:12.999Z</time></trkpt><trkpt lat="53.677750029310985" lon="11.013638691877441"><ele>54.0</ele><time>2026-04-05T13:53:13.999Z</time></trkpt><trkpt lat="53.677872397331186" lon="11.013478870951445"><ele>53.66666666666667</ele><time>2026-04-05T13:53:14.999Z</time></trkpt><trkpt lat="53.677999374600184" lon="11.013313839458997"><ele>53.333333333333336</ele><time>2026-04-05T13:53:15.999Z</time></trkpt><trkpt lat="53.67813894287263" lon="11.013134683449977"><ele>53.0</ele><time>2026-04-05T13:53:16.999Z</time></trkpt><trkpt lat="53.67826797437566" lon="11.012965812194539"><ele>53.0</ele><time>2026-04-05T13:53:17.999Z</time></trkpt><trkpt lat="53.678387161028375" lon="11.01280938103007"><ele>53.0</ele><time>2026-04-05T13:53:18.999Z</time></trkpt><trkpt lat="53.67852705409842" lon="11.012659661542733"><ele>53.0</ele><time>2026-04-05T13:53:19.999Z</time></trkpt><trkpt lat="53.67865230245355" lon="11.012494795672172"><ele>52.66666666666667</ele><time>2026-04-05T13:53:20.999Z</time></trkpt><trkpt lat="53.67877151496111" lon="11.012338628014065"><ele>52.33333333333333</ele><time>2026-04-05T13:53:21.999Z</time></trkpt><trkpt lat="53.67888583479279" lon="11.01216460629528"><ele>52.0</ele><time>2026-04-05T13:53:22.999Z</time></trkpt><trkpt lat="53.67901927088416" lon="11.012047704894657"><ele>52.0</ele><time>2026-04-05T13:53:23.999Z</time></trkpt><trkpt lat="53.67914158587494" lon="11.011877857382123"><ele>52.0</ele><time>2026-04-05T13:53:24.999Z</time></trkpt><trkpt lat="53.67925715902183" lon="11.011695392016005"><ele>52.0</ele><time>2026-04-05T13:53:25.999Z</time></trkpt><trkpt lat="53.679404555253036" lon="11.011508571285287"><ele>51.666666666666664</ele><time>2026-04-05T13:53:26.999Z</time></trkpt><trkpt lat="53.67954731527421" lon="11.01136194897132"><ele>51.33333333333333</ele><time>2026-04-05T13:53:27.999Z</time></trkpt><trkpt lat="53.67969418357648" lon="11.011206790563241"><ele>51.0</ele><time>2026-04-05T13:53:28.999Z</time></trkpt><trkpt lat="53.67983843253678" lon="11.011074815188477"><ele>51.0</ele><time>2026-04-05T13:53:29.999Z</time></trkpt><trkpt lat="53.67996768256021" lon="11.01093147026452"><ele>51.0</ele><time>2026-04-05T13:53:30.999Z</time></trkpt><trkpt lat="53.68009885295356" lon="11.010779780898435"><ele>51.0</ele><time>2026-04-05T13:53:31.999Z</time></trkpt><trkpt lat="53.68021712179341" lon="11.010614738664815"><ele>52.0</ele><time>2026-04-05T13:53:32.999Z</time></trkpt><trkpt lat="53.680348047029916" lon="11.010493244925293"><ele>53.0</ele><time>2026-04-05T13:53:33.999Z</time></trkpt><trkpt lat="53.680468173418085" lon="11.010332684332171"><ele>54.0</ele><time>2026-04-05T13:53:34.999Z</time></trkpt><trkpt lat="53.68058675921533" lon="11.01017487564688"><ele>54.0</ele><time>2026-04-05T13:53:35.999Z</time></trkpt><trkpt lat="53.68071040399453" lon="11.010006164452847"><ele>54.0</ele><time>2026-04-05T13:53:36.999Z</time></trkpt><trkpt lat="53.68082283593195" lon="11.009856946049675"><ele>54.0</ele><time>2026-04-05T13:53:37.999Z</time></trkpt><trkpt lat="53.68094394936699" lon="11.009731588069238"><ele>54.0</ele><time>2026-04-05T13:53:38.999Z</time></trkpt><trkpt lat="53.6810732730109" lon="11.00958236743496"><ele>54.0</ele><time>2026-04-05T13:53:39.999Z</time></trkpt><trkpt lat="53.681207383242366" lon="11.009444169774353"><ele>54.0</ele><time>2026-04-05T13:53:40.999Z</time></trkpt><trkpt lat="53.68133477984481" lon="11.009299251210978"><ele>54.0</ele><time>2026-04-05T13:53:41.999Z</time></trkpt><trkpt lat="53.68144970327709" lon="11.009169961425098"><ele>54.0</ele><time>2026-04-05T13:53:42.999Z</time></trkpt><trkpt lat="53.68155799000293" lon="11.009059422334085"><ele>54.2</ele><time>2026-04-05T13:53:43.999Z</time></trkpt><trkpt lat="53.681647050197064" lon="11.00896883259781"><ele>54.400000000000006</ele><time>2026-04-05T13:53:44.999Z</time></trkpt><trkpt lat="53.68171266471623" lon="11.00887411614578"><ele>54.6</ele><time>2026-04-05T13:53:45.999Z</time></trkpt><trkpt lat="53.68178538744916" lon="11.008784111389994"><ele>54.8</ele><time>2026-04-05T13:53:47.999Z</time></trkpt><trkpt lat="53.68189756887227" lon="11.00889852879802"><ele>55.0</ele><time>2026-04-05T13:53:59.999Z</time></trkpt><trkpt lat="53.68195979367861" lon="11.009004337653588"><ele>54.6</ele><time>2026-04-05T13:54:00.999Z</time></trkpt><trkpt lat="53.682027810623545" lon="11.009122848674531"><ele>54.2</ele><time>2026-04-05T13:54:01.999Z</time></trkpt><trkpt lat="53.68208694963499" lon="11.009280842021047"><ele>53.8</ele><time>2026-04-05T13:54:02.999Z</time></trkpt><trkpt lat="53.682149728520415" lon="11.009437873005904"><ele>53.4</ele><time>2026-04-05T13:54:03.999Z</time></trkpt><trkpt lat="53.68222508104978" lon="11.00957646405772"><ele>53.0</ele><time>2026-04-05T13:54:04.999Z</time></trkpt><trkpt lat="53.68230522241879" lon="11.009731588159784"><ele>52.66666666666667</ele><time>2026-04-05T13:54:05.999Z</time></trkpt><trkpt lat="53.68239732566658" lon="11.009877884875756"><ele>52.33333333333333</ele><time>2026-04-05T13:54:06.999Z</time></trkpt><trkpt lat="53.682503870509954" lon="11.010066530550281"><ele>52.0</ele><time>2026-04-05T13:54:07.999Z</time></trkpt><trkpt lat="53.68261226270444" lon="11.010309706579672"><ele>52.0</ele><time>2026-04-05T13:54:08.999Z</time></trkpt><trkpt lat="53.68272752678812" lon="11.0105222618442"><ele>52.0</ele><time>2026-04-05T13:54:09.999Z</time></trkpt><trkpt lat="53.682860725981705" lon="11.010728090360043"><ele>52.0</ele><time>2026-04-05T13:54:10.999Z</time></trkpt><trkpt lat="53.68296256335928" lon="11.010875916068802"><ele>51.33333333333333</ele><time>2026-04-05T13:54:11.999Z</time></trkpt><trkpt lat="53.68306974111433" lon="11.011097975046278"><ele>50.66666666666667</ele><time>2026-04-05T13:54:12.999Z</time></trkpt><trkpt lat="53.68318480999679" lon="11.011331862985056"><ele>50.0</ele><time>2026-04-05T13:54:13.999Z</time></trkpt><trkpt lat="53.68332272118497" lon="11.011581706265192"><ele>50.0</ele><time>2026-04-05T13:54:14.999Z</time></trkpt><trkpt lat="53.68346163225651" lon="11.01177992470346"><ele>50.0</ele><time>2026-04-05T13:54:15.999Z</time></trkpt><trkpt lat="53.68361634613549" lon="11.01190268268637"><ele>50.0</ele><time>2026-04-05T13:54:16.999Z</time></trkpt><trkpt lat="53.68377636841401" lon="11.012037855339825"><ele>50.0</ele><time>2026-04-05T13:54:17.999Z</time></trkpt><trkpt lat="53.683942415685806" lon="11.012159055865347"><ele>50.0</ele><time>2026-04-05T13:54:18.999Z</time></trkpt><trkpt lat="53.684121579179504" lon="11.012225532273742"><ele>50.0</ele><time>2026-04-05T13:54:19.999Z</time></trkpt><trkpt lat="53.68429820662941" lon="11.012283132556782"><ele>49.66666666666667</ele><time>2026-04-05T13:54:20.999Z</time></trkpt><trkpt lat="53.68447814521015" lon="11.012349170341846"><ele>49.33333333333333</ele><time>2026-04-05T13:54:21.999Z</time></trkpt><trkpt lat="53.68466531187861" lon="11.012405301802712"><ele>49.0</ele><time>2026-04-05T13:54:22.999Z</time></trkpt><trkpt lat="53.684850565811594" lon="11.01246330239677"><ele>49.0</ele><time>2026-04-05T13:54:23.999Z</time></trkpt><trkpt lat="53.685030788044486" lon="11.012530928410236"><ele>49.0</ele><time>2026-04-05T13:54:24.999Z</time></trkpt><trkpt lat="53.68520769709361" lon="11.01260738847428"><ele>49.0</ele><time>2026-04-05T13:54:25.999Z</time></trkpt><trkpt lat="53.68573812287218" lon="11.01278197389598"><ele>49.0</ele><time>2026-04-05T13:54:28.999Z</time></trkpt><trkpt lat="53.6859178791234" lon="11.012838975622047"><ele>49.0</ele><time>2026-04-05T13:54:29.999Z</time></trkpt><trkpt lat="53.686093328808255" lon="11.012911657770571"><ele>49.0</ele><time>2026-04-05T13:54:30.999Z</time></trkpt><trkpt lat="53.68626340674819" lon="11.012943919043488"><ele>49.0</ele><time>2026-04-05T13:54:31.999Z</time></trkpt><trkpt lat="53.686441729421254" lon="11.013009457590865"><ele>49.0</ele><time>2026-04-05T13:54:32.999Z</time></trkpt><trkpt lat="53.68662836831916" lon="11.013066552636737"><ele>49.0</ele><time>2026-04-05T13:54:33.999Z</time></trkpt><trkpt lat="53.686809730262816" lon="11.013132608582774"><ele>49.33333333333333</ele><time>2026-04-05T13:54:34.999Z</time></trkpt><trkpt lat="53.68697839316836" lon="11.013192072780898"><ele>49.66666666666667</ele><time>2026-04-05T13:54:35.999Z</time></trkpt><trkpt lat="53.687161959641095" lon="11.013241330891423"><ele>50.0</ele><time>2026-04-05T13:54:36.999Z</time></trkpt><trkpt lat="53.687344372102196" lon="11.013304357252201"><ele>50.0</ele><time>2026-04-05T13:54:37.999Z</time></trkpt><trkpt lat="53.687500105818664" lon="11.01334422060316"><ele>50.0</ele><time>2026-04-05T13:54:38.999Z</time></trkpt><trkpt lat="53.68768623496561" lon="11.013411162202605"><ele>50.0</ele><time>2026-04-05T13:54:39.999Z</time></trkpt><trkpt lat="53.687860462495706" lon="11.01352875741883"><ele>52.333333333333336</ele><time>2026-04-05T13:54:40.999Z</time></trkpt><trkpt lat="53.68803995133016" lon="11.013623974205414"><ele>54.66666666666667</ele><time>2026-04-05T13:54:41.999Z</time></trkpt><trkpt lat="53.68820246736629" lon="11.013713017389879"><ele>57.0</ele><time>2026-04-05T13:54:42.999Z</time></trkpt><trkpt lat="53.68836148132008" lon="11.013808338838778"><ele>57.0</ele><time>2026-04-05T13:54:43.999Z</time></trkpt><trkpt lat="53.68851625685485" lon="11.013868539772808"><ele>57.0</ele><time>2026-04-05T13:54:44.999Z</time></trkpt><trkpt lat="53.688653428127814" lon="11.013913721679003"><ele>57.0</ele><time>2026-04-05T13:54:45.999Z</time></trkpt><trkpt lat="53.68878596768194" lon="11.01399244744946"><ele>57.0</ele><time>2026-04-05T13:54:46.999Z</time></trkpt><trkpt lat="53.68890784620571" lon="11.01404491756868"><ele>55.0</ele><time>2026-04-05T13:54:47.999Z</time></trkpt><trkpt lat="53.68902727037223" lon="11.014156865331579"><ele>53.0</ele><time>2026-04-05T13:54:48.999Z</time></trkpt><trkpt lat="53.68915060206887" lon="11.014224000754156"><ele>51.0</ele><time>2026-04-05T13:54:49.999Z</time></trkpt><trkpt lat="53.68927316375903" lon="11.01429086869153"><ele>49.0</ele><time>2026-04-05T13:54:50.999Z</time></trkpt><trkpt lat="53.68938906347994" lon="11.014347788639594"><ele>50.0</ele><time>2026-04-05T13:54:51.999Z</time></trkpt><trkpt lat="53.689507964197624" lon="11.014384665792093"><ele>51.0</ele><time>2026-04-05T13:54:52.999Z</time></trkpt><trkpt lat="53.68962538800441" lon="11.01444204750172"><ele>52.0</ele><time>2026-04-05T13:54:53.999Z</time></trkpt><trkpt lat="53.689751015722" lon="11.014482568707754"><ele>53.0</ele><time>2026-04-05T13:54:54.999Z</time></trkpt><trkpt lat="53.68988352898326" lon="11.014524213442765"><ele>53.0</ele><time>2026-04-05T13:54:55.999Z</time></trkpt><trkpt lat="53.69003308460356" lon="11.014527172735365"><ele>53.0</ele><time>2026-04-05T13:54:56.999Z</time></trkpt><trkpt lat="53.69016593215708" lon="11.014526959367087"><ele>53.0</ele><time>2026-04-05T13:54:57.999Z</time></trkpt><trkpt lat="53.69030385492513" lon="11.014557388160304"><ele>53.0</ele><time>2026-04-05T13:54:58.999Z</time></trkpt><trkpt lat="53.690431779099335" lon="11.014580097974688"><ele>54.5</ele><time>2026-04-05T13:54:59.999Z</time></trkpt><trkpt lat="53.69054818835175" lon="11.014603956262759"><ele>56.0</ele><time>2026-04-05T13:55:00.999Z</time></trkpt><trkpt lat="53.6906739989848" lon="11.014675333358635"><ele>57.5</ele><time>2026-04-05T13:55:01.999Z</time></trkpt><trkpt lat="53.69079810480883" lon="11.01470473731703"><ele>59.0</ele><time>2026-04-05T13:55:02.999Z</time></trkpt><trkpt lat="53.690925200442344" lon="11.01476967372891"><ele>59.0</ele><time>2026-04-05T13:55:03.999Z</time></trkpt><trkpt lat="53.69105198595055" lon="11.014863459844879"><ele>59.0</ele><time>2026-04-05T13:55:04.999Z</time></trkpt><trkpt lat="53.691176271877616" lon="11.014886121784615"><ele>59.0</ele><time>2026-04-05T13:55:05.999Z</time></trkpt><trkpt lat="53.691296763174634" lon="11.014965562447426"><ele>59.0</ele><time>2026-04-05T13:55:06.999Z</time></trkpt><trkpt lat="53.69143150296577" lon="11.015039267600597"><ele>59.25</ele><time>2026-04-05T13:55:07.999Z</time></trkpt><trkpt lat="53.69156932324357" lon="11.015084259524782"><ele>59.5</ele><time>2026-04-05T13:55:08.999Z</time></trkpt><trkpt lat="53.69169166710135" lon="11.015179095121393"><ele>59.75</ele><time>2026-04-05T13:55:09.999Z</time></trkpt><trkpt lat="53.691819470075586" lon="11.015289062388218"><ele>60.0</ele><time>2026-04-05T13:55:10.999Z</time></trkpt><trkpt lat="53.691936225916415" lon="11.015344186182526"><ele>60.0</ele><time>2026-04-05T13:55:11.999Z</time></trkpt><trkpt lat="53.6920708095999" lon="11.015377798827322"><ele>60.0</ele><time>2026-04-05T13:55:12.999Z</time></trkpt><trkpt lat="53.6921917501689" lon="11.015393219714234"><ele>60.0</ele><time>2026-04-05T13:55:13.999Z</time></trkpt><trkpt lat="53.692310966560676" lon="11.015393392537408"><ele>60.0</ele><time>2026-04-05T13:55:14.999Z</time></trkpt><trkpt lat="53.69244006763824" lon="11.015327657206832"><ele>60.0</ele><time>2026-04-05T13:55:15.999Z</time></trkpt><trkpt lat="53.69256825422312" lon="11.015234813254615"><ele>60.0</ele><time>2026-04-05T13:55:16.999Z</time></trkpt><trkpt lat="53.69268353914144" lon="11.015161382645761"><ele>60.0</ele><time>2026-04-05T13:55:17.999Z</time></trkpt><trkpt lat="53.69280206716646" lon="11.015086458962402"><ele>60.0</ele><time>2026-04-05T13:55:18.999Z</time></trkpt><trkpt lat="53.692920819817715" lon="11.01501127659752"><ele>59.6</ele><time>2026-04-05T13:55:19.999Z</time></trkpt><trkpt lat="53.69302168781909" lon="11.014890612984"><ele>59.2</ele><time>2026-04-05T13:55:20.999Z</time></trkpt><trkpt lat="53.69313140760903" lon="11.014830562164137"><ele>58.8</ele><time>2026-04-05T13:55:21.999Z</time></trkpt><trkpt lat="53.693227919426015" lon="11.014768976069984"><ele>58.4</ele><time>2026-04-05T13:55:22.999Z</time></trkpt><trkpt lat="53.69333185745201" lon="11.014728418956079"><ele>58.0</ele><time>2026-04-05T13:55:23.999Z</time></trkpt><trkpt lat="53.693433685200574" lon="11.014687808037744"><ele>58.0</ele><time>2026-04-05T13:55:24.999Z</time></trkpt><trkpt lat="53.69354855843109" lon="11.014631297064913"><ele>58.0</ele><time>2026-04-05T13:55:25.999Z</time></trkpt><trkpt lat="53.6936818032985" lon="11.014599820193805"><ele>58.0</ele><time>2026-04-05T13:55:26.999Z</time></trkpt><trkpt lat="53.693793467429806" lon="11.014548418441462"><ele>58.0</ele><time>2026-04-05T13:55:27.999Z</time></trkpt><trkpt lat="53.69390658474041" lon="11.014501750249243"><ele>57.83333333333333</ele><time>2026-04-05T13:55:28.999Z</time></trkpt><trkpt lat="53.69398592371291" lon="11.014480857667158"><ele>57.666666666666664</ele><time>2026-04-05T13:55:29.999Z</time></trkpt><trkpt lat="53.69404677787273" lon="11.014531222021974"><ele>57.5</ele><time>2026-04-05T13:55:30.999Z</time></trkpt><trkpt lat="53.69412212176002" lon="11.014691582258125"><ele>57.33333333333333</ele><time>2026-04-05T13:55:33.999Z</time></trkpt><trkpt lat="53.6941316848927" lon="11.014803778697585"><ele>57.166666666666664</ele><time>2026-04-05T13:55:34.999Z</time></trkpt><trkpt lat="53.694139061564385" lon="11.014934349717231"><ele>57.0</ele><time>2026-04-05T13:55:35.999Z</time></trkpt><trkpt lat="53.69413462137684" lon="11.01512460351146"><ele>56.75</ele><time>2026-04-05T13:55:36.999Z</time></trkpt><trkpt lat="53.694127289727604" lon="11.015316693312867"><ele>56.5</ele><time>2026-04-05T13:55:37.999Z</time></trkpt><trkpt lat="53.69411495809527" lon="11.015489477294395"><ele>56.25</ele><time>2026-04-05T13:55:38.999Z</time></trkpt><trkpt lat="53.69411685561627" lon="11.01570875433592"><ele>56.0</ele><time>2026-04-05T13:55:39.999Z</time></trkpt><trkpt lat="53.69410645188932" lon="11.015915529539217"><ele>55.75</ele><time>2026-04-05T13:55:40.999Z</time></trkpt><trkpt lat="53.69411785152024" lon="11.016143942157946"><ele>55.5</ele><time>2026-04-05T13:55:41.999Z</time></trkpt><trkpt lat="53.694161214284" lon="11.016323068861531"><ele>55.25</ele><time>2026-04-05T13:55:42.999Z</time></trkpt><trkpt lat="53.69418297438012" lon="11.016583097807953"><ele>55.0</ele><time>2026-04-05T13:55:43.999Z</time></trkpt><trkpt lat="53.69419120403368" lon="11.016761451888389"><ele>54.8</ele><time>2026-04-05T13:55:44.999Z</time></trkpt><trkpt lat="53.69420993261325" lon="11.016896121704601"><ele>54.6</ele><time>2026-04-05T13:55:45.999Z</time></trkpt><trkpt lat="53.69429043788552" lon="11.016951512629106"><ele>54.400000000000006</ele><time>2026-04-05T13:55:46.999Z</time></trkpt><trkpt lat="53.69437461027813" lon="11.01696491078442"><ele>54.2</ele><time>2026-04-05T13:55:47.999Z</time></trkpt><trkpt lat="53.694470772246035" lon="11.016948288745905"><ele>54.0</ele><time>2026-04-05T13:55:48.999Z</time></trkpt><trkpt lat="53.694577194303676" lon="11.01694389054251"><ele>53.5</ele><time>2026-04-05T13:55:49.999Z</time></trkpt><trkpt lat="53.69469974798698" lon="11.016943014839354"><ele>53.0</ele><time>2026-04-05T13:55:50.999Z</time></trkpt><trkpt lat="53.69484107506293" lon="11.016980642312781"><ele>52.5</ele><time>2026-04-05T13:55:51.999Z</time></trkpt><trkpt lat="53.69499154035608" lon="11.016983413427752"><ele>52.0</ele><time>2026-04-05T13:55:52.999Z</time></trkpt><trkpt lat="53.69514498294844" lon="11.017000783214842"><ele>51.666666666666664</ele><time>2026-04-05T13:55:53.999Z</time></trkpt><trkpt lat="53.69529841283685" lon="11.017002785838889"><ele>51.33333333333333</ele><time>2026-04-05T13:55:54.999Z</time></trkpt><trkpt lat="53.6954611965002" lon="11.017013423006118"><ele>51.0</ele><time>2026-04-05T13:55:55.999Z</time></trkpt><trkpt lat="53.695619554213465" lon="11.016990033418567"><ele>51.0</ele><time>2026-04-05T13:55:56.999Z</time></trkpt><trkpt lat="53.69577724088542" lon="11.0169686619442"><ele>51.0</ele><time>2026-04-05T13:55:57.999Z</time></trkpt><trkpt lat="53.695925379941166" lon="11.016856724644539"><ele>51.0</ele><time>2026-04-05T13:55:58.999Z</time></trkpt><trkpt lat="53.696084829857206" lon="11.016765726112753"><ele>51.66666666666667</ele><time>2026-04-05T13:55:59.999Z</time></trkpt><trkpt lat="53.696230675889204" lon="11.016639802436925"><ele>52.333333333333336</ele><time>2026-04-05T13:56:00.999Z</time></trkpt><trkpt lat="53.696382326372856" lon="11.016517049170387"><ele>53.0</ele><time>2026-04-05T13:56:01.999Z</time></trkpt><trkpt lat="53.69655159497235" lon="11.016428217745657"><ele>53.0</ele><time>2026-04-05T13:56:02.999Z</time></trkpt><trkpt lat="53.696723043982246" lon="11.016317702032662"><ele>53.0</ele><time>2026-04-05T13:56:03.999Z</time></trkpt><trkpt lat="53.69688034588813" lon="11.016220199772087"><ele>53.0</ele><time>2026-04-05T13:56:04.999Z</time></trkpt><trkpt lat="53.69703599828231" lon="11.016096515384799"><ele>53.0</ele><time>2026-04-05T13:56:05.999Z</time></trkpt><trkpt lat="53.69719032658358" lon="11.015986386790459"><ele>53.0</ele><time>2026-04-05T13:56:06.999Z</time></trkpt><trkpt lat="53.69735011289521" lon="11.015879439651764"><ele>53.0</ele><time>2026-04-05T13:56:07.999Z</time></trkpt><trkpt lat="53.69751314469114" lon="11.015756244995503"><ele>53.0</ele><time>2026-04-05T13:56:08.999Z</time></trkpt><trkpt lat="53.69767926970845" lon="11.015624372453692"><ele>53.0</ele><time>2026-04-05T13:56:09.999Z</time></trkpt><trkpt lat="53.69783966968612" lon="11.015480568937573"><ele>53.0</ele><time>2026-04-05T13:56:10.999Z</time></trkpt><trkpt lat="53.69799474374077" lon="11.01531676226665"><ele>52.66666666666667</ele><time>2026-04-05T13:56:11.999Z</time></trkpt><trkpt lat="53.69814645295022" lon="11.015162754585608"><ele>52.33333333333333</ele><time>2026-04-05T13:56:12.999Z</time></trkpt><trkpt lat="53.69828792346743" lon="11.015005461068423"><ele>52.0</ele><time>2026-04-05T13:56:13.999Z</time></trkpt><trkpt lat="53.69842462718091" lon="11.014843387824122"><ele>52.0</ele><time>2026-04-05T13:56:14.999Z</time></trkpt><trkpt lat="53.69856147760687" lon="11.01470124277642"><ele>52.0</ele><time>2026-04-05T13:56:15.999Z</time></trkpt><trkpt lat="53.69869320830451" lon="11.014564544585276"><ele>52.0</ele><time>2026-04-05T13:56:16.999Z</time></trkpt><trkpt lat="53.698824890999276" lon="11.014422212248641"><ele>52.0</ele><time>2026-04-05T13:56:17.999Z</time></trkpt><trkpt lat="53.69894375838237" lon="11.014271016256142"><ele>52.0</ele><time>2026-04-05T13:56:18.999Z</time></trkpt><trkpt lat="53.699054260414904" lon="11.014119532648138"><ele>52.0</ele><time>2026-04-05T13:56:19.999Z</time></trkpt><trkpt lat="53.69916192292842" lon="11.013965243744838"><ele>52.0</ele><time>2026-04-05T13:56:20.999Z</time></trkpt><trkpt lat="53.699258466414605" lon="11.013812019610862"><ele>52.5</ele><time>2026-04-05T13:56:21.999Z</time></trkpt><trkpt lat="53.69936045836905" lon="11.013664902608093"><ele>53.0</ele><time>2026-04-05T13:56:22.999Z</time></trkpt><trkpt lat="53.699466669284" lon="11.013522309333522"><ele>53.5</ele><time>2026-04-05T13:56:23.999Z</time></trkpt><trkpt lat="53.69958011723616" lon="11.01338849539566"><ele>54.0</ele><time>2026-04-05T13:56:24.999Z</time></trkpt><trkpt lat="53.69970397763673" lon="11.013250281756902"><ele>54.0</ele><time>2026-04-05T13:56:25.999Z</time></trkpt><trkpt lat="53.6998221947246" lon="11.013099443922822"><ele>54.0</ele><time>2026-04-05T13:56:26.999Z</time></trkpt><trkpt lat="53.69994518605496" lon="11.012958608683686"><ele>54.0</ele><time>2026-04-05T13:56:27.999Z</time></trkpt><trkpt lat="53.700062960583246" lon="11.012821013115463"><ele>54.0</ele><time>2026-04-05T13:56:28.999Z</time></trkpt><trkpt lat="53.70018226070164" lon="11.012681942310213"><ele>54.0</ele><time>2026-04-05T13:56:29.999Z</time></trkpt><trkpt lat="53.700305471462286" lon="11.012540903405664"><ele>54.0</ele><time>2026-04-05T13:56:30.999Z</time></trkpt><trkpt lat="53.70043788277351" lon="11.012417865760387"><ele>54.0</ele><time>2026-04-05T13:56:32Z</time></trkpt><trkpt lat="53.70057737723491" lon="11.012322325547371"><ele>54.0</ele><time>2026-04-05T13:56:33Z</time></trkpt><trkpt lat="53.700715857885996" lon="11.012199471081592"><ele>54.0</ele><time>2026-04-05T13:56:34Z</time></trkpt><trkpt lat="53.70085045436035" lon="11.012102399410239"><ele>54.0</ele><time>2026-04-05T13:56:35Z</time></trkpt><trkpt lat="53.70098053912209" lon="11.011981346752853"><ele>53.5</ele><time>2026-04-05T13:56:36Z</time></trkpt><trkpt lat="53.70110969319257" lon="11.011857001403467"><ele>53.0</ele><time>2026-04-05T13:56:37Z</time></trkpt><trkpt lat="53.70124778516229" lon="11.01178036727366"><ele>52.5</ele><time>2026-04-05T13:56:38Z</time></trkpt><trkpt lat="53.701383465749544" lon="11.011685316828181"><ele>52.0</ele><time>2026-04-05T13:56:39Z</time></trkpt><trkpt lat="53.70153155144866" lon="11.011591268112959"><ele>52.0</ele><time>2026-04-05T13:56:40Z</time></trkpt><trkpt lat="53.70168046403518" lon="11.011501077235284"><ele>52.0</ele><time>2026-04-05T13:56:41Z</time></trkpt><trkpt lat="53.70182115078196" lon="11.011415714042746"><ele>52.0</ele><time>2026-04-05T13:56:42Z</time></trkpt><trkpt lat="53.701958744442074" lon="11.011331281061414"><ele>52.0</ele><time>2026-04-05T13:56:43Z</time></trkpt><trkpt lat="53.702101518106524" lon="11.011243669281129"><ele>52.0</ele><time>2026-04-05T13:56:44Z</time></trkpt><trkpt lat="53.70225655944862" lon="11.011148529790184"><ele>52.0</ele><time>2026-04-05T13:56:45Z</time></trkpt><trkpt lat="53.702408198016855" lon="11.01105424472573"><ele>52.0</ele><time>2026-04-05T13:56:46Z</time></trkpt><trkpt lat="53.702558313420234" lon="11.010958399353"><ele>52.0</ele><time>2026-04-05T13:56:47Z</time></trkpt><trkpt lat="53.70269520990884" lon="11.010870009215115"><ele>52.0</ele><time>2026-04-05T13:56:48Z</time></trkpt><trkpt lat="53.702829881508215" lon="11.010778000515007"><ele>52.0</ele><time>2026-04-05T13:56:49Z</time></trkpt><trkpt lat="53.702972050412306" lon="11.010674876107837"><ele>52.0</ele><time>2026-04-05T13:56:50Z</time></trkpt><trkpt lat="53.70311302331157" lon="11.010570823172726"><ele>52.0</ele><time>2026-04-05T13:56:51Z</time></trkpt><trkpt lat="53.703259536463605" lon="11.01046092796541"><ele>52.0</ele><time>2026-04-05T13:56:52Z</time></trkpt><trkpt lat="53.70339552785273" lon="11.0103537117947"><ele>52.0</ele><time>2026-04-05T13:56:53Z</time></trkpt><trkpt lat="53.70353896645871" lon="11.010237094406138"><ele>52.0</ele><time>2026-04-05T13:56:54Z</time></trkpt><trkpt lat="53.7036604874873" lon="11.010109150933603"><ele>52.25</ele><time>2026-04-05T13:56:55Z</time></trkpt><trkpt lat="53.7037899186661" lon="11.010018734630128"><ele>52.5</ele><time>2026-04-05T13:56:56Z</time></trkpt><trkpt lat="53.70390945894539" lon="11.009878139530112"><ele>52.75</ele><time>2026-04-05T13:56:57Z</time></trkpt><trkpt lat="53.704033660192806" lon="11.00978957770355"><ele>53.0</ele><time>2026-04-05T13:56:58Z</time></trkpt><trkpt lat="53.70414355378256" lon="11.009653364164832"><ele>53.25</ele><time>2026-04-05T13:56:59Z</time></trkpt><trkpt lat="53.70426565879857" lon="11.009526611377549"><ele>53.5</ele><time>2026-04-05T13:57:00Z</time></trkpt><trkpt lat="53.70439336332251" lon="11.009416155548944"><ele>53.75</ele><time>2026-04-05T13:57:00.999Z</time></trkpt><trkpt lat="53.70450234718569" lon="11.00927345047239"><ele>54.0</ele><time>2026-04-05T13:57:01.999Z</time></trkpt><trkpt lat="53.70460036414168" lon="11.009104883771442"><ele>55.0</ele><time>2026-04-05T13:57:02.999Z</time></trkpt><trkpt lat="53.7047055933035" lon="11.008952211564617"><ele>56.0</ele><time>2026-04-05T13:57:03.999Z</time></trkpt><trkpt lat="53.70481216283322" lon="11.008783459355788"><ele>57.0</ele><time>2026-04-05T13:57:04.999Z</time></trkpt><trkpt lat="53.70492414061299" lon="11.008608317439391"><ele>58.0</ele><time>2026-04-05T13:57:05.999Z</time></trkpt><trkpt lat="53.70503174981689" lon="11.008441344830661"><ele>58.0</ele><time>2026-04-05T13:57:06.999Z</time></trkpt><trkpt lat="53.7051412743199" lon="11.008273015653112"><ele>58.0</ele><time>2026-04-05T13:57:07.999Z</time></trkpt><trkpt lat="53.70525078483404" lon="11.008111563925533"><ele>58.0</ele><time>2026-04-05T13:57:08.999Z</time></trkpt><trkpt lat="53.70535238052775" lon="11.007981142173001"><ele>58.0</ele><time>2026-04-05T13:57:09.999Z</time></trkpt><trkpt lat="53.70545613355143" lon="11.007860663814567"><ele>58.0</ele><time>2026-04-05T13:57:10.999Z</time></trkpt><trkpt lat="53.7055403026745" lon="11.007783040723465"><ele>58.0</ele><time>2026-04-05T13:57:11.999Z</time></trkpt><trkpt lat="53.70561068456187" lon="11.007766157323424"><ele>58.0</ele><time>2026-04-05T13:57:12.999Z</time></trkpt><trkpt lat="53.705722921359" lon="11.007834736464716"><ele>58.0</ele><time>2026-04-05T13:57:14.999Z</time></trkpt><trkpt lat="53.7057450338154" lon="11.008104436091577"><ele>58.0</ele><time>2026-04-05T13:57:16.999Z</time></trkpt><trkpt lat="53.70576422962133" lon="11.008290323979127"><ele>58.0</ele><time>2026-04-05T13:57:17.999Z</time></trkpt><trkpt lat="53.705786121701614" lon="11.008490663447798"><ele>58.0</ele><time>2026-04-05T13:57:18.999Z</time></trkpt><trkpt lat="53.70581141227847" lon="11.008718877498666"><ele>58.0</ele><time>2026-04-05T13:57:19.999Z</time></trkpt><trkpt lat="53.705852879189194" lon="11.008943309743875"><ele>58.0</ele><time>2026-04-05T13:57:20.999Z</time></trkpt><trkpt lat="53.70586725820065" lon="11.009174376935281"><ele>58.0</ele><time>2026-04-05T13:57:21.999Z</time></trkpt><trkpt lat="53.70589508135628" lon="11.009432873588622"><ele>58.0</ele><time>2026-04-05T13:57:22.999Z</time></trkpt><trkpt lat="53.70592117372468" lon="11.009667943197579"><ele>58.0</ele><time>2026-04-05T13:57:23.999Z</time></trkpt><trkpt lat="53.70594945058841" lon="11.009911549503006"><ele>58.0</ele><time>2026-04-05T13:57:24.999Z</time></trkpt><trkpt lat="53.7059861178891" lon="11.010227439502783"><ele>57.33333333333333</ele><time>2026-04-05T13:57:25.999Z</time></trkpt><trkpt lat="53.70602206649753" lon="11.01053713844588"><ele>56.66666666666667</ele><time>2026-04-05T13:57:26.999Z</time></trkpt><trkpt lat="53.70606738662949" lon="11.010819651366681"><ele>56.0</ele><time>2026-04-05T13:57:27.999Z</time></trkpt><trkpt lat="53.7060996395859" lon="11.011167929207087"><ele>55.333333333333336</ele><time>2026-04-05T13:57:28.999Z</time></trkpt><trkpt lat="53.706144319682764" lon="11.011491470997544"><ele>54.66666666666667</ele><time>2026-04-05T13:57:29.999Z</time></trkpt><trkpt lat="53.70616154556063" lon="11.011777243207959"><ele>54.0</ele><time>2026-04-05T13:57:30.999Z</time></trkpt><trkpt lat="53.70619814141739" lon="11.012107754171355"><ele>53.66666666666667</ele><time>2026-04-05T13:57:31.999Z</time></trkpt><trkpt lat="53.70623355911324" lon="11.012430362871813"><ele>53.333333333333336</ele><time>2026-04-05T13:57:32.999Z</time></trkpt><trkpt lat="53.706266072871564" lon="11.012771145303256"><ele>53.0</ele><time>2026-04-05T13:57:33.999Z</time></trkpt><trkpt lat="53.7062904352971" lon="11.013105805415721"><ele>52.66666666666667</ele><time>2026-04-05T13:57:34.999Z</time></trkpt><trkpt lat="53.706310347151" lon="11.013457673925478"><ele>52.33333333333333</ele><time>2026-04-05T13:57:35.999Z</time></trkpt><trkpt lat="53.70633903044988" lon="11.013799414826876"><ele>52.0</ele><time>2026-04-05T13:57:36.999Z</time></trkpt><trkpt lat="53.70634883985029" lon="11.014122759959404"><ele>51.33333333333333</ele><time>2026-04-05T13:57:37.999Z</time></trkpt><trkpt lat="53.706380073512314" lon="11.01446581584461"><ele>50.66666666666667</ele><time>2026-04-05T13:57:38.999Z</time></trkpt><trkpt lat="53.706378958536824" lon="11.014797445983225"><ele>50.0</ele><time>2026-04-05T13:57:39.999Z</time></trkpt><trkpt lat="53.70642268003861" lon="11.015148336473112"><ele>50.0</ele><time>2026-04-05T13:57:40.999Z</time></trkpt><trkpt lat="53.70644721593679" lon="11.015456868701587"><ele>50.0</ele><time>2026-04-05T13:57:41.999Z</time></trkpt><trkpt lat="53.70650834555692" lon="11.015806556272777"><ele>50.0</ele><time>2026-04-05T13:57:42.999Z</time></trkpt><trkpt lat="53.70656891391487" lon="11.016149232370815"><ele>50.0</ele><time>2026-04-05T13:57:43.999Z</time></trkpt><trkpt lat="53.706654821472384" lon="11.016466462929484"><ele>50.0</ele><time>2026-04-05T13:57:44.999Z</time></trkpt><trkpt lat="53.70674401615652" lon="11.016791649855286"><ele>50.0</ele><time>2026-04-05T13:57:45.999Z</time></trkpt><trkpt lat="53.70682109363786" lon="11.017123757975174"><ele>50.333333333333336</ele><time>2026-04-05T13:57:46.999Z</time></trkpt><trkpt lat="53.70688897393494" lon="11.017449691616001"><ele>50.66666666666667</ele><time>2026-04-05T13:57:47.999Z</time></trkpt><trkpt lat="53.706950637896234" lon="11.017770684797423"><ele>51.0</ele><time>2026-04-05T13:57:48.999Z</time></trkpt><trkpt lat="53.70700908663839" lon="11.018074013582716"><ele>51.66666666666667</ele><time>2026-04-05T13:57:49.999Z</time></trkpt><trkpt lat="53.70705635677212" lon="11.018408461230992"><ele>52.333333333333336</ele><time>2026-04-05T13:57:50.999Z</time></trkpt><trkpt lat="53.707074818894554" lon="11.018753590162667"><ele>53.0</ele><time>2026-04-05T13:57:51.999Z</time></trkpt><trkpt lat="53.70709183014188" lon="11.019111396368595"><ele>52.66666666666667</ele><time>2026-04-05T13:57:52.999Z</time></trkpt><trkpt lat="53.70711246877075" lon="11.019470139975738"><ele>52.33333333333333</ele><time>2026-04-05T13:57:53.999Z</time></trkpt><trkpt lat="53.70714136698678" lon="11.019812006538313"><ele>52.0</ele><time>2026-04-05T13:57:54.999Z</time></trkpt><trkpt lat="53.7071688086662" lon="11.020157167812092"><ele>52.0</ele><time>2026-04-05T13:57:55.999Z</time></trkpt><trkpt lat="53.7072014319655" lon="11.020498608929309"><ele>52.0</ele><time>2026-04-05T13:57:56.999Z</time></trkpt><trkpt lat="53.707241745689814" lon="11.020840737721985"><ele>52.0</ele><time>2026-04-05T13:57:57.999Z</time></trkpt><trkpt lat="53.707272622276" lon="11.021183495239269"><ele>51.666666666666664</ele><time>2026-04-05T13:57:58.999Z</time></trkpt><trkpt lat="53.7072982601542" lon="11.02154310925422"><ele>51.33333333333333</ele><time>2026-04-05T13:57:59.999Z</time></trkpt><trkpt lat="53.70732785152766" lon="11.021885238543636"><ele>51.0</ele><time>2026-04-05T13:58:00.999Z</time></trkpt><trkpt lat="53.70734893968466" lon="11.02222951189588"><ele>51.33333333333333</ele><time>2026-04-05T13:58:01.999Z</time></trkpt><trkpt lat="53.70736955003083" lon="11.02256510189356"><ele>51.666666666666664</ele><time>2026-04-05T13:58:02.999Z</time></trkpt><trkpt lat="53.70739619233278" lon="11.02290989998162"><ele>52.0</ele><time>2026-04-05T13:58:03.999Z</time></trkpt><trkpt lat="53.70742449810879" lon="11.023252717197407"><ele>52.33333333333333</ele><time>2026-04-05T13:58:04.999Z</time></trkpt><trkpt lat="53.70745378371809" lon="11.023594292400881"><ele>52.66666666666667</ele><time>2026-04-05T13:58:05.999Z</time></trkpt><trkpt lat="53.707487076333926" lon="11.023945643786881"><ele>53.0</ele><time>2026-04-05T13:58:06.999Z</time></trkpt><trkpt lat="53.707524171703696" lon="11.024284938192908"><ele>53.0</ele><time>2026-04-05T13:58:07.999Z</time></trkpt><trkpt lat="53.70751644459281" lon="11.024626539852527"><ele>53.0</ele><time>2026-04-05T13:58:08.999Z</time></trkpt><trkpt lat="53.70754467885896" lon="11.024987850404631"><ele>53.0</ele><time>2026-04-05T13:58:09.999Z</time></trkpt><trkpt lat="53.7075701830699" lon="11.025308374994715"><ele>52.66666666666667</ele><time>2026-04-05T13:58:10.999Z</time></trkpt><trkpt lat="53.7075962684907" lon="11.025636203989228"><ele>52.33333333333333</ele><time>2026-04-05T13:58:11.999Z</time></trkpt><trkpt lat="53.70762338628031" lon="11.025976933931034"><ele>52.0</ele><time>2026-04-05T13:58:12.999Z</time></trkpt><trkpt lat="53.70764918129223" lon="11.026299842987871"><ele>52.33333333333333</ele><time>2026-04-05T13:58:13.999Z</time></trkpt><trkpt lat="53.70767777924422" lon="11.026657839720945"><ele>52.66666666666667</ele><time>2026-04-05T13:58:14.999Z</time></trkpt><trkpt lat="53.707702332220336" lon="11.026974508646013"><ele>53.0</ele><time>2026-04-05T13:58:15.999Z</time></trkpt><trkpt lat="53.707727881063" lon="11.027310682584018"><ele>52.333333333333336</ele><time>2026-04-05T13:58:16.999Z</time></trkpt><trkpt lat="53.707752894328436" lon="11.02763980970854"><ele>51.66666666666667</ele><time>2026-04-05T13:58:17.999Z</time></trkpt><trkpt lat="53.70777862297697" lon="11.027978349176408"><ele>51.0</ele><time>2026-04-05T13:58:18.999Z</time></trkpt><trkpt lat="53.7078061259906" lon="11.028336192312782"><ele>51.0</ele><time>2026-04-05T13:58:19.999Z</time></trkpt><trkpt lat="53.70783329335314" lon="11.028682193976325"><ele>51.0</ele><time>2026-04-05T13:58:20.999Z</time></trkpt><trkpt lat="53.70786085290598" lon="11.029031111490086"><ele>51.0</ele><time>2026-04-05T13:58:21.999Z</time></trkpt><trkpt lat="53.70789083339874" lon="11.029386608925604"><ele>51.0</ele><time>2026-04-05T13:58:22.999Z</time></trkpt><trkpt lat="53.70795713074449" lon="11.029733667299553"><ele>51.0</ele><time>2026-04-05T13:58:23.999Z</time></trkpt><trkpt lat="53.70798609062681" lon="11.03007345172482"><ele>51.0</ele><time>2026-04-05T13:58:24.999Z</time></trkpt><trkpt lat="53.708044369098715" lon="11.030408072888873"><ele>51.0</ele><time>2026-04-05T13:58:25.999Z</time></trkpt><trkpt lat="53.70814169059352" lon="11.030733914943037"><ele>51.0</ele><time>2026-04-05T13:58:26.999Z</time></trkpt><trkpt lat="53.70825003705216" lon="11.031037805046369"><ele>51.0</ele><time>2026-04-05T13:58:27.999Z</time></trkpt><trkpt lat="53.70835081940733" lon="11.031329362819989"><ele>51.0</ele><time>2026-04-05T13:58:28.999Z</time></trkpt><trkpt lat="53.708468978368636" lon="11.031589499596699"><ele>51.0</ele><time>2026-04-05T13:58:29.999Z</time></trkpt><trkpt lat="53.708578622579395" lon="11.031858323637707"><ele>51.0</ele><time>2026-04-05T13:58:30.999Z</time></trkpt><trkpt lat="53.708687183726546" lon="11.032127096951804"><ele>51.33333333333333</ele><time>2026-04-05T13:58:31.999Z</time></trkpt><trkpt lat="53.70879640496541" lon="11.032385212795575"><ele>51.666666666666664</ele><time>2026-04-05T13:58:32.999Z</time></trkpt><trkpt lat="53.70890626972695" lon="11.032666960752616"><ele>52.0</ele><time>2026-04-05T13:58:33.999Z</time></trkpt><trkpt lat="53.70901636651241" lon="11.032946262431166"><ele>52.0</ele><time>2026-04-05T13:58:34.999Z</time></trkpt><trkpt lat="53.70911965232567" lon="11.033218751252296"><ele>52.0</ele><time>2026-04-05T13:58:35.999Z</time></trkpt><trkpt lat="53.70922001621089" lon="11.03349642069329"><ele>52.0</ele><time>2026-04-05T13:58:36.999Z</time></trkpt><trkpt lat="53.7093161740561" lon="11.033783879441232"><ele>52.33333333333333</ele><time>2026-04-05T13:58:37.999Z</time></trkpt><trkpt lat="53.70941166778569" lon="11.03406594109949"><ele>52.66666666666667</ele><time>2026-04-05T13:58:38.999Z</time></trkpt><trkpt lat="53.709511810625806" lon="11.034350244078649"><ele>53.0</ele><time>2026-04-05T13:58:39.999Z</time></trkpt><trkpt lat="53.709614449496264" lon="11.03464113149453"><ele>53.0</ele><time>2026-04-05T13:58:40.999Z</time></trkpt><trkpt lat="53.70971954541562" lon="11.034915914483525"><ele>53.0</ele><time>2026-04-05T13:58:41.999Z</time></trkpt><trkpt lat="53.709834256060375" lon="11.035214309571488"><ele>53.0</ele><time>2026-04-05T13:58:42.999Z</time></trkpt><trkpt lat="53.709972392659694" lon="11.035450578074158"><ele>53.0</ele><time>2026-04-05T13:58:43.999Z</time></trkpt><trkpt lat="53.71005868392568" lon="11.035783457571696"><ele>53.0</ele><time>2026-04-05T13:58:44.999Z</time></trkpt><trkpt lat="53.71019083473834" lon="11.036040572738086"><ele>53.0</ele><time>2026-04-05T13:58:45.999Z</time></trkpt><trkpt lat="53.71029259908042" lon="11.036299935831476"><ele>53.66666666666667</ele><time>2026-04-05T13:58:46.999Z</time></trkpt><trkpt lat="53.71040857867413" lon="11.036552559592122"><ele>54.33333333333333</ele><time>2026-04-05T13:58:47.999Z</time></trkpt><trkpt lat="53.710531552194304" lon="11.036821254984028"><ele>55.0</ele><time>2026-04-05T13:58:49Z</time></trkpt><trkpt lat="53.710645974944946" lon="11.037078465320434"><ele>55.0</ele><time>2026-04-05T13:58:50Z</time></trkpt><trkpt lat="53.71073722633912" lon="11.037333577633712"><ele>55.0</ele><time>2026-04-05T13:58:51Z</time></trkpt><trkpt lat="53.710793899444155" lon="11.037554442160596"><ele>55.0</ele><time>2026-04-05T13:58:52Z</time></trkpt><trkpt lat="53.710855345123484" lon="11.037882837731454"><ele>55.33333333333333</ele><time>2026-04-05T13:58:53Z</time></trkpt><trkpt lat="53.71090955354071" lon="11.038236888997574"><ele>55.66666666666667</ele><time>2026-04-05T13:58:54Z</time></trkpt><trkpt lat="53.71098235624873" lon="11.038602732696747"><ele>56.0</ele><time>2026-04-05T13:58:55Z</time></trkpt><trkpt lat="53.71102840828695" lon="11.038959990186125"><ele>55.0</ele><time>2026-04-05T13:58:56Z</time></trkpt><trkpt lat="53.71110795824951" lon="11.039291344048218"><ele>54.0</ele><time>2026-04-05T13:58:57Z</time></trkpt><trkpt lat="53.7111910420767" lon="11.03960008264076"><ele>53.0</ele><time>2026-04-05T13:58:58Z</time></trkpt><trkpt lat="53.7112738575049" lon="11.039917953724904"><ele>53.0</ele><time>2026-04-05T13:58:59Z</time></trkpt><trkpt lat="53.71136437554973" lon="11.040258412055765"><ele>53.0</ele><time>2026-04-05T13:59:00Z</time></trkpt><trkpt lat="53.71145499187477" lon="11.040566986429834"><ele>53.0</ele><time>2026-04-05T13:59:01Z</time></trkpt><trkpt lat="53.71156583856907" lon="11.040853993223266"><ele>53.333333333333336</ele><time>2026-04-05T13:59:02Z</time></trkpt><trkpt lat="53.71169503149844" lon="11.04109642954719"><ele>53.66666666666667</ele><time>2026-04-05T13:59:03Z</time></trkpt><trkpt lat="53.71186021168535" lon="11.041317294335284"><ele>54.0</ele><time>2026-04-05T13:59:04Z</time></trkpt><trkpt lat="53.71201899223554" lon="11.04152875228465"><ele>53.33333333333333</ele><time>2026-04-05T13:59:05Z</time></trkpt><trkpt lat="53.71217416282679" lon="11.041760815553403"><ele>52.666666666666664</ele><time>2026-04-05T13:59:06Z</time></trkpt><trkpt lat="53.712307704455775" lon="11.041985679709262"><ele>52.0</ele><time>2026-04-05T13:59:07Z</time></trkpt><trkpt lat="53.71242700914283" lon="11.042222448284491"><ele>52.0</ele><time>2026-04-05T13:59:08Z</time></trkpt><trkpt lat="53.71254939111913" lon="11.042461651916287"><ele>52.0</ele><time>2026-04-05T13:59:09Z</time></trkpt><trkpt lat="53.71265309505933" lon="11.042686303737955"><ele>52.0</ele><time>2026-04-05T13:59:10Z</time></trkpt><trkpt lat="53.7127456854014" lon="11.042872809988852"><ele>52.75</ele><time>2026-04-05T13:59:11Z</time></trkpt><trkpt lat="53.71282876301612" lon="11.043073230074423"><ele>53.5</ele><time>2026-04-05T13:59:12Z</time></trkpt><trkpt lat="53.71292742258929" lon="11.04324251298017"><ele>54.25</ele><time>2026-04-05T13:59:13Z</time></trkpt><trkpt lat="53.71300973689973" lon="11.043360041172829"><ele>55.0</ele><time>2026-04-05T13:59:14Z</time></trkpt><trkpt lat="53.713084484679236" lon="11.04356266688097"><ele>55.0</ele><time>2026-04-05T13:59:15Z</time></trkpt><trkpt lat="53.71312774315213" lon="11.04373211188382"><ele>55.0</ele><time>2026-04-05T13:59:16Z</time></trkpt><trkpt lat="53.713122002293645" lon="11.043869185808433"><ele>55.0</ele><time>2026-04-05T13:59:17Z</time></trkpt><trkpt lat="53.713193716987035" lon="11.044068369233766"><ele>55.0</ele><time>2026-04-05T13:59:18Z</time></trkpt><trkpt lat="53.71321578173468" lon="11.044279930304539"><ele>55.25</ele><time>2026-04-05T13:59:19Z</time></trkpt><trkpt lat="53.71326143433395" lon="11.044492988354142"><ele>55.5</ele><time>2026-04-05T13:59:20Z</time></trkpt><trkpt lat="53.71331783283769" lon="11.044689813815818"><ele>55.75</ele><time>2026-04-05T13:59:21Z</time></trkpt><trkpt lat="53.713374502589105" lon="11.044910471572706"><ele>56.0</ele><time>2026-04-05T13:59:22Z</time></trkpt><trkpt lat="53.713433165110146" lon="11.045115975686821"><ele>56.0</ele><time>2026-04-05T13:59:23Z</time></trkpt><trkpt lat="53.713490443816035" lon="11.04532747605222"><ele>56.0</ele><time>2026-04-05T13:59:24Z</time></trkpt><trkpt lat="53.71354712361182" lon="11.045534361834154"><ele>56.0</ele><time>2026-04-05T13:59:25Z</time></trkpt><trkpt lat="53.713605481266704" lon="11.04573284812631"><ele>56.0</ele><time>2026-04-05T13:59:26Z</time></trkpt><trkpt lat="53.71366751197675" lon="11.045930495072596"><ele>56.25</ele><time>2026-04-05T13:59:27Z</time></trkpt><trkpt lat="53.71373706691626" lon="11.046124616240952"><ele>56.5</ele><time>2026-04-05T13:59:28Z</time></trkpt><trkpt lat="53.71380996367238" lon="11.046306507072726"><ele>56.75</ele><time>2026-04-05T13:59:29Z</time></trkpt><trkpt lat="53.71387386301622" lon="11.0464875014331"><ele>57.0</ele><time>2026-04-05T13:59:30Z</time></trkpt><trkpt lat="53.7139319034256" lon="11.046684404112497"><ele>57.0</ele><time>2026-04-05T13:59:31Z</time></trkpt><trkpt lat="53.71398249532065" lon="11.046885506527135"><ele>57.0</ele><time>2026-04-05T13:59:32Z</time></trkpt><trkpt lat="53.71404852593253" lon="11.047069813798096"><ele>57.0</ele><time>2026-04-05T13:59:33Z</time></trkpt><trkpt lat="53.71413414445905" lon="11.047246979889438"><ele>57.0</ele><time>2026-04-05T13:59:34Z</time></trkpt><trkpt lat="53.714245424674445" lon="11.047395582484178"><ele>57.0</ele><time>2026-04-05T13:59:35Z</time></trkpt><trkpt lat="53.71437840866293" lon="11.047502640491574"><ele>57.0</ele><time>2026-04-05T13:59:36Z</time></trkpt><trkpt lat="53.71451643427759" lon="11.047616527920086"><ele>57.0</ele><time>2026-04-05T13:59:37Z</time></trkpt><trkpt lat="53.71466046013845" lon="11.047764580972274"><ele>57.0</ele><time>2026-04-05T13:59:38Z</time></trkpt><trkpt lat="53.714804280342655" lon="11.047932106029569"><ele>57.0</ele><time>2026-04-05T13:59:39Z</time></trkpt><trkpt lat="53.714933948753114" lon="11.04813665132044"><ele>57.0</ele><time>2026-04-05T13:59:40Z</time></trkpt><trkpt lat="53.715038589318866" lon="11.048364751095448"><ele>57.66666666666667</ele><time>2026-04-05T13:59:41Z</time></trkpt><trkpt lat="53.71514756292944" lon="11.04860994235957"><ele>58.333333333333336</ele><time>2026-04-05T13:59:42Z</time></trkpt><trkpt lat="53.71527239833131" lon="11.048834523600451"><ele>59.0</ele><time>2026-04-05T13:59:43Z</time></trkpt><trkpt lat="53.71541351476224" lon="11.049077021548868"><ele>58.0</ele><time>2026-04-05T13:59:44Z</time></trkpt><trkpt lat="53.715550917956826" lon="11.049301562878096"><ele>57.0</ele><time>2026-04-05T13:59:45Z</time></trkpt><trkpt lat="53.715682062637626" lon="11.049501631917932"><ele>56.0</ele><time>2026-04-05T13:59:46Z</time></trkpt><trkpt lat="53.71582961067052" lon="11.049706747099522"><ele>56.0</ele><time>2026-04-05T13:59:47Z</time></trkpt><trkpt lat="53.71599503696419" lon="11.049876323496688"><ele>56.0</ele><time>2026-04-05T13:59:48Z</time></trkpt><trkpt lat="53.71616589545356" lon="11.049989862872984"><ele>56.0</ele><time>2026-04-05T13:59:49Z</time></trkpt><trkpt lat="53.716350415154814" lon="11.050069063710591"><ele>56.66666666666667</ele><time>2026-04-05T13:59:50Z</time></trkpt><trkpt lat="53.71652365278656" lon="11.050144909568939"><ele>57.33333333333333</ele><time>2026-04-05T13:59:51Z</time></trkpt><trkpt lat="53.71669076697613" lon="11.050227482682425"><ele>58.0</ele><time>2026-04-05T13:59:52Z</time></trkpt><trkpt lat="53.71685294801651" lon="11.050305975391927"><ele>58.33333333333333</ele><time>2026-04-05T13:59:53Z</time></trkpt><trkpt lat="53.71702139693991" lon="11.050386511118237"><ele>58.66666666666667</ele><time>2026-04-05T13:59:54Z</time></trkpt><trkpt lat="53.71718560195573" lon="11.050471723960811"><ele>59.0</ele><time>2026-04-05T13:59:55Z</time></trkpt><trkpt lat="53.71735299580285" lon="11.050552234978506"><ele>59.0</ele><time>2026-04-05T13:59:56Z</time></trkpt><trkpt lat="53.717522610643336" lon="11.050643662342726"><ele>59.0</ele><time>2026-04-05T13:59:57Z</time></trkpt><trkpt lat="53.717717036909306" lon="11.050680912268378"><ele>59.0</ele><time>2026-04-05T13:59:58Z</time></trkpt><trkpt lat="53.71788518860441" lon="11.050767534810639"><ele>59.333333333333336</ele><time>2026-04-05T13:59:59Z</time></trkpt><trkpt lat="53.71806821764133" lon="11.050858825603784"><ele>59.66666666666667</ele><time>2026-04-05T14:00:00Z</time></trkpt><trkpt lat="53.71824789948089" lon="11.050948630494515"><ele>60.0</ele><time>2026-04-05T14:00:01Z</time></trkpt><trkpt lat="53.718428203273255" lon="11.051040058252168"><ele>60.0</ele><time>2026-04-05T14:00:02Z</time></trkpt><trkpt lat="53.718582952773815" lon="11.05114166864153"><ele>60.0</ele><time>2026-04-05T14:00:03Z</time></trkpt><trkpt lat="53.71876204490796" lon="11.0512105472501"><ele>60.0</ele><time>2026-04-05T14:00:04Z</time></trkpt><trkpt lat="53.71893337791652" lon="11.051322014879524"><ele>60.0</ele><time>2026-04-05T14:00:05Z</time></trkpt><trkpt lat="53.71911454017261" lon="11.051388083700383"><ele>60.0</ele><time>2026-04-05T14:00:06Z</time></trkpt><trkpt lat="53.719288141376545" lon="11.051476112748114"><ele>60.0</ele><time>2026-04-05T14:00:07Z</time></trkpt><trkpt lat="53.719457661860275" lon="11.051562072732521"><ele>60.0</ele><time>2026-04-05T14:00:08Z</time></trkpt><trkpt lat="53.71961949578648" lon="11.051671346832961"><ele>60.0</ele><time>2026-04-05T14:00:09Z</time></trkpt><trkpt lat="53.71979112225748" lon="11.05174787375942"><ele>60.0</ele><time>2026-04-05T14:00:10Z</time></trkpt><trkpt lat="53.719955458500685" lon="11.051819828732675"><ele>60.0</ele><time>2026-04-05T14:00:11Z</time></trkpt><trkpt lat="53.72010559358868" lon="11.051869807928739"><ele>60.0</ele><time>2026-04-05T14:00:12Z</time></trkpt><trkpt lat="53.720278158253095" lon="11.051997526433173"><ele>60.0</ele><time>2026-04-05T14:00:13Z</time></trkpt><trkpt lat="53.720443633626125" lon="11.05201185605138"><ele>59.66666666666667</ele><time>2026-04-05T14:00:14Z</time></trkpt><trkpt lat="53.72060593297089" lon="11.052121109227516"><ele>59.333333333333336</ele><time>2026-04-05T14:00:15Z</time></trkpt><trkpt lat="53.72078454792583" lon="11.052217826652358"><ele>59.0</ele><time>2026-04-05T14:00:16Z</time></trkpt><trkpt lat="53.720956812395485" lon="11.052285755745466"><ele>58.66666666666667</ele><time>2026-04-05T14:00:17Z</time></trkpt><trkpt lat="53.7211271184238" lon="11.052363278929624"><ele>58.33333333333333</ele><time>2026-04-05T14:00:18Z</time></trkpt><trkpt lat="53.72130479280043" lon="11.05250746169154"><ele>58.0</ele><time>2026-04-05T14:00:19Z</time></trkpt><trkpt lat="53.72149305648446" lon="11.052580566031502"><ele>57.33333333333333</ele><time>2026-04-05T14:00:20Z</time></trkpt><trkpt lat="53.721690832038846" lon="11.052698450066446"><ele>56.66666666666667</ele><time>2026-04-05T14:00:21Z</time></trkpt><trkpt lat="53.72189514287482" lon="11.052790478922478"><ele>56.0</ele><time>2026-04-05T14:00:22Z</time></trkpt><trkpt lat="53.722097412950504" lon="11.052890118644994"><ele>55.333333333333336</ele><time>2026-04-05T14:00:23Z</time></trkpt><trkpt lat="53.7222969345898" lon="11.05298303856389"><ele>54.66666666666667</ele><time>2026-04-05T14:00:24Z</time></trkpt><trkpt lat="53.722485674305474" lon="11.053089992669001"><ele>54.0</ele><time>2026-04-05T14:00:25Z</time></trkpt><trkpt lat="53.72266723137331" lon="11.053181761468105"><ele>53.66666666666667</ele><time>2026-04-05T14:00:26Z</time></trkpt><trkpt lat="53.7228635477152" lon="11.053275314488639"><ele>53.333333333333336</ele><time>2026-04-05T14:00:27Z</time></trkpt><trkpt lat="53.72304506196845" lon="11.053387009274093"><ele>53.0</ele><time>2026-04-05T14:00:28Z</time></trkpt><trkpt lat="53.72322051571366" lon="11.053528664901718"><ele>52.0</ele><time>2026-04-05T14:00:29Z</time></trkpt><trkpt lat="53.723392150026264" lon="11.053702642313002"><ele>51.0</ele><time>2026-04-05T14:00:30Z</time></trkpt><trkpt lat="53.72355582930099" lon="11.053882895183"><ele>50.0</ele><time>2026-04-05T14:00:31Z</time></trkpt><trkpt lat="53.72372794917697" lon="11.054073922423715"><ele>50.0</ele><time>2026-04-05T14:00:32Z</time></trkpt><trkpt lat="53.723888942698075" lon="11.054250365952637"><ele>50.0</ele><time>2026-04-05T14:00:33Z</time></trkpt><trkpt lat="53.72403746148043" lon="11.054412545681718"><ele>50.0</ele><time>2026-04-05T14:00:34Z</time></trkpt><trkpt lat="53.7241937063301" lon="11.05458316200297"><ele>50.0</ele><time>2026-04-05T14:00:35Z</time></trkpt><trkpt lat="53.72437777206025" lon="11.054741983249825"><ele>50.0</ele><time>2026-04-05T14:00:36Z</time></trkpt><trkpt lat="53.72452704723544" lon="11.054900586614222"><ele>50.0</ele><time>2026-04-05T14:00:37Z</time></trkpt><trkpt lat="53.72467175776822" lon="11.055091252510323"><ele>50.0</ele><time>2026-04-05T14:00:38Z</time></trkpt><trkpt lat="53.7248250112015" lon="11.0552767076337"><ele>50.0</ele><time>2026-04-05T14:00:39Z</time></trkpt><trkpt lat="53.72497455967007" lon="11.055418855200088"><ele>50.0</ele><time>2026-04-05T14:00:40Z</time></trkpt><trkpt lat="53.725127138974905" lon="11.055603055227039"><ele>49.66666666666667</ele><time>2026-04-05T14:00:41Z</time></trkpt><trkpt lat="53.72526783026134" lon="11.055792275446969"><ele>49.33333333333333</ele><time>2026-04-05T14:00:42Z</time></trkpt><trkpt lat="53.7253956516838" lon="11.056025030588797"><ele>49.0</ele><time>2026-04-05T14:00:43Z</time></trkpt><trkpt lat="53.725486912928524" lon="11.056258943645986"><ele>49.0</ele><time>2026-04-05T14:00:44Z</time></trkpt><trkpt lat="53.7255409373019" lon="11.056506187916721"><ele>49.0</ele><time>2026-04-05T14:00:45Z</time></trkpt><trkpt lat="53.725572283447306" lon="11.056786000183111"><ele>49.0</ele><time>2026-04-05T14:00:46Z</time></trkpt><trkpt lat="53.725577368250974" lon="11.057117495928429"><ele>48.33333333333333</ele><time>2026-04-05T14:00:47Z</time></trkpt><trkpt lat="53.72557539585206" lon="11.057436836553318"><ele>47.666666666666664</ele><time>2026-04-05T14:00:48Z</time></trkpt><trkpt lat="53.72556989343485" lon="11.057778877059366"><ele>47.0</ele><time>2026-04-05T14:00:49Z</time></trkpt><trkpt lat="53.725564616798565" lon="11.058106882857553"><ele>46.0</ele><time>2026-04-05T14:00:50Z</time></trkpt><trkpt lat="53.72557409735489" lon="11.058439835831145"><ele>45.0</ele><time>2026-04-05T14:00:51Z</time></trkpt><trkpt lat="53.72553383266225" lon="11.058749026335551"><ele>44.0</ele><time>2026-04-05T14:00:52Z</time></trkpt><trkpt lat="53.725558591189035" lon="11.059079210782839"><ele>43.666666666666664</ele><time>2026-04-05T14:00:53Z</time></trkpt><trkpt lat="53.725600237414014" lon="11.059405579586732"><ele>43.333333333333336</ele><time>2026-04-05T14:00:54Z</time></trkpt><trkpt lat="53.725680947003774" lon="11.0597350157252"><ele>43.0</ele><time>2026-04-05T14:00:55Z</time></trkpt><trkpt lat="53.72576857932334" lon="11.060018784340034"><ele>42.66666666666667</ele><time>2026-04-05T14:00:56Z</time></trkpt><trkpt lat="53.72586553675998" lon="11.060250856510752"><ele>42.333333333333336</ele><time>2026-04-05T14:00:57Z</time></trkpt><trkpt lat="53.725957296332446" lon="11.060473125110503"><ele>42.0</ele><time>2026-04-05T14:00:58Z</time></trkpt><trkpt lat="53.726046435885365" lon="11.060696575922323"><ele>43.75</ele><time>2026-04-05T14:00:59Z</time></trkpt><trkpt lat="53.72614657500237" lon="11.060876240767588"><ele>45.5</ele><time>2026-04-05T14:01:00Z</time></trkpt><trkpt lat="53.72623353798733" lon="11.06104353303867"><ele>47.25</ele><time>2026-04-05T14:01:01Z</time></trkpt><trkpt lat="53.72633700684901" lon="11.061244023690215"><ele>49.0</ele><time>2026-04-05T14:01:02Z</time></trkpt><trkpt lat="53.726395404386786" lon="11.06135630458619"><ele>49.0</ele><time>2026-04-05T14:01:03Z</time></trkpt><trkpt lat="53.72648088475119" lon="11.061528885579472"><ele>49.0</ele><time>2026-04-05T14:01:04Z</time></trkpt><trkpt lat="53.726554086016215" lon="11.061661018157618"><ele>49.0</ele><time>2026-04-05T14:01:05Z</time></trkpt><trkpt lat="53.72661646649183" lon="11.061797293510569"><ele>49.0</ele><time>2026-04-05T14:01:06Z</time></trkpt><trkpt lat="53.72668821785828" lon="11.061936567410847"><ele>48.75</ele><time>2026-04-05T14:01:07Z</time></trkpt><trkpt lat="53.72676046988049" lon="11.062073342170924"><ele>48.5</ele><time>2026-04-05T14:01:08Z</time></trkpt><trkpt lat="53.72683676532232" lon="11.062211107382343"><ele>48.25</ele><time>2026-04-05T14:01:09Z</time></trkpt><trkpt lat="53.726917080016825" lon="11.062351057948286"><ele>48.0</ele><time>2026-04-05T14:01:10Z</time></trkpt><trkpt lat="53.72700167949385" lon="11.062496883333523"><ele>47.75</ele><time>2026-04-05T14:01:11Z</time></trkpt><trkpt lat="53.72708189623878" lon="11.062638428538092"><ele>47.5</ele><time>2026-04-05T14:01:12Z</time></trkpt><trkpt lat="53.72716859575119" lon="11.062792243541965"><ele>47.25</ele><time>2026-04-05T14:01:13Z</time></trkpt><trkpt lat="53.7272628934312" lon="11.06297625567389"><ele>47.0</ele><time>2026-04-05T14:01:14Z</time></trkpt><trkpt lat="53.72735861448356" lon="11.063173487876982"><ele>46.25</ele><time>2026-04-05T14:01:15Z</time></trkpt><trkpt lat="53.72745971713561" lon="11.06337558772923"><ele>45.5</ele><time>2026-04-05T14:01:16Z</time></trkpt><trkpt lat="53.727549247023795" lon="11.063568614326446"><ele>44.75</ele><time>2026-04-05T14:01:17Z</time></trkpt><trkpt lat="53.727627619361094" lon="11.063751734234518"><ele>44.0</ele><time>2026-04-05T14:01:18Z</time></trkpt><trkpt lat="53.72770597531948" lon="11.063922117594334"><ele>43.25</ele><time>2026-04-05T14:01:19Z</time></trkpt><trkpt lat="53.727777946538104" lon="11.064090775159652"><ele>42.5</ele><time>2026-04-05T14:01:20Z</time></trkpt><trkpt lat="53.72786478680254" lon="11.064268114630313"><ele>41.75</ele><time>2026-04-05T14:01:21Z</time></trkpt><trkpt lat="53.72794198676064" lon="11.064407431276056"><ele>41.0</ele><time>2026-04-05T14:01:22Z</time></trkpt><trkpt lat="53.72803599881662" lon="11.064557708754762"><ele>41.0</ele><time>2026-04-05T14:01:23Z</time></trkpt><trkpt lat="53.72814691318276" lon="11.064690411227998"><ele>41.0</ele><time>2026-04-05T14:01:24Z</time></trkpt><trkpt lat="53.7282760715392" lon="11.06476406744961"><ele>41.0</ele><time>2026-04-05T14:01:25Z</time></trkpt><trkpt lat="53.72842190681399" lon="11.064844325847112"><ele>41.0</ele><time>2026-04-05T14:01:26Z</time></trkpt><trkpt lat="53.7285590418687" lon="11.064962249470199"><ele>41.33333333333333</ele><time>2026-04-05T14:01:27Z</time></trkpt><trkpt lat="53.72868075559" lon="11.065104062758383"><ele>41.666666666666664</ele><time>2026-04-05T14:01:28Z</time></trkpt><trkpt lat="53.72881461084016" lon="11.065239065456975"><ele>42.0</ele><time>2026-04-05T14:01:29Z</time></trkpt><trkpt lat="53.728965402373404" lon="11.065377940897001"><ele>42.0</ele><time>2026-04-05T14:01:30Z</time></trkpt><trkpt lat="53.729098040619164" lon="11.065519703812614"><ele>42.0</ele><time>2026-04-05T14:01:31Z</time></trkpt><trkpt lat="53.72921798933719" lon="11.065670682367598"><ele>42.0</ele><time>2026-04-05T14:01:32Z</time></trkpt><trkpt lat="53.729295313901304" lon="11.065827792467289"><ele>42.0</ele><time>2026-04-05T14:01:33Z</time></trkpt><trkpt lat="53.72933182982147" lon="11.06605045084797"><ele>42.0</ele><time>2026-04-05T14:01:34Z</time></trkpt><trkpt lat="53.7293443752188" lon="11.066314859449873"><ele>42.0</ele><time>2026-04-05T14:01:35Z</time></trkpt><trkpt lat="53.72935253606599" lon="11.066612015411755"><ele>42.0</ele><time>2026-04-05T14:01:36Z</time></trkpt><trkpt lat="53.72936922658182" lon="11.066908629280052"><ele>42.333333333333336</ele><time>2026-04-05T14:01:37Z</time></trkpt><trkpt lat="53.72939745095254" lon="11.067205968032333"><ele>42.66666666666667</ele><time>2026-04-05T14:01:38Z</time></trkpt><trkpt lat="53.72943575902067" lon="11.067492043493832"><ele>43.0</ele><time>2026-04-05T14:01:39Z</time></trkpt><trkpt lat="53.72947283774303" lon="11.067760257490242"><ele>42.0</ele><time>2026-04-05T14:01:40Z</time></trkpt><trkpt lat="53.72950843328551" lon="11.068005740198988"><ele>41.0</ele><time>2026-04-05T14:01:41Z</time></trkpt><trkpt lat="53.72954252391067" lon="11.068202513655175"><ele>40.0</ele><time>2026-04-05T14:01:42Z</time></trkpt><trkpt lat="53.729568511417604" lon="11.06837649942012"><ele>39.0</ele><time>2026-04-05T14:01:43Z</time></trkpt><trkpt lat="53.72958792050292" lon="11.06851379541529"><ele>38.333333333333336</ele><time>2026-04-05T14:01:44Z</time></trkpt><trkpt lat="53.72960358955412" lon="11.06865088306194"><ele>37.666666666666664</ele><time>2026-04-05T14:01:46Z</time></trkpt><trkpt lat="53.7295403580743" lon="11.068643974935828"><ele>37.0</ele><time>2026-04-05T14:01:58Z</time></trkpt><trkpt lat="53.72949782089226" lon="11.068552117088943"><ele>36.33333333333333</ele><time>2026-04-05T14:02:19Z</time></trkpt><trkpt lat="53.72956251389527" lon="11.068658688385446"><ele>35.666666666666664</ele><time>2026-04-05T14:02:22Z</time></trkpt><trkpt lat="53.72967408268" lon="11.068667864379673"><ele>35.0</ele><time>2026-04-05T14:02:24Z</time></trkpt><trkpt lat="53.729750655025235" lon="11.06864802410048"><ele>35.0</ele><time>2026-04-05T14:02:25Z</time></trkpt><trkpt lat="53.729826964109655" lon="11.06861898471676"><ele>35.0</ele><time>2026-04-05T14:02:26Z</time></trkpt><trkpt lat="53.72991636679462" lon="11.06865471357451"><ele>35.0</ele><time>2026-04-05T14:02:26.999Z</time></trkpt><trkpt lat="53.73000571895557" lon="11.06859436769251"><ele>35.0</ele><time>2026-04-05T14:02:27.999Z</time></trkpt><trkpt lat="53.730101431643575" lon="11.068529905005505"><ele>35.0</ele><time>2026-04-05T14:02:28.999Z</time></trkpt><trkpt lat="53.7302306473336" lon="11.068442877555325"><ele>34.8</ele><time>2026-04-05T14:02:29.999Z</time></trkpt><trkpt lat="53.730323701189334" lon="11.068380205286367"><ele>34.6</ele><time>2026-04-05T14:02:30.999Z</time></trkpt><trkpt lat="53.73042176096224" lon="11.068314491590348"><ele>34.4</ele><time>2026-04-05T14:02:31.999Z</time></trkpt><trkpt lat="53.73052458739763" lon="11.068245831546488"><ele>34.2</ele><time>2026-04-05T14:02:32.999Z</time></trkpt><trkpt lat="53.73063984425777" lon="11.06816887121648"><ele>34.0</ele><time>2026-04-05T14:02:33.999Z</time></trkpt><trkpt lat="53.73075923711502" lon="11.068089149417947"><ele>33.25</ele><time>2026-04-05T14:02:34.999Z</time></trkpt><trkpt lat="53.73088151920231" lon="11.06800749782306"><ele>32.5</ele><time>2026-04-05T14:02:35.999Z</time></trkpt><trkpt lat="53.731010217111375" lon="11.067921563062688"><ele>31.75</ele><time>2026-04-05T14:02:36.999Z</time></trkpt><trkpt lat="53.73114434231137" lon="11.067832003755875"><ele>31.0</ele><time>2026-04-05T14:02:37.999Z</time></trkpt><trkpt lat="53.73128137265921" lon="11.06774037407129"><ele>31.0</ele><time>2026-04-05T14:02:38.999Z</time></trkpt><trkpt lat="53.731415194169166" lon="11.06765082104965"><ele>31.0</ele><time>2026-04-05T14:02:39.999Z</time></trkpt><trkpt lat="53.73155055661526" lon="11.067560236999599"><ele>31.0</ele><time>2026-04-05T14:02:40.999Z</time></trkpt><trkpt lat="53.73169404912053" lon="11.067464212175997"><ele>31.0</ele><time>2026-04-05T14:02:41.999Z</time></trkpt><trkpt lat="53.73183716537279" lon="11.06736843917563"><ele>30.666666666666668</ele><time>2026-04-05T14:02:42.999Z</time></trkpt><trkpt lat="53.731980990980574" lon="11.067272237695356"><ele>30.333333333333336</ele><time>2026-04-05T14:02:43.999Z</time></trkpt><trkpt lat="53.7321315232125" lon="11.067171865466703"><ele>30.0</ele><time>2026-04-05T14:02:44.999Z</time></trkpt><trkpt lat="53.73228562006117" lon="11.06706911645748"><ele>30.0</ele><time>2026-04-05T14:02:45.999Z</time></trkpt><trkpt lat="53.732449106901015" lon="11.066960106495813"><ele>30.0</ele><time>2026-04-05T14:02:46.999Z</time></trkpt><trkpt lat="53.73260066665754" lon="11.066859049088148"><ele>30.0</ele><time>2026-04-05T14:02:47.999Z</time></trkpt><trkpt lat="53.7327661894273" lon="11.066748681584267"><ele>29.333333333333336</ele><time>2026-04-05T14:02:48.999Z</time></trkpt><trkpt lat="53.73293090406295" lon="11.06662126400117"><ele>28.666666666666668</ele><time>2026-04-05T14:02:49.999Z</time></trkpt><trkpt lat="53.733090328561936" lon="11.066508326033288"><ele>28.0</ele><time>2026-04-05T14:02:50.999Z</time></trkpt><trkpt lat="53.7332572081988" lon="11.066406861363465"><ele>28.0</ele><time>2026-04-05T14:02:51.999Z</time></trkpt><trkpt lat="53.733407127667135" lon="11.066271181732859"><ele>28.0</ele><time>2026-04-05T14:02:52.999Z</time></trkpt><trkpt lat="53.73355758996806" lon="11.06613931496094"><ele>28.0</ele><time>2026-04-05T14:02:53.999Z</time></trkpt><trkpt lat="53.73371374655029" lon="11.066013505457164"><ele>28.0</ele><time>2026-04-05T14:02:54.999Z</time></trkpt><trkpt lat="53.73386370472265" lon="11.065863191125011"><ele>28.0</ele><time>2026-04-05T14:02:55.999Z</time></trkpt><trkpt lat="53.733981393919876" lon="11.065698130878246"><ele>28.0</ele><time>2026-04-05T14:02:56.999Z</time></trkpt><trkpt lat="53.73408658958092" lon="11.065534848435641"><ele>28.0</ele><time>2026-04-05T14:02:57.999Z</time></trkpt><trkpt lat="53.73417466289141" lon="11.065369639002913"><ele>28.0</ele><time>2026-04-05T14:02:58.999Z</time></trkpt><trkpt lat="53.73429220657742" lon="11.065266819995415"><ele>28.0</ele><time>2026-04-05T14:02:59.999Z</time></trkpt><trkpt lat="53.734362392792946" lon="11.06511123512361"><ele>28.0</ele><time>2026-04-05T14:03:00.999Z</time></trkpt><trkpt lat="53.73443629372106" lon="11.064972405062369"><ele>28.0</ele><time>2026-04-05T14:03:01.999Z</time></trkpt><trkpt lat="53.73450151703577" lon="11.064866464155637"><ele>27.999999999999996</ele><time>2026-04-05T14:03:02.999Z</time></trkpt><trkpt lat="53.73455754763804" lon="11.064773557727149"><ele>27.999999999999996</ele><time>2026-04-05T14:03:03.999Z</time></trkpt><trkpt lat="53.73462369279732" lon="11.064743188076614"><ele>28.0</ele><time>2026-04-05T14:03:04.999Z</time></trkpt><trkpt lat="53.73463039831584" lon="11.064981133370688"><ele>28.0</ele><time>2026-04-05T14:03:07.999Z</time></trkpt><trkpt lat="53.734630807948776" lon="11.065101928897528"><ele>28.0</ele><time>2026-04-05T14:03:08.999Z</time></trkpt><trkpt lat="53.73462228754118" lon="11.065234972178361"><ele>27.999999999999996</ele><time>2026-04-05T14:03:09.999Z</time></trkpt><trkpt lat="53.7346120376994" lon="11.065389033846916"><ele>27.999999999999996</ele><time>2026-04-05T14:03:10.999Z</time></trkpt><trkpt lat="53.73458063155122" lon="11.065567586641455"><ele>28.0</ele><time>2026-04-05T14:03:11.999Z</time></trkpt><trkpt lat="53.734581916251045" lon="11.065736497731221"><ele>28.0</ele><time>2026-04-05T14:03:12.999Z</time></trkpt><trkpt lat="53.73456537634482" lon="11.065904793645846"><ele>28.0</ele><time>2026-04-05T14:03:13.999Z</time></trkpt><trkpt lat="53.734567756241674" lon="11.06616556011728"><ele>28.0</ele><time>2026-04-05T14:03:14.999Z</time></trkpt><trkpt lat="53.7345587872401" lon="11.066390879605393"><ele>28.0</ele><time>2026-04-05T14:03:15.999Z</time></trkpt><trkpt lat="53.73453563555046" lon="11.066597821587138"><ele>28.0</ele><time>2026-04-05T14:03:16.999Z</time></trkpt><trkpt lat="53.734509064741054" lon="11.066819114650043"><ele>27.75</ele><time>2026-04-05T14:03:17.999Z</time></trkpt><trkpt lat="53.73448679729955" lon="11.067082953964203"><ele>27.5</ele><time>2026-04-05T14:03:18.999Z</time></trkpt><trkpt lat="53.734468573043664" lon="11.06737241390258"><ele>27.25</ele><time>2026-04-05T14:03:19.999Z</time></trkpt><trkpt lat="53.734462112495166" lon="11.067562238574379"><ele>27.0</ele><time>2026-04-05T14:03:20.999Z</time></trkpt><trkpt lat="53.734449212701904" lon="11.067852694417365"><ele>26.5</ele><time>2026-04-05T14:03:21.999Z</time></trkpt><trkpt lat="53.734517880030516" lon="11.068087949204893"><ele>26.0</ele><time>2026-04-05T14:03:22.999Z</time></trkpt><trkpt lat="53.734631496993885" lon="11.068213511784712"><ele>25.5</ele><time>2026-04-05T14:03:23.999Z</time></trkpt><trkpt lat="53.73474119118985" lon="11.068343950075342"><ele>25.0</ele><time>2026-04-05T14:03:24.999Z</time></trkpt><trkpt lat="53.73487983559058" lon="11.068469916085284"><ele>25.0</ele><time>2026-04-05T14:03:25.999Z</time></trkpt><trkpt lat="53.73500296977358" lon="11.068626154107672"><ele>25.0</ele><time>2026-04-05T14:03:26.999Z</time></trkpt><trkpt lat="53.73513878940942" lon="11.068786808730618"><ele>25.0</ele><time>2026-04-05T14:03:27.999Z</time></trkpt><trkpt lat="53.73526431070186" lon="11.068927613373122"><ele>25.0</ele><time>2026-04-05T14:03:28.999Z</time></trkpt><trkpt lat="53.73538873224678" lon="11.069104176348553"><ele>25.0</ele><time>2026-04-05T14:03:29.999Z</time></trkpt><trkpt lat="53.735526802585504" lon="11.069247899684521"><ele>25.0</ele><time>2026-04-05T14:03:30.999Z</time></trkpt><trkpt lat="53.735660639257574" lon="11.069409237008065"><ele>25.666666666666668</ele><time>2026-04-05T14:03:31.999Z</time></trkpt><trkpt lat="53.73578068962231" lon="11.069578910378201"><ele>26.333333333333336</ele><time>2026-04-05T14:03:32.999Z</time></trkpt><trkpt lat="53.73590956849868" lon="11.069739225696642"><ele>27.0</ele><time>2026-04-05T14:03:33.999Z</time></trkpt><trkpt lat="53.736048703304945" lon="11.069926686625552"><ele>28.333333333333336</ele><time>2026-04-05T14:03:34.999Z</time></trkpt><trkpt lat="53.736178766821894" lon="11.070103971302297"><ele>29.666666666666668</ele><time>2026-04-05T14:03:35.999Z</time></trkpt><trkpt lat="53.73630780079238" lon="11.070280341568774"><ele>31.0</ele><time>2026-04-05T14:03:36.999Z</time></trkpt><trkpt lat="53.73642601354689" lon="11.070439578838904"><ele>31.0</ele><time>2026-04-05T14:03:37.999Z</time></trkpt><trkpt lat="53.73655223301712" lon="11.07061259382905"><ele>31.0</ele><time>2026-04-05T14:03:38.999Z</time></trkpt><trkpt lat="53.73667752515842" lon="11.070793898448807"><ele>31.0</ele><time>2026-04-05T14:03:39.999Z</time></trkpt><trkpt lat="53.7368101649171" lon="11.07098640030675"><ele>31.0</ele><time>2026-04-05T14:03:40.999Z</time></trkpt><trkpt lat="53.73693150919404" lon="11.071171248185431"><ele>31.0</ele><time>2026-04-05T14:03:41.999Z</time></trkpt><trkpt lat="53.737085969724355" lon="11.071406543501297"><ele>31.0</ele><time>2026-04-05T14:03:42.999Z</time></trkpt><trkpt lat="53.73722071219981" lon="11.071612221053174"><ele>31.0</ele><time>2026-04-05T14:03:43.999Z</time></trkpt><trkpt lat="53.73734209632788" lon="11.071792978364085"><ele>31.0</ele><time>2026-04-05T14:03:44.999Z</time></trkpt><trkpt lat="53.73747561530167" lon="11.071989209498296"><ele>31.0</ele><time>2026-04-05T14:03:45.999Z</time></trkpt><trkpt lat="53.737625057098036" lon="11.072169568247334"><ele>30.333333333333336</ele><time>2026-04-05T14:03:46.999Z</time></trkpt><trkpt lat="53.737727480937124" lon="11.072350593113853"><ele>29.666666666666664</ele><time>2026-04-05T14:03:47.999Z</time></trkpt><trkpt lat="53.73788078251229" lon="11.072569315417475"><ele>29.0</ele><time>2026-04-05T14:03:48.999Z</time></trkpt><trkpt lat="53.73801386727257" lon="11.072756654081752"><ele>29.0</ele><time>2026-04-05T14:03:49.999Z</time></trkpt><trkpt lat="53.73816325281637" lon="11.07296460128945"><ele>29.0</ele><time>2026-04-05T14:03:50.999Z</time></trkpt><trkpt lat="53.738303477598556" lon="11.07315979643968"><ele>29.0</ele><time>2026-04-05T14:03:51.999Z</time></trkpt><trkpt lat="53.7384428534037" lon="11.073353809805191"><ele>29.333333333333332</ele><time>2026-04-05T14:03:52.999Z</time></trkpt><trkpt lat="53.73857723438059" lon="11.073548185667432"><ele>29.666666666666664</ele><time>2026-04-05T14:03:53.999Z</time></trkpt><trkpt lat="53.73871696770297" lon="11.073736415202616"><ele>30.0</ele><time>2026-04-05T14:03:54.999Z</time></trkpt><trkpt lat="53.73888306992381" lon="11.07387933422031"><ele>30.0</ele><time>2026-04-05T14:03:55.999Z</time></trkpt><trkpt lat="53.73902310976112" lon="11.074006826501451"><ele>30.0</ele><time>2026-04-05T14:03:56.999Z</time></trkpt><trkpt lat="53.73916139887606" lon="11.074028913857653"><ele>30.0</ele><time>2026-04-05T14:03:57.999Z</time></trkpt><trkpt lat="53.73931325644997" lon="11.074040621560089"><ele>29.666666666666664</ele><time>2026-04-05T14:03:58.999Z</time></trkpt><trkpt lat="53.7394452243873" lon="11.074048306974563"><ele>29.333333333333332</ele><time>2026-04-05T14:03:59.999Z</time></trkpt><trkpt lat="53.7395794125682" lon="11.07405612168209"><ele>29.0</ele><time>2026-04-05T14:04:00.999Z</time></trkpt><trkpt lat="53.739767914579595" lon="11.074039046039008"><ele>29.0</ele><time>2026-04-05T14:04:01.999Z</time></trkpt><trkpt lat="53.73992966326275" lon="11.074048465782278"><ele>29.0</ele><time>2026-04-05T14:04:02.999Z</time></trkpt><trkpt lat="53.74007067891048" lon="11.074049516664504"><ele>29.0</ele><time>2026-04-05T14:04:03.999Z</time></trkpt><trkpt lat="53.74022964557518" lon="11.074094134446788"><ele>29.5</ele><time>2026-04-05T14:04:04.999Z</time></trkpt><trkpt lat="53.740374173199974" lon="11.074100558106057"><ele>30.0</ele><time>2026-04-05T14:04:05.999Z</time></trkpt><trkpt lat="53.74051559924388" lon="11.074105728490633"><ele>30.5</ele><time>2026-04-05T14:04:06.999Z</time></trkpt><trkpt lat="53.74066606772093" lon="11.074112013493613"><ele>31.0</ele><time>2026-04-05T14:04:07.999Z</time></trkpt><trkpt lat="53.740804030408725" lon="11.074090405534811"><ele>31.0</ele><time>2026-04-05T14:04:08.999Z</time></trkpt><trkpt lat="53.740960728606616" lon="11.074086058443605"><ele>31.0</ele><time>2026-04-05T14:04:09.999Z</time></trkpt><trkpt lat="53.7411009750247" lon="11.074118947338812"><ele>31.0</ele><time>2026-04-05T14:04:10.999Z</time></trkpt><trkpt lat="53.74126344357639" lon="11.074154110923969"><ele>31.75</ele><time>2026-04-05T14:04:11.999Z</time></trkpt><trkpt lat="53.74139054630774" lon="11.074275712379587"><ele>32.5</ele><time>2026-04-05T14:04:12.999Z</time></trkpt><trkpt lat="53.741484653048445" lon="11.074392488856008"><ele>33.25</ele><time>2026-04-05T14:04:13.999Z</time></trkpt><trkpt lat="53.74159190572761" lon="11.074538731872419"><ele>34.0</ele><time>2026-04-05T14:04:14.999Z</time></trkpt><trkpt lat="53.74170948242361" lon="11.074699144254655"><ele>34.0</ele><time>2026-04-05T14:04:15.999Z</time></trkpt><trkpt lat="53.74184021074274" lon="11.074879881044168"><ele>34.0</ele><time>2026-04-05T14:04:16.999Z</time></trkpt><trkpt lat="53.7419698148428" lon="11.075059009527601"><ele>34.0</ele><time>2026-04-05T14:04:17.999Z</time></trkpt><trkpt lat="53.74209673251595" lon="11.075206295005852"><ele>34.66666666666667</ele><time>2026-04-05T14:04:18.999Z</time></trkpt><trkpt lat="53.74221354850261" lon="11.075395371774134"><ele>35.333333333333336</ele><time>2026-04-05T14:04:19.999Z</time></trkpt><trkpt lat="53.742334988932626" lon="11.075575500819568"><ele>36.0</ele><time>2026-04-05T14:04:20.999Z</time></trkpt><trkpt lat="53.74245606098719" lon="11.075773708503185"><ele>36.666666666666664</ele><time>2026-04-05T14:04:21.999Z</time></trkpt><trkpt lat="53.742587721149164" lon="11.075956287092847"><ele>37.33333333333333</ele><time>2026-04-05T14:04:22.999Z</time></trkpt><trkpt lat="53.7427162764819" lon="11.076137125707856"><ele>38.0</ele><time>2026-04-05T14:04:23.999Z</time></trkpt><trkpt lat="53.74284920106459" lon="11.076314602398297"><ele>38.33333333333333</ele><time>2026-04-05T14:04:24.999Z</time></trkpt><trkpt lat="53.74298476601458" lon="11.07649446116553"><ele>38.666666666666664</ele><time>2026-04-05T14:04:25.999Z</time></trkpt><trkpt lat="53.74311997340983" lon="11.076657237020466"><ele>39.0</ele><time>2026-04-05T14:04:26.999Z</time></trkpt><trkpt lat="53.74326204611077" lon="11.076753517382278"><ele>39.0</ele><time>2026-04-05T14:04:27.999Z</time></trkpt><trkpt lat="53.74341388234853" lon="11.076794589746836"><ele>39.0</ele><time>2026-04-05T14:04:28.999Z</time></trkpt><trkpt lat="53.7435823322905" lon="11.07682532231745"><ele>39.0</ele><time>2026-04-05T14:04:29.999Z</time></trkpt><trkpt lat="53.74377013497696" lon="11.076939183806454"><ele>39.0</ele><time>2026-04-05T14:04:30.999Z</time></trkpt><trkpt lat="53.74394793502539" lon="11.077100867408719"><ele>39.0</ele><time>2026-04-05T14:04:31.999Z</time></trkpt><trkpt lat="53.74406090600063" lon="11.077269090113518"><ele>39.0</ele><time>2026-04-05T14:04:32.999Z</time></trkpt><trkpt lat="53.744168078036644" lon="11.077450825335251"><ele>40.0</ele><time>2026-04-05T14:04:33.999Z</time></trkpt><trkpt lat="53.74428638096773" lon="11.077649559830157"><ele>41.0</ele><time>2026-04-05T14:04:34.999Z</time></trkpt><trkpt lat="53.7444195905151" lon="11.077834624012521"><ele>42.0</ele><time>2026-04-05T14:04:35.999Z</time></trkpt><trkpt lat="53.7445740360926" lon="11.077971084431072"><ele>42.0</ele><time>2026-04-05T14:04:36.999Z</time></trkpt><trkpt lat="53.74471779302571" lon="11.078080200192542"><ele>42.0</ele><time>2026-04-05T14:04:37.999Z</time></trkpt><trkpt lat="53.744873222613364" lon="11.078193043886682"><ele>42.0</ele><time>2026-04-05T14:04:38.999Z</time></trkpt><trkpt lat="53.74503765350781" lon="11.078311699856627"><ele>42.0</ele><time>2026-04-05T14:04:39.999Z</time></trkpt><trkpt lat="53.74517926937311" lon="11.078508953299814"><ele>42.0</ele><time>2026-04-05T14:04:40.999Z</time></trkpt><trkpt lat="53.74530413433253" lon="11.0786696511768"><ele>42.0</ele><time>2026-04-05T14:04:41.999Z</time></trkpt><trkpt lat="53.7454456412521" lon="11.078855125938077"><ele>41.666666666666664</ele><time>2026-04-05T14:04:42.999Z</time></trkpt><trkpt lat="53.74556595583132" lon="11.079010051815619"><ele>41.33333333333333</ele><time>2026-04-05T14:04:43.999Z</time></trkpt><trkpt lat="53.74569711481911" lon="11.079151216008027"><ele>41.0</ele><time>2026-04-05T14:04:44.999Z</time></trkpt><trkpt lat="53.7458210480938" lon="11.079340889904305"><ele>41.0</ele><time>2026-04-05T14:04:45.999Z</time></trkpt><trkpt lat="53.745962663011056" lon="11.079446599533554"><ele>41.0</ele><time>2026-04-05T14:04:46.999Z</time></trkpt><trkpt lat="53.7461096579388" lon="11.079542207498973"><ele>41.0</ele><time>2026-04-05T14:04:47.999Z</time></trkpt><trkpt lat="53.74627792416477" lon="11.079556804115754"><ele>41.33333333333333</ele><time>2026-04-05T14:04:48.999Z</time></trkpt><trkpt lat="53.7464427996457" lon="11.079563055688489"><ele>41.666666666666664</ele><time>2026-04-05T14:04:49.999Z</time></trkpt><trkpt lat="53.74660414417165" lon="11.07958060266913"><ele>42.0</ele><time>2026-04-05T14:04:50.999Z</time></trkpt><trkpt lat="53.74675989776331" lon="11.07960175539415"><ele>42.666666666666664</ele><time>2026-04-05T14:04:51.999Z</time></trkpt><trkpt lat="53.74692925776574" lon="11.079609786357123"><ele>43.33333333333333</ele><time>2026-04-05T14:04:52.999Z</time></trkpt><trkpt lat="53.74708199377259" lon="11.079635516138936"><ele>44.0</ele><time>2026-04-05T14:04:53.999Z</time></trkpt><trkpt lat="53.74723750709167" lon="11.079675526461354"><ele>44.0</ele><time>2026-04-05T14:04:54.999Z</time></trkpt><trkpt lat="53.74738617089236" lon="11.079697481205041"><ele>44.0</ele><time>2026-04-05T14:04:55.999Z</time></trkpt><trkpt lat="53.74755501476473" lon="11.079706423059898"><ele>44.0</ele><time>2026-04-05T14:04:56.999Z</time></trkpt><trkpt lat="53.74770093544766" lon="11.079707551011484"><ele>44.0</ele><time>2026-04-05T14:04:57.999Z</time></trkpt><trkpt lat="53.74785313250121" lon="11.079726533286166"><ele>44.0</ele><time>2026-04-05T14:04:58.999Z</time></trkpt><trkpt lat="53.74800617580464" lon="11.079742378962404"><ele>44.0</ele><time>2026-04-05T14:04:59.999Z</time></trkpt><trkpt lat="53.74815282197235" lon="11.079670495563166"><ele>44.0</ele><time>2026-04-05T14:05:00.999Z</time></trkpt><trkpt lat="53.74830068118892" lon="11.079569249729635"><ele>44.0</ele><time>2026-04-05T14:05:01.999Z</time></trkpt><trkpt lat="53.74845164525832" lon="11.079504250182605"><ele>44.0</ele><time>2026-04-05T14:05:02.999Z</time></trkpt><trkpt lat="53.748606677657015" lon="11.079431980658038"><ele>43.33333333333333</ele><time>2026-04-05T14:05:03.999Z</time></trkpt><trkpt lat="53.7487634485432" lon="11.079367565062974"><ele>42.666666666666664</ele><time>2026-04-05T14:05:04.999Z</time></trkpt><trkpt lat="53.74889889516419" lon="11.079306235940917"><ele>42.0</ele><time>2026-04-05T14:05:05.999Z</time></trkpt><trkpt lat="53.74905183327293" lon="11.079245354718594"><ele>42.0</ele><time>2026-04-05T14:05:06.999Z</time></trkpt><trkpt lat="53.74920887569489" lon="11.079226343358835"><ele>42.0</ele><time>2026-04-05T14:05:07.999Z</time></trkpt><trkpt lat="53.74937112885227" lon="11.07925842135749"><ele>42.0</ele><time>2026-04-05T14:05:08.999Z</time></trkpt><trkpt lat="53.74952504544629" lon="11.079296377503034"><ele>43.0</ele><time>2026-04-05T14:05:09.999Z</time></trkpt><trkpt lat="53.74966303271371" lon="11.079334750915194"><ele>44.0</ele><time>2026-04-05T14:05:10.999Z</time></trkpt><trkpt lat="53.74981931138494" lon="11.079427611012735"><ele>45.0</ele><time>2026-04-05T14:05:11.999Z</time></trkpt><trkpt lat="53.749921624481196" lon="11.079621118332275"><ele>45.0</ele><time>2026-04-05T14:05:12.999Z</time></trkpt><trkpt lat="53.74999197304935" lon="11.07983490783974"><ele>45.0</ele><time>2026-04-05T14:05:13.999Z</time></trkpt><trkpt lat="53.75006929803312" lon="11.080093865042901"><ele>45.0</ele><time>2026-04-05T14:05:14.999Z</time></trkpt><trkpt lat="53.75013351275538" lon="11.080317628317424"><ele>45.0</ele><time>2026-04-05T14:05:15.999Z</time></trkpt><trkpt lat="53.75018770671732" lon="11.080540625741106"><ele>45.0</ele><time>2026-04-05T14:05:16.999Z</time></trkpt><trkpt lat="53.75023583344995" lon="11.080797939872939"><ele>45.0</ele><time>2026-04-05T14:05:17.999Z</time></trkpt><trkpt lat="53.75029042155063" lon="11.081011557633559"><ele>45.0</ele><time>2026-04-05T14:05:18.999Z</time></trkpt><trkpt lat="53.7503441479418" lon="11.081194837065356"><ele>45.0</ele><time>2026-04-05T14:05:19.999Z</time></trkpt><trkpt lat="53.75042578361991" lon="11.081379444032041"><ele>45.0</ele><time>2026-04-05T14:05:20.999Z</time></trkpt><trkpt lat="53.75050402540686" lon="11.081470763284536"><ele>45.0</ele><time>2026-04-05T14:05:21.999Z</time></trkpt><trkpt lat="53.75060782034295" lon="11.081529629714527"><ele>45.0</ele><time>2026-04-05T14:05:22.999Z</time></trkpt><trkpt lat="53.75075092340267" lon="11.081545172030403"><ele>45.0</ele><time>2026-04-05T14:05:23.999Z</time></trkpt><trkpt lat="53.75089364519567" lon="11.081504434381891"><ele>45.0</ele><time>2026-04-05T14:05:24.999Z</time></trkpt><trkpt lat="53.75103205939896" lon="11.08141097484959"><ele>45.0</ele><time>2026-04-05T14:05:25.999Z</time></trkpt><trkpt lat="53.7511687938041" lon="11.081314467969086"><ele>45.0</ele><time>2026-04-05T14:05:26.999Z</time></trkpt><trkpt lat="53.751316133606636" lon="11.0811917722049"><ele>45.333333333333336</ele><time>2026-04-05T14:05:27.999Z</time></trkpt><trkpt lat="53.751448527443536" lon="11.081077218625717"><ele>45.66666666666667</ele><time>2026-04-05T14:05:28.999Z</time></trkpt><trkpt lat="53.751587109894224" lon="11.08095698771696"><ele>46.0</ele><time>2026-04-05T14:05:29.999Z</time></trkpt><trkpt lat="53.75175797834763" lon="11.080811017869827"><ele>45.66666666666667</ele><time>2026-04-05T14:05:30.999Z</time></trkpt><trkpt lat="53.7519124097013" lon="11.080678906207376"><ele>45.333333333333336</ele><time>2026-04-05T14:05:31.999Z</time></trkpt><trkpt lat="53.75207376446812" lon="11.080542479930124"><ele>45.0</ele><time>2026-04-05T14:05:32.999Z</time></trkpt><trkpt lat="53.75220891805755" lon="11.080414694585658"><ele>45.0</ele><time>2026-04-05T14:05:33.999Z</time></trkpt><trkpt lat="53.752352078992615" lon="11.080329017023336"><ele>45.0</ele><time>2026-04-05T14:05:34.999Z</time></trkpt><trkpt lat="53.752504278033385" lon="11.080235437274164"><ele>45.0</ele><time>2026-04-05T14:05:35.999Z</time></trkpt><trkpt lat="53.7526318620261" lon="11.080101506849072"><ele>45.25</ele><time>2026-04-05T14:05:36.999Z</time></trkpt><trkpt lat="53.75275807568364" lon="11.079993686817268"><ele>45.5</ele><time>2026-04-05T14:05:37.999Z</time></trkpt><trkpt lat="53.7528832911575" lon="11.079930968435574"><ele>45.75</ele><time>2026-04-05T14:05:38.999Z</time></trkpt><trkpt lat="53.75301708421374" lon="11.079861605961757"><ele>46.0</ele><time>2026-04-05T14:05:39.999Z</time></trkpt><trkpt lat="53.75315877770889" lon="11.079735099363383"><ele>46.0</ele><time>2026-04-05T14:05:40.999Z</time></trkpt><trkpt lat="53.75331351267035" lon="11.079639899169576"><ele>46.0</ele><time>2026-04-05T14:05:41.999Z</time></trkpt><trkpt lat="53.753480251730196" lon="11.079552353042994"><ele>46.0</ele><time>2026-04-05T14:05:42.999Z</time></trkpt><trkpt lat="53.75364002777035" lon="11.079473086895458"><ele>46.66666666666667</ele><time>2026-04-05T14:05:43.999Z</time></trkpt><trkpt lat="53.75379796887811" lon="11.079413184214605"><ele>47.333333333333336</ele><time>2026-04-05T14:05:44.999Z</time></trkpt><trkpt lat="53.75395774847583" lon="11.07933335188858"><ele>48.0</ele><time>2026-04-05T14:05:45.999Z</time></trkpt><trkpt lat="53.75408835558855" lon="11.07926059058538"><ele>48.0</ele><time>2026-04-05T14:05:46.999Z</time></trkpt><trkpt lat="53.75421666560391" lon="11.079181069520903"><ele>48.0</ele><time>2026-04-05T14:05:47.999Z</time></trkpt><trkpt lat="53.754345162441595" lon="11.079122451871127"><ele>48.0</ele><time>2026-04-05T14:05:48.999Z</time></trkpt><trkpt lat="53.75446851087678" lon="11.079121813571104"><ele>48.0</ele><time>2026-04-05T14:05:49.999Z</time></trkpt><trkpt lat="53.75456296507896" lon="11.079150781099628"><ele>48.75</ele><time>2026-04-05T14:05:50.999Z</time></trkpt><trkpt lat="53.754674625074884" lon="11.079233788555499"><ele>49.5</ele><time>2026-04-05T14:05:51.999Z</time></trkpt><trkpt lat="53.75476328924918" lon="11.079333238405049"><ele>50.25</ele><time>2026-04-05T14:05:52.999Z</time></trkpt><trkpt lat="53.75486711873924" lon="11.079385125996556"><ele>51.0</ele><time>2026-04-05T14:05:53.999Z</time></trkpt><trkpt lat="53.75497410701931" lon="11.079457680550677"><ele>51.0</ele><time>2026-04-05T14:05:54.999Z</time></trkpt><trkpt lat="53.75510827962592" lon="11.079551450693916"><ele>51.0</ele><time>2026-04-05T14:05:55.999Z</time></trkpt><trkpt lat="53.75523051343553" lon="11.079605741792099"><ele>51.0</ele><time>2026-04-05T14:05:56.999Z</time></trkpt><trkpt lat="53.75533892253772" lon="11.07964125071202"><ele>51.0</ele><time>2026-04-05T14:05:57.999Z</time></trkpt><trkpt lat="53.755447050589126" lon="11.079710949078828"><ele>50.75</ele><time>2026-04-05T14:05:58.999Z</time></trkpt><trkpt lat="53.75557461711282" lon="11.079796632641306"><ele>50.5</ele><time>2026-04-05T14:05:59.999Z</time></trkpt><trkpt lat="53.755674448545285" lon="11.079888253978568"><ele>50.25</ele><time>2026-04-05T14:06:00.999Z</time></trkpt><trkpt lat="53.75580862486306" lon="11.079968924739392"><ele>50.0</ele><time>2026-04-05T14:06:01.999Z</time></trkpt><trkpt lat="53.75593525006776" lon="11.080093745132867"><ele>50.66666666666667</ele><time>2026-04-05T14:06:02.999Z</time></trkpt><trkpt lat="53.75606232044367" lon="11.080212054743464"><ele>51.33333333333333</ele><time>2026-04-05T14:06:03.999Z</time></trkpt><trkpt lat="53.756214485442314" lon="11.080329413539767"><ele>52.0</ele><time>2026-04-05T14:06:04.999Z</time></trkpt><trkpt lat="53.75634158993873" lon="11.080490051398883"><ele>52.0</ele><time>2026-04-05T14:06:05.999Z</time></trkpt><trkpt lat="53.75649219024575" lon="11.080646138576732"><ele>52.0</ele><time>2026-04-05T14:06:06.999Z</time></trkpt><trkpt lat="53.756627660537234" lon="11.08082568077999"><ele>52.0</ele><time>2026-04-05T14:06:07.999Z</time></trkpt><trkpt lat="53.75677663847778" lon="11.081016601277119"><ele>52.0</ele><time>2026-04-05T14:06:08.999Z</time></trkpt><trkpt lat="53.756892920085846" lon="11.081186465813142"><ele>52.0</ele><time>2026-04-05T14:06:09.999Z</time></trkpt><trkpt lat="53.75702582213072" lon="11.081395198580239"><ele>52.0</ele><time>2026-04-05T14:06:10.999Z</time></trkpt><trkpt lat="53.75714279836376" lon="11.081594273892868"><ele>52.0</ele><time>2026-04-05T14:06:11.999Z</time></trkpt><trkpt lat="53.757264987013194" lon="11.081816877683137"><ele>52.0</ele><time>2026-04-05T14:06:12.999Z</time></trkpt><trkpt lat="53.75737277238801" lon="11.08201706580569"><ele>52.0</ele><time>2026-04-05T14:06:13.999Z</time></trkpt><trkpt lat="53.75749254582035" lon="11.082243408729106"><ele>52.0</ele><time>2026-04-05T14:06:14.999Z</time></trkpt><trkpt lat="53.757608341205405" lon="11.082463541633349"><ele>52.0</ele><time>2026-04-05T14:06:15.999Z</time></trkpt><trkpt lat="53.7577257161485" lon="11.082686677851317"><ele>52.0</ele><time>2026-04-05T14:06:16.999Z</time></trkpt><trkpt lat="53.75784878728289" lon="11.082920643238987"><ele>52.0</ele><time>2026-04-05T14:06:17.999Z</time></trkpt><trkpt lat="53.7579972645171" lon="11.083198168427721"><ele>52.0</ele><time>2026-04-05T14:06:18.999Z</time></trkpt><trkpt lat="53.75811108892088" lon="11.083406938629798"><ele>52.0</ele><time>2026-04-05T14:06:20Z</time></trkpt><trkpt lat="53.758266147082814" lon="11.083687641713889"><ele>52.33333333333333</ele><time>2026-04-05T14:06:21Z</time></trkpt><trkpt lat="53.75839194149087" lon="11.083914157805408"><ele>52.66666666666667</ele><time>2026-04-05T14:06:22Z</time></trkpt><trkpt lat="53.75855683735252" lon="11.084169290159132"><ele>53.0</ele><time>2026-04-05T14:06:23Z</time></trkpt><trkpt lat="53.75870281224836" lon="11.084355231346704"><ele>53.0</ele><time>2026-04-05T14:06:24Z</time></trkpt><trkpt lat="53.75884145636798" lon="11.084499597978754"><ele>53.0</ele><time>2026-04-05T14:06:25Z</time></trkpt><trkpt lat="53.759004586033214" lon="11.084654748460311"><ele>53.0</ele><time>2026-04-05T14:06:26Z</time></trkpt><trkpt lat="53.75918485329722" lon="11.084795153603183"><ele>52.333333333333336</ele><time>2026-04-05T14:06:27Z</time></trkpt><trkpt lat="53.75936832508301" lon="11.084884023560122"><ele>51.66666666666667</ele><time>2026-04-05T14:06:28Z</time></trkpt><trkpt lat="53.75954865038305" lon="11.084993629580184"><ele>51.0</ele><time>2026-04-05T14:06:29Z</time></trkpt><trkpt lat="53.759711527987704" lon="11.085124161583915"><ele>51.0</ele><time>2026-04-05T14:06:30Z</time></trkpt><trkpt lat="53.75988677677884" lon="11.085205433910438"><ele>51.0</ele><time>2026-04-05T14:06:31Z</time></trkpt><trkpt lat="53.760052006727925" lon="11.085310402511606"><ele>51.0</ele><time>2026-04-05T14:06:32Z</time></trkpt><trkpt lat="53.76023659600127" lon="11.085428614141376"><ele>50.66666666666667</ele><time>2026-04-05T14:06:33Z</time></trkpt><trkpt lat="53.760413159828026" lon="11.085569009161226"><ele>50.333333333333336</ele><time>2026-04-05T14:06:34Z</time></trkpt><trkpt lat="53.760594183385685" lon="11.08567041330051"><ele>50.0</ele><time>2026-04-05T14:06:35Z</time></trkpt><trkpt lat="53.760787939932875" lon="11.085747101351917"><ele>50.333333333333336</ele><time>2026-04-05T14:06:36Z</time></trkpt><trkpt lat="53.760947384034445" lon="11.085869717696298"><ele>50.66666666666667</ele><time>2026-04-05T14:06:37Z</time></trkpt><trkpt lat="53.76112842056386" lon="11.085986432349959"><ele>51.0</ele><time>2026-04-05T14:06:38Z</time></trkpt><trkpt lat="53.76128812806482" lon="11.086094443641677"><ele>51.66666666666667</ele><time>2026-04-05T14:06:39Z</time></trkpt><trkpt lat="53.76145046682246" lon="11.086204663326626"><ele>52.333333333333336</ele><time>2026-04-05T14:06:40Z</time></trkpt><trkpt lat="53.76162318769593" lon="11.086319370824793"><ele>53.0</ele><time>2026-04-05T14:06:41Z</time></trkpt><trkpt lat="53.76178299460277" lon="11.086424201402414"><ele>53.66666666666667</ele><time>2026-04-05T14:06:42Z</time></trkpt><trkpt lat="53.76194040369002" lon="11.086527889405986"><ele>54.33333333333333</ele><time>2026-04-05T14:06:43Z</time></trkpt><trkpt lat="53.762088199085674" lon="11.086626502820959"><ele>55.0</ele><time>2026-04-05T14:06:44Z</time></trkpt><trkpt lat="53.76223058005852" lon="11.086721515252707"><ele>55.0</ele><time>2026-04-05T14:06:45Z</time></trkpt><trkpt lat="53.76238693334942" lon="11.086825851544022"><ele>55.0</ele><time>2026-04-05T14:06:46Z</time></trkpt><trkpt lat="53.76257332262017" lon="11.0869549223019"><ele>55.0</ele><time>2026-04-05T14:06:47Z</time></trkpt><trkpt lat="53.76271309168809" lon="11.087053060425713"><ele>55.0</ele><time>2026-04-05T14:06:48Z</time></trkpt><trkpt lat="53.762862834794014" lon="11.08715977041365"><ele>55.0</ele><time>2026-04-05T14:06:49Z</time></trkpt><trkpt lat="53.76303170637697" lon="11.08728078114637"><ele>55.0</ele><time>2026-04-05T14:06:50Z</time></trkpt><trkpt lat="53.76319786177979" lon="11.087401157811414"><ele>54.0</ele><time>2026-04-05T14:06:51Z</time></trkpt><trkpt lat="53.76337255002017" lon="11.087530926940696"><ele>53.0</ele><time>2026-04-05T14:06:52Z</time></trkpt><trkpt lat="53.76351124283453" lon="11.08763868739064"><ele>52.0</ele><time>2026-04-05T14:06:53Z</time></trkpt><trkpt lat="53.76368980289422" lon="11.087812002674875"><ele>51.0</ele><time>2026-04-05T14:06:54Z</time></trkpt><trkpt lat="53.76380313321837" lon="11.087982713565559"><ele>50.0</ele><time>2026-04-05T14:06:55Z</time></trkpt><trkpt lat="53.763906822793516" lon="11.088176601849211"><ele>49.0</ele><time>2026-04-05T14:06:56Z</time></trkpt><trkpt lat="53.764016678739665" lon="11.08840240146341"><ele>49.0</ele><time>2026-04-05T14:06:57Z</time></trkpt><trkpt lat="53.76412785191198" lon="11.088637207009905"><ele>49.0</ele><time>2026-04-05T14:06:58Z</time></trkpt><trkpt lat="53.76424352762771" lon="11.08888152210672"><ele>49.0</ele><time>2026-04-05T14:06:59Z</time></trkpt><trkpt lat="53.76435947665872" lon="11.089127282189546"><ele>48.33333333333333</ele><time>2026-04-05T14:07:00Z</time></trkpt><trkpt lat="53.76445459610037" lon="11.089355750695901"><ele>47.666666666666664</ele><time>2026-04-05T14:07:01Z</time></trkpt><trkpt lat="53.764540229178635" lon="11.0896149604615"><ele>47.0</ele><time>2026-04-05T14:07:02Z</time></trkpt><trkpt lat="53.764610971449656" lon="11.089885347065001"><ele>47.666666666666664</ele><time>2026-04-05T14:07:03Z</time></trkpt><trkpt lat="53.76467477607237" lon="11.090158550832854"><ele>48.33333333333333</ele><time>2026-04-05T14:07:04Z</time></trkpt><trkpt lat="53.764733281423624" lon="11.090413233731171"><ele>49.0</ele><time>2026-04-05T14:07:05Z</time></trkpt><trkpt lat="53.76478211904965" lon="11.090618998914893"><ele>49.0</ele><time>2026-04-05T14:07:06Z</time></trkpt><trkpt lat="53.76482514476072" lon="11.090800174358874"><ele>49.0</ele><time>2026-04-05T14:07:07Z</time></trkpt><trkpt lat="53.7648540170438" lon="11.090924354816073"><ele>49.0</ele><time>2026-04-05T14:07:08Z</time></trkpt><trkpt lat="53.764887605646464" lon="11.091073518143551"><ele>49.0</ele><time>2026-04-05T14:07:09Z</time></trkpt><trkpt lat="53.764893094643185" lon="11.091231085771055"><ele>49.0</ele><time>2026-04-05T14:07:10Z</time></trkpt><trkpt lat="53.764841638319616" lon="11.091407639958243"><ele>49.0</ele><time>2026-04-05T14:07:11Z</time></trkpt><trkpt lat="53.76476238928295" lon="11.091626866034098"><ele>49.0</ele><time>2026-04-05T14:07:12Z</time></trkpt><trkpt lat="53.76467859120174" lon="11.091878126371807"><ele>49.0</ele><time>2026-04-05T14:07:13Z</time></trkpt><trkpt lat="53.764625928482864" lon="11.092139055989202"><ele>49.0</ele><time>2026-04-05T14:07:14Z</time></trkpt><trkpt lat="53.764588227434025" lon="11.092369849198112"><ele>49.0</ele><time>2026-04-05T14:07:15Z</time></trkpt><trkpt lat="53.76453890566033" lon="11.092658190139261"><ele>49.0</ele><time>2026-04-05T14:07:16Z</time></trkpt><trkpt lat="53.764500948575154" lon="11.092941539579963"><ele>48.5</ele><time>2026-04-05T14:07:17Z</time></trkpt><trkpt lat="53.764471292182904" lon="11.093200760048164"><ele>48.0</ele><time>2026-04-05T14:07:18Z</time></trkpt><trkpt lat="53.76446684155974" lon="11.093456886808593"><ele>47.5</ele><time>2026-04-05T14:07:19Z</time></trkpt><trkpt lat="53.76444618974345" lon="11.093631100957627"><ele>47.0</ele><time>2026-04-05T14:07:20Z</time></trkpt><trkpt lat="53.76447492529055" lon="11.093856810884548"><ele>46.33333333333333</ele><time>2026-04-05T14:07:21Z</time></trkpt><trkpt lat="53.764526228994576" lon="11.094108770539702"><ele>45.666666666666664</ele><time>2026-04-05T14:07:22Z</time></trkpt><trkpt lat="53.76460357958339" lon="11.094336382930425"><ele>45.0</ele><time>2026-04-05T14:07:23Z</time></trkpt><trkpt lat="53.76466969484241" lon="11.094579011404802"><ele>45.0</ele><time>2026-04-05T14:07:24Z</time></trkpt><trkpt lat="53.76470730722152" lon="11.09481962813042"><ele>45.0</ele><time>2026-04-05T14:07:25Z</time></trkpt><trkpt lat="53.764703711582996" lon="11.09502674571799"><ele>45.0</ele><time>2026-04-05T14:07:26Z</time></trkpt><trkpt lat="53.764727192925264" lon="11.09521768151271"><ele>45.0</ele><time>2026-04-05T14:07:27Z</time></trkpt><trkpt lat="53.76479350684695" lon="11.095316501726519"><ele>45.4</ele><time>2026-04-05T14:07:28Z</time></trkpt><trkpt lat="53.76486439533972" lon="11.095488885814477"><ele>45.8</ele><time>2026-04-05T14:07:30Z</time></trkpt><trkpt lat="53.764920144589475" lon="11.09557960309345"><ele>46.2</ele><time>2026-04-05T14:07:32Z</time></trkpt><trkpt lat="53.76486530611349" lon="11.095666201693245"><ele>46.6</ele><time>2026-04-05T14:07:33Z</time></trkpt><trkpt lat="53.76475281140931" lon="11.095776000219058"><ele>47.0</ele><time>2026-04-05T14:07:35Z</time></trkpt><trkpt lat="53.76469674318081" lon="11.095837610593916"><ele>47.400000000000006</ele><time>2026-04-05T14:07:36Z</time></trkpt><trkpt lat="53.764641074590116" lon="11.095891097284222"><ele>47.800000000000004</ele><time>2026-04-05T14:07:37Z</time></trkpt><trkpt lat="53.76459440038934" lon="11.096020045778586"><ele>48.2</ele><time>2026-04-05T14:07:39Z</time></trkpt><trkpt lat="53.76456739884427" lon="11.096204612350885"><ele>48.6</ele><time>2026-04-05T14:07:39.999Z</time></trkpt><trkpt lat="53.76466310728462" lon="11.096309668683013"><ele>49.0</ele><time>2026-04-05T14:07:40.999Z</time></trkpt><trkpt lat="53.76475758955796" lon="11.096331715626027"><ele>49.0</ele><time>2026-04-05T14:07:41.999Z</time></trkpt><trkpt lat="53.764842638343495" lon="11.09634466285906"><ele>49.0</ele><time>2026-04-05T14:07:42.999Z</time></trkpt><trkpt lat="53.764941398143065" lon="11.096357906843052"><ele>49.0</ele><time>2026-04-05T14:07:43.999Z</time></trkpt><trkpt lat="53.76504721543649" lon="11.096353987267857"><ele>49.0</ele><time>2026-04-05T14:07:44.999Z</time></trkpt><trkpt lat="53.76515466612509" lon="11.09637165547363"><ele>49.0</ele><time>2026-04-05T14:07:45.999Z</time></trkpt><trkpt lat="53.765242759732786" lon="11.096393729885031"><ele>48.6</ele><time>2026-04-05T14:07:46.999Z</time></trkpt><trkpt lat="53.76531477472726" lon="11.09642890236007"><ele>48.2</ele><time>2026-04-05T14:07:47.999Z</time></trkpt><trkpt lat="53.76533671627012" lon="11.09660045897837"><ele>47.800000000000004</ele><time>2026-04-05T14:07:49.999Z</time></trkpt><trkpt lat="53.765368830900165" lon="11.096755561742436"><ele>47.400000000000006</ele><time>2026-04-05T14:07:50.999Z</time></trkpt><trkpt lat="53.765408539595235" lon="11.096885571948619"><ele>47.0</ele><time>2026-04-05T14:07:51.999Z</time></trkpt><trkpt lat="53.765436710878596" lon="11.097047278614614"><ele>47.0</ele><time>2026-04-05T14:07:52.999Z</time></trkpt><trkpt lat="53.76546429221219" lon="11.097177315735872"><ele>47.0</ele><time>2026-04-05T14:07:53.999Z</time></trkpt><trkpt lat="53.76548681042267" lon="11.09728558590232"><ele>47.0</ele><time>2026-04-05T14:07:54.999Z</time></trkpt><trkpt lat="53.76549501377463" lon="11.097486464413079"><ele>47.0</ele><time>2026-04-05T14:07:56.999Z</time></trkpt><trkpt lat="53.765464752469505" lon="11.097583729147953"><ele>47.0</ele><time>2026-04-05T14:07:57.999Z</time></trkpt><trkpt lat="53.76540221577434" lon="11.09762626966511"><ele>47.0</ele><time>2026-04-05T14:07:58.999Z</time></trkpt><trkpt lat="53.76529302816275" lon="11.097630700635143"><ele>47.0</ele><time>2026-04-05T14:07:59.999Z</time></trkpt><trkpt lat="53.76521229546452" lon="11.097628815959315"><ele>47.0</ele><time>2026-04-05T14:08:00.999Z</time></trkpt><trkpt lat="53.76512985462793" lon="11.097648589655883"><ele>47.0</ele><time>2026-04-05T14:08:01.999Z</time></trkpt><trkpt lat="53.76503791284008" lon="11.097625455959466"><ele>47.0</ele><time>2026-04-05T14:08:02.999Z</time></trkpt><trkpt lat="53.76495138169745" lon="11.097633018458003"><ele>47.0</ele><time>2026-04-05T14:08:03.999Z</time></trkpt><trkpt lat="53.76487163555304" lon="11.097604215826712"><ele>47.0</ele><time>2026-04-05T14:08:04.999Z</time></trkpt><trkpt lat="53.76480722204843" lon="11.09759864797107"><ele>47.5</ele><time>2026-04-05T14:08:05.999Z</time></trkpt><trkpt lat="53.76473379995754" lon="11.097602246683632"><ele>48.0</ele><time>2026-04-05T14:08:07.999Z</time></trkpt><trkpt lat="53.76472148587054" lon="11.0978086690936"><ele>48.5</ele><time>2026-04-05T14:08:10.999Z</time></trkpt><trkpt lat="53.76467759347465" lon="11.097899090963205"><ele>49.0</ele><time>2026-04-05T14:08:14.999Z</time></trkpt><trkpt lat="53.764732246908" lon="11.097829511134062"><ele>49.50000000000001</ele><time>2026-04-05T14:08:18.999Z</time></trkpt><trkpt lat="53.76475066602327" lon="11.097953409531014"><ele>50.0</ele><time>2026-04-05T14:08:44.999Z</time></trkpt><trkpt lat="53.764677446258034" lon="11.097987009705557"><ele>50.0</ele><time>2026-04-05T14:08:58.999Z</time></trkpt><trkpt lat="53.76467024339242" lon="11.098118091828429"><ele>50.0</ele><time>2026-04-05T14:09:00.999Z</time></trkpt><trkpt lat="53.76473193529311" lon="11.098199670626572"><ele>50.0</ele><time>2026-04-05T14:09:10.999Z</time></trkpt><trkpt lat="53.76468081593743" lon="11.098282947079493"><ele>50.0</ele><time>2026-04-05T14:09:19.999Z</time></trkpt><trkpt lat="53.76462954820857" lon="11.098583455323787"><ele>50.0</ele><time>2026-04-05T14:09:31.999Z</time></trkpt><trkpt lat="53.76455933720683" lon="11.098567196225064"><ele>50.0</ele><time>2026-04-05T14:09:39.999Z</time></trkpt><trkpt lat="53.7646050214487" lon="11.09849164306237"><ele>50.0</ele><time>2026-04-05T14:09:43.999Z</time></trkpt><trkpt lat="53.764619866773586" lon="11.098360120928298"><ele>50.0</ele><time>2026-04-05T14:09:50.999Z</time></trkpt><trkpt lat="53.76463350169187" lon="11.098246229299285"><ele>50.0</ele><time>2026-04-05T14:09:57.999Z</time></trkpt></trkseg></trk></gpx>